[[{"header":{"parameterUnit":"m.s-1","parameterCategory":1,"la1":30.6,"la2":29.2853,"lo1":-89.7004,"lo2":-87.6739,"dy":0.0162,"dx":0.0183,"nx":112,"ny":82,"refTime":"2024-05-05T12:00:00:Z","depth":0,"parameterNumber":2,"parameterNumberName":"U-component_of_WINDS"},"data":[0.0,0.0,0.0,0.0,0.0,0.0,0.0,0.0,0.0,0.0,0.0,0.0,0.0,0.0,0.0,0.0,0.0,0.0,0.0,0.0,0.0,0.0,0.0,0.0,0.0,0.0,0.0,0.0,0.0,0.0,0.0,0.0,0.0,0.0,0.0,0.0,0.0,0.0,0.0,0.0,0.0,0.0,0.0,0.0,0.0,0.0,0.0,0.0,0.0,0.0,0.0,0.0,0.0,0.0,0.0,0.0,0.0,0.0,0.0,0.0,0.0,0.0,0.0,0.0,0.0,0.0,0.0,0.0,0.0,0.0,0.0,0.0,0.0,0.0,0.0,0.0,0.0,0.0,0.0,0.0,0.0,0.0,0.0,0.0,0.0,0.0,0.0,0.0,0.0,0.0,-6.1698,-6.1698,-6.1657,-6.1611,-6.1608,-6.0924,-6.0063,-5.9066,0.0,0.0,0.0,0.0,0.0,0.0,0.0,0.0,0.0,0.0,0.0,0.0,0.0,0.0,0.0,0.0,0.0,0.0,0.0,0.0,0.0,0.0,0.0,0.0,0.0,0.0,0.0,0.0,0.0,0.0,0.0,0.0,0.0,0.0,0.0,0.0,0.0,0.0,0.0,0.0,0.0,0.0,0.0,0.0,0.0,0.0,0.0,0.0,0.0,0.0,0.0,0.0,0.0,0.0,0.0,0.0,0.0,0.0,0.0,0.0,0.0,0.0,0.0,0.0,0.0,0.0,0.0,0.0,0.0,0.0,0.0,0.0,0.0,0.0,0.0,0.0,0.0,0.0,0.0,0.0,0.0,0.0,0.0,0.0,0.0,0.0,0.0,0.0,0.0,0.0,0.0,0.0,0.0,0.0,0.0,0.0,0.0,0.0,0.0,0.0,0.0,0.0,0.0,0.0,-6.1698,-6.1698,-6.1685,-6.167,-6.1591,-6.1475,-6.0709,-5.9094,0.0,0.0,0.0,0.0,0.0,0.0,0.0,0.0,0.0,0.0,0.0,0.0,0.0,0.0,0.0,0.0,0.0,0.0,0.0,0.0,0.0,0.0,0.0,0.0,0.0,0.0,0.0,0.0,0.0,0.0,0.0,0.0,0.0,0.0,0.0,0.0,0.0,0.0,0.0,0.0,0.0,0.0,0.0,0.0,0.0,0.0,0.0,0.0,0.0,0.0,0.0,0.0,0.0,0.0,0.0,0.0,0.0,0.0,0.0,0.0,0.0,0.0,0.0,0.0,0.0,0.0,0.0,0.0,0.0,0.0,0.0,0.0,0.0,0.0,0.0,0.0,0.0,0.0,0.0,0.0,0.0,0.0,0.0,0.0,0.0,0.0,0.0,0.0,0.0,0.0,0.0,0.0,0.0,0.0,0.0,0.0,0.0,0.0,0.0,0.0,0.0,0.0,0.0,-6.1453,-6.1698,-6.1698,-6.1707,-6.1696,-6.167,-6.1194,-6.0352,-5.9077,-5.8178,0.0,0.0,0.0,0.0,0.0,0.0,0.0,0.0,0.0,0.0,0.0,0.0,0.0,0.0,0.0,0.0,0.0,0.0,0.0,0.0,0.0,0.0,0.0,0.0,0.0,0.0,0.0,0.0,0.0,0.0,0.0,0.0,0.0,0.0,0.0,0.0,0.0,0.0,0.0,0.0,0.0,0.0,0.0,0.0,0.0,0.0,0.0,0.0,0.0,0.0,0.0,0.0,0.0,0.0,0.0,0.0,0.0,0.0,0.0,0.0,0.0,0.0,0.0,0.0,0.0,0.0,0.0,0.0,0.0,0.0,0.0,0.0,0.0,0.0,0.0,0.0,0.0,0.0,0.0,0.0,0.0,0.0,0.0,0.0,0.0,0.0,0.0,0.0,0.0,0.0,0.0,0.0,0.0,0.0,0.0,0.0,0.0,0.0,0.0,0.0,0.0,0.0,-6.169,-6.1703,-6.1698,-6.1691,-6.1702,-6.1699,-6.0857,-5.9939,-5.905,-5.8199,0.0,0.0,0.0,0.0,0.0,0.0,0.0,0.0,0.0,0.0,0.0,0.0,0.0,0.0,0.0,0.0,0.0,0.0,0.0,0.0,0.0,0.0,0.0,0.0,0.0,0.0,0.0,0.0,0.0,0.0,0.0,0.0,0.0,0.0,0.0,0.0,0.0,0.0,0.0,0.0,0.0,0.0,0.0,0.0,0.0,0.0,0.0,0.0,0.0,0.0,0.0,0.0,0.0,0.0,0.0,0.0,0.0,0.0,0.0,0.0,0.0,0.0,0.0,0.0,0.0,0.0,0.0,0.0,0.0,0.0,0.0,0.0,0.0,0.0,0.0,0.0,0.0,0.0,0.0,0.0,0.0,0.0,0.0,0.0,0.0,0.0,0.0,0.0,0.0,0.0,0.0,0.0,0.0,0.0,0.0,0.0,0.0,0.0,0.0,0.0,0.0,0.0,-6.1697,-6.1692,-6.1701,-6.1698,-6.1693,-6.1699,-6.0899,-5.9986,-5.9054,-5.8231,0.0,0.0,0.0,0.0,0.0,0.0,0.0,0.0,0.0,0.0,0.0,0.0,0.0,0.0,0.0,0.0,0.0,0.0,0.0,0.0,0.0,0.0,0.0,0.0,0.0,0.0,0.0,0.0,0.0,0.0,0.0,0.0,0.0,0.0,0.0,0.0,0.0,0.0,0.0,0.0,0.0,0.0,0.0,0.0,0.0,0.0,0.0,0.0,0.0,0.0,0.0,0.0,0.0,0.0,0.0,0.0,0.0,0.0,0.0,0.0,0.0,0.0,0.0,0.0,0.0,0.0,0.0,0.0,0.0,0.0,0.0,0.0,0.0,0.0,0.0,0.0,0.0,0.0,0.0,0.0,0.0,0.0,0.0,0.0,0.0,0.0,0.0,0.0,0.0,0.0,0.0,0.0,0.0,0.0,0.0,0.0,0.0,0.0,0.0,0.0,0.0,0.0,-6.1704,-6.1696,-6.1692,-6.1705,-6.1698,-6.1693,-6.0397,-5.943,-5.9086,0.0,0.0,0.0,0.0,0.0,0.0,0.0,0.0,0.0,0.0,0.0,0.0,0.0,0.0,0.0,0.0,0.0,0.0,0.0,0.0,0.0,0.0,0.0,0.0,0.0,0.0,0.0,0.0,0.0,0.0,0.0,0.0,0.0,0.0,0.0,0.0,0.0,0.0,0.0,0.0,0.0,0.0,0.0,0.0,0.0,0.0,0.0,0.0,0.0,0.0,0.0,0.0,0.0,0.0,0.0,0.0,0.0,0.0,0.0,0.0,0.0,0.0,0.0,0.0,0.0,0.0,0.0,0.0,0.0,0.0,0.0,0.0,0.0,0.0,0.0,0.0,0.0,0.0,0.0,0.0,0.0,0.0,0.0,0.0,0.0,0.0,0.0,0.0,0.0,0.0,0.0,0.0,0.0,0.0,0.0,0.0,0.0,0.0,0.0,0.0,0.0,0.0,-6.1111,-6.1536,-6.1704,-6.1699,-6.1692,-6.1586,-6.131,-5.9934,-5.8973,-5.8694,0.0,0.0,0.0,0.0,0.0,0.0,0.0,0.0,0.0,0.0,0.0,0.0,0.0,0.0,0.0,0.0,0.0,0.0,0.0,0.0,0.0,0.0,0.0,0.0,0.0,0.0,0.0,0.0,0.0,0.0,0.0,0.0,0.0,0.0,0.0,0.0,0.0,0.0,0.0,0.0,0.0,0.0,0.0,0.0,0.0,0.0,0.0,0.0,0.0,0.0,0.0,0.0,0.0,0.0,0.0,0.0,0.0,0.0,0.0,0.0,0.0,0.0,0.0,0.0,0.0,0.0,0.0,0.0,0.0,0.0,0.0,0.0,0.0,0.0,0.0,0.0,0.0,0.0,0.0,0.0,0.0,0.0,0.0,0.0,0.0,0.0,0.0,0.0,0.0,0.0,0.0,0.0,0.0,0.0,0.0,0.0,0.0,0.0,0.0,0.0,0.0,0.0,-6.0291,-6.115,-6.1694,-6.1701,-6.1697,-6.1342,-6.0473,-5.9592,-5.8727,0.0,0.0,0.0,0.0,0.0,0.0,0.0,0.0,0.0,0.0,0.0,0.0,0.0,0.0,0.0,0.0,0.0,0.0,0.0,0.0,0.0,0.0,0.0,0.0,0.0,0.0,0.0,0.0,0.0,0.0,0.0,0.0,0.0,0.0,0.0,0.0,0.0,0.0,0.0,0.0,0.0,0.0,0.0,0.0,0.0,0.0,0.0,0.0,0.0,0.0,0.0,0.0,0.0,0.0,0.0,0.0,0.0,0.0,0.0,0.0,0.0,0.0,0.0,0.0,0.0,0.0,0.0,0.0,0.0,0.0,0.0,0.0,0.0,0.0,0.0,0.0,0.0,0.0,0.0,0.0,0.0,0.0,0.0,0.0,0.0,0.0,0.0,0.0,0.0,0.0,0.0,0.0,0.0,0.0,0.0,0.0,0.0,0.0,0.0,0.0,0.0,0.0,0.0,-6.0293,-6.1151,-6.1696,-6.1694,-6.1705,-6.1344,-6.0464,-5.9597,-5.8731,-5.7851,0.0,0.0,0.0,0.0,0.0,0.0,0.0,0.0,0.0,0.0,0.0,0.0,0.0,0.0,0.0,0.0,0.0,0.0,0.0,0.0,0.0,0.0,0.0,0.0,0.0,0.0,0.0,0.0,0.0,0.0,0.0,0.0,0.0,0.0,0.0,0.0,0.0,0.0,0.0,0.0,0.0,0.0,0.0,0.0,0.0,0.0,0.0,0.0,0.0,0.0,0.0,0.0,0.0,0.0,0.0,0.0,0.0,0.0,0.0,0.0,0.0,0.0,0.0,0.0,0.0,0.0,0.0,0.0,0.0,0.0,0.0,0.0,0.0,0.0,0.0,0.0,0.0,0.0,0.0,0.0,0.0,0.0,0.0,0.0,0.0,0.0,0.0,0.0,0.0,0.0,0.0,0.0,0.0,0.0,0.0,0.0,0.0,0.0,0.0,0.0,0.0,0.0,-5.9805,-6.0664,-6.1308,-6.1658,-6.14,-6.0828,-5.9965,-5.9101,-5.8256,-5.7373,0.0,0.0,0.0,0.0,0.0,0.0,0.0,0.0,0.0,0.0,0.0,0.0,0.0,0.0,0.0,0.0,0.0,0.0,0.0,0.0,0.0,0.0,0.0,0.0,0.0,0.0,0.0,0.0,0.0,0.0,0.0,0.0,0.0,0.0,0.0,0.0,0.0,0.0,0.0,0.0,0.0,0.0,0.0,0.0,0.0,0.0,0.0,0.0,0.0,0.0,0.0,0.0,0.0,0.0,0.0,0.0,0.0,0.0,0.0,0.0,0.0,0.0,0.0,0.0,0.0,0.0,0.0,0.0,0.0,0.0,0.0,0.0,0.0,0.0,0.0,0.0,0.0,0.0,0.0,0.0,0.0,0.0,0.0,0.0,0.0,0.0,0.0,0.0,0.0,0.0,0.0,0.0,0.0,0.0,0.0,0.0,0.0,0.0,0.0,0.0,0.0,0.0,-5.8984,-5.9785,-6.0586,-6.1385,-6.076,-5.9938,-5.9055,-5.8312,-5.7528,-5.6662,0.0,0.0,0.0,0.0,0.0,0.0,0.0,0.0,0.0,0.0,0.0,0.0,0.0,0.0,0.0,0.0,0.0,0.0,0.0,0.0,0.0,0.0,0.0,0.0,0.0,0.0,0.0,0.0,0.0,0.0,0.0,0.0,0.0,0.0,0.0,0.0,0.0,0.0,0.0,0.0,0.0,0.0,0.0,0.0,0.0,0.0,0.0,0.0,0.0,0.0,0.0,0.0,0.0,0.0,0.0,0.0,0.0,0.0,0.0,0.0,-5.4563,-5.3894,0.0,0.0,0.0,0.0,0.0,0.0,0.0,0.0,0.0,0.0,0.0,0.0,0.0,0.0,0.0,0.0,0.0,0.0,0.0,0.0,0.0,0.0,0.0,0.0,0.0,0.0,0.0,0.0,0.0,0.0,0.0,0.0,0.0,0.0,0.0,0.0,0.0,0.0,0.0,0.0,-5.8144,-5.8926,-5.9531,-5.9707,-5.9569,-5.9099,-5.8239,-5.8002,-5.753,-5.6669,-5.6591,0.0,0.0,0.0,0.0,0.0,0.0,0.0,0.0,0.0,0.0,0.0,0.0,0.0,0.0,0.0,0.0,0.0,0.0,0.0,0.0,0.0,0.0,0.0,0.0,0.0,0.0,0.0,0.0,0.0,0.0,0.0,0.0,0.0,0.0,0.0,0.0,0.0,0.0,0.0,0.0,0.0,0.0,0.0,0.0,0.0,0.0,0.0,0.0,0.0,0.0,0.0,0.0,0.0,0.0,0.0,0.0,0.0,0.0,0.0,-5.5584,-5.4959,0.0,0.0,0.0,0.0,0.0,0.0,0.0,0.0,0.0,0.0,0.0,0.0,0.0,0.0,0.0,0.0,0.0,0.0,0.0,0.0,0.0,0.0,0.0,0.0,0.0,0.0,0.0,0.0,0.0,0.0,0.0,0.0,0.0,0.0,0.0,0.0,0.0,0.0,0.0,0.0,-5.7851,-5.8301,-5.873,-5.916,-5.8828,-5.8398,-5.7949,-5.7518,-5.7087,-5.6636,-5.6597,0.0,0.0,0.0,0.0,0.0,0.0,0.0,0.0,0.0,0.0,0.0,0.0,0.0,0.0,0.0,0.0,0.0,0.0,0.0,0.0,0.0,0.0,0.0,0.0,0.0,0.0,0.0,0.0,0.0,0.0,0.0,0.0,0.0,0.0,0.0,0.0,0.0,0.0,0.0,0.0,0.0,0.0,0.0,0.0,0.0,0.0,0.0,0.0,0.0,0.0,0.0,0.0,0.0,-5.6903,-5.6935,-5.6935,-5.6935,-5.6935,-5.6935,-5.6932,-5.6352,-5.5433,-5.5509,0.0,0.0,0.0,0.0,0.0,0.0,0.0,0.0,0.0,0.0,0.0,0.0,0.0,0.0,0.0,0.0,0.0,0.0,0.0,0.0,0.0,0.0,-5.5711,-5.6434,-5.6591,-5.6594,-5.6601,0.0,0.0,0.0,0.0,0.0,0.0,0.0,0.0,0.0,0.0,0.0,-5.7578,-5.7676,-5.7949,-5.8672,-5.8105,-5.7676,-5.7676,-5.7012,-5.6601,-5.66,-5.66,-5.5818,0.0,0.0,0.0,0.0,0.0,0.0,0.0,0.0,0.0,0.0,0.0,0.0,0.0,0.0,0.0,0.0,0.0,0.0,0.0,0.0,0.0,0.0,0.0,0.0,0.0,0.0,0.0,0.0,0.0,0.0,0.0,0.0,-5.2154,-5.2368,0.0,0.0,0.0,0.0,0.0,0.0,0.0,0.0,0.0,0.0,0.0,0.0,0.0,-5.85,-5.8557,-5.8568,-5.8596,-5.8661,-5.8676,-5.8665,-5.8665,-5.8665,-5.8665,-5.867,-5.8675,0.0,-5.6332,-5.6402,0.0,0.0,0.0,0.0,0.0,0.0,0.0,0.0,0.0,0.0,0.0,0.0,0.0,0.0,0.0,0.0,0.0,0.0,0.0,0.0,0.0,0.0,-5.6456,-5.6563,-5.6603,-5.6605,-5.6594,-5.6595,-5.6596,-5.6599,-5.66,-5.66,0.0,0.0,0.0,0.0,0.0,0.0,-5.6758,-5.6777,-5.6816,-5.6933,-5.6836,-5.6777,-5.6777,-5.668,-5.6601,-5.6601,-5.6601,-5.582,-5.4062,-5.4004,0.0,0.0,0.0,0.0,0.0,0.0,0.0,0.0,0.0,0.0,0.0,0.0,0.0,0.0,0.0,0.0,0.0,0.0,0.0,0.0,0.0,0.0,0.0,0.0,0.0,0.0,0.0,0.0,0.0,-5.194,-5.2756,-5.3747,-5.4543,-5.5184,0.0,0.0,0.0,0.0,0.0,0.0,0.0,0.0,0.0,-5.8797,-5.8797,-5.8804,-5.8836,-5.8886,-5.8915,-5.8932,-5.8978,-5.8996,-5.8996,-5.8996,-5.8996,-5.9001,-5.9003,-5.8593,-5.7928,-5.7465,-5.7263,-5.7192,0.0,0.0,0.0,0.0,-5.5142,-5.4734,-5.4738,-5.4408,-5.3998,-5.4002,0.0,0.0,0.0,0.0,0.0,0.0,0.0,-5.6124,-5.6495,-5.6608,-5.6606,-5.6593,-5.6593,-5.6595,-5.6598,-5.66,-5.6603,-5.6595,-5.6596,-5.6597,-5.6598,-5.66,0.0,0.0,0.0,-5.6601,-5.6601,-5.6601,-5.6601,-5.6601,-5.6601,-5.6601,-5.6601,-5.6601,-5.6601,-5.6601,-5.66,-5.5817,-5.4079,-5.4001,-5.3181,0.0,0.0,0.0,0.0,0.0,0.0,0.0,0.0,0.0,0.0,0.0,0.0,0.0,0.0,0.0,0.0,0.0,0.0,0.0,0.0,0.0,0.0,0.0,0.0,0.0,0.0,0.0,0.0,-5.277,-5.3527,-5.4815,-5.5366,-5.5896,0.0,0.0,0.0,0.0,0.0,0.0,-5.9127,-5.9127,-5.9224,-5.9458,-5.9477,-5.9477,-5.9477,-5.9522,-5.9571,-5.9577,-5.9635,-5.9659,-5.9659,-5.9659,-5.9659,-5.9663,-5.9677,-5.9697,-5.9657,-5.8585,-5.8136,-5.805,-5.7231,-5.6918,-5.6879,-5.6684,-5.6196,-5.563,-5.563,-5.5201,-5.4674,-5.4674,-5.4674,-5.4674,-5.4674,0.0,0.0,0.0,0.0,-5.6606,-5.6606,-5.6606,-5.6606,-5.6606,-5.6762,-5.6918,-5.6918,-5.7074,-5.7118,-5.6686,-5.6591,-5.6591,-5.6593,-5.6596,0.0,-5.6598,-5.66,-5.6601,-5.6601,-5.6601,-5.6601,-5.6601,-5.6601,-5.6601,-5.6601,-5.6599,-5.6598,-5.6598,-5.6595,-5.5929,-5.4406,-5.4114,-5.3294,-5.1769,0.0,0.0,0.0,0.0,0.0,0.0,0.0,0.0,0.0,0.0,0.0,0.0,0.0,0.0,0.0,0.0,0.0,0.0,0.0,0.0,0.0,0.0,0.0,0.0,0.0,0.0,0.0,0.0,0.0,-5.4892,-5.638,0.0,0.0,0.0,0.0,-5.8739,-5.8778,-5.9166,-5.9982,-6.0021,-6.0409,-6.1237,-6.1276,-6.1276,-6.1276,-6.1331,-6.1367,-6.1367,-6.1446,-6.1471,-6.1471,-6.1471,-6.1471,-6.1471,-6.1471,-6.1465,-6.1354,-5.9713,-5.9034,-5.8948,-5.8089,-5.7738,-5.7641,-5.6879,-5.6567,-5.6528,-5.6528,-5.6508,-5.6469,-5.6469,-5.6469,-5.6469,-5.6469,-5.6508,0.0,0.0,-5.6606,-5.6606,-5.6606,-5.6606,-5.6606,-5.6606,-5.7172,-5.7738,-5.7738,-5.8382,-5.8502,-5.6912,-5.6602,-5.6605,-5.6592,0.0,-5.6593,-5.6593,-5.6593,-5.6594,-5.6594,-5.6594,-5.6594,-5.6594,-5.6594,-5.6594,-5.6594,-5.6593,-5.6593,-5.6593,-5.6593,-5.6183,-5.5264,-5.4445,-5.3567,-5.2648,-5.1823,0.0,0.0,0.0,0.0,0.0,0.0,0.0,0.0,0.0,0.0,0.0,0.0,0.0,0.0,0.0,0.0,0.0,0.0,0.0,0.0,0.0,0.0,0.0,0.0,0.0,0.0,0.0,0.0,-5.6447,-5.7601,0.0,-5.8374,-5.9133,-5.9632,-5.9632,-6.0157,-6.0623,-6.0914,-6.1478,-6.1924,-6.2235,-6.2779,-6.3065,-6.3074,-6.3132,-6.3169,-6.3172,-6.321,-6.3205,-6.3185,-6.2679,-6.2445,-6.2406,-6.1841,-6.1602,-6.1545,-6.0951,-6.0405,-5.9853,-5.8983,-5.8636,-5.8538,-5.768,-5.7367,-5.7309,-5.6782,-5.6606,-5.6606,-5.6606,-5.6606,-5.6606,-5.6606,-5.6606,-5.6606,-5.6606,-5.6977,-5.7367,-5.7367,-5.7797,-5.8207,-5.8207,-5.8421,-5.8636,-5.8636,-5.889,-5.8929,-5.8328,-5.8211,-5.8213,-5.8217,-5.8203,-5.801,-5.7465,-5.7411,-5.7237,-5.6671,-5.6593,-5.6593,-5.6593,-5.6593,-5.6593,-5.6593,-5.6609,-5.6606,-5.6606,-5.66,-5.6208,-5.5349,-5.4451,-5.3592,-5.2713,-5.1831,-5.1398,0.0,0.0,0.0,0.0,0.0,0.0,0.0,0.0,0.0,0.0,0.0,0.0,0.0,0.0,0.0,0.0,0.0,0.0,0.0,0.0,0.0,0.0,0.0,0.0,0.0,-5.6017,-5.6877,-5.7707,-5.8638,-5.9211,-5.9245,-6.0039,-6.0545,-6.0545,-6.1361,-6.184,-6.184,-6.2663,-6.3148,-6.3148,-6.3692,-6.3998,-6.4007,-6.4072,-6.4103,-6.4107,-6.4106,-6.4101,-6.4082,-6.3556,-6.3166,-6.2874,-6.2289,-6.187,-6.1591,-6.1596,-6.1286,-6.0717,-5.9878,-5.9534,-5.9436,-5.8558,-5.8246,-5.8168,-5.7621,-5.7445,-5.7445,-5.7445,-5.7445,-5.7445,-5.7445,-5.7445,-5.7445,-5.7445,-5.7836,-5.8246,-5.8246,-5.8675,-5.9102,-5.9102,-5.9319,-5.9534,-5.9534,-5.9768,-5.9981,-5.9981,-5.9493,-5.9102,-5.9102,-5.9109,-5.89,-5.8334,-5.8027,-5.7661,-5.7075,-5.6761,-5.6605,-5.6605,-5.6605,-5.6605,-5.6605,-5.66,-5.6596,-5.6596,-5.661,-5.6333,-5.5767,-5.4884,-5.4003,-5.3166,-5.1991,-5.1399,-5.1391,0.0,0.0,0.0,0.0,0.0,0.0,0.0,0.0,0.0,0.0,0.0,0.0,0.0,0.0,0.0,0.0,0.0,0.0,0.0,0.0,0.0,0.0,0.0,-5.5935,-5.6777,-5.7654,-5.8538,-5.947,-6.008,-6.0131,-6.0905,-6.1393,-6.1393,-6.2177,-6.2663,-6.2701,-6.3537,-6.4003,-6.4042,-6.4061,-6.4088,-6.4088,-6.4157,-6.4169,-6.4175,-6.4173,-6.4179,-6.4179,-6.4121,-6.3672,-6.2932,-6.2874,-6.2387,-6.1607,-6.1591,-6.1596,-6.152,-6.0734,-6.0432,-6.0334,-5.9456,-5.9122,-5.9102,-5.9102,-5.9102,-5.9102,-5.9102,-5.9102,-5.9102,-5.9102,-5.9102,-5.9102,-5.9102,-5.9122,-5.9141,-5.9141,-5.9161,-5.918,-5.918,-5.9827,-6.0432,-6.0432,-6.1095,-6.1698,-6.1698,-6.0332,-5.918,-5.918,-5.918,-5.9161,-5.9141,-5.8421,0.0,-5.7816,-5.7113,-5.6626,-5.6606,-5.6606,-5.6606,-5.6606,-5.6606,-5.6606,-5.6606,-5.6604,-5.6604,-5.6604,-5.5697,-5.4811,-5.4013,-5.2339,-5.1472,-5.1472,0.0,0.0,0.0,0.0,0.0,0.0,0.0,0.0,0.0,0.0,0.0,0.0,0.0,0.0,0.0,0.0,0.0,0.0,0.0,0.0,0.0,-5.6205,-5.668,-5.6912,-5.7695,-5.8563,-5.9439,-6.0362,-6.0945,-6.0965,-6.1235,-6.1393,-6.1393,-6.1626,-6.2041,-6.2663,-6.3537,-6.4275,-6.4857,-6.5479,-6.5839,-6.5875,-6.5894,-6.5944,-6.5984,-6.5981,-6.5991,-6.5933,-6.4686,-6.3984,-6.3692,-6.2484,-6.1822,-6.1607,-6.1591,-6.1596,-6.1579,-6.1406,-6.1339,-6.1232,-6.0354,-5.9631,-5.9102,-5.9102,-5.9102,-5.9102,-5.9102,-5.9102,-5.9102,-5.9102,-5.9102,-5.9102,-5.9102,-5.9553,-6.0041,-6.0041,-6.051,-6.0995,-6.0995,-6.1171,-6.1349,-6.1349,-6.1522,-6.1698,-6.1698,-6.1308,-6.0995,-6.0995,-6.0995,-6.0761,-6.0139,-5.9846,-5.9222,-5.7953,-5.7601,-5.725,-5.6665,-5.6606,-5.6606,-5.6606,-5.6606,-5.6606,-5.6606,-5.6558,-5.6533,-5.6533,-5.5661,-5.4794,-5.3936,-5.3452,-5.3208,0.0,0.0,0.0,0.0,0.0,0.0,0.0,0.0,0.0,0.0,0.0,0.0,0.0,0.0,0.0,0.0,0.0,0.0,0.0,0.0,0.0,0.0,-5.697,-5.755,-5.8294,-5.8836,-5.9473,-6.033,-6.0943,-6.1294,-6.1295,-6.1352,-6.1393,-6.1393,-6.1742,-6.2332,-6.3206,-6.4042,-6.4877,-6.5732,-6.6252,-6.6553,-6.6601,-6.6633,-6.6663,-6.6696,-6.6707,-6.6517,-6.6127,-6.5114,-6.4257,-6.3536,-6.2562,-6.1938,-6.1607,-6.1602,-6.1603,-6.1604,0.0,0.0,0.0,0.0,-6.0627,-6.0195,-6.0195,-6.0195,-6.0195,-6.0195,-6.0195,-6.0195,-6.0195,-6.0195,-6.0195,-6.0195,-6.0549,-6.0939,-6.0939,-6.133,-6.1698,-6.1698,-6.1698,-6.1698,-6.1698,-6.1698,-6.1698,-6.1698,-6.1698,0.0,-6.1698,-6.1698,-6.1522,-6.1017,-6.0627,-5.9905,-5.8519,-5.8031,-5.7484,-5.6684,-5.6606,-5.6606,-5.6606,-5.6563,0.0,0.0,0.0,-5.6494,-5.6508,-5.5659,0.0,0.0,0.0,-5.3908,-5.3908,-5.3896,0.0,0.0,-5.2414,-5.2664,0.0,0.0,0.0,0.0,0.0,0.0,0.0,0.0,0.0,0.0,0.0,0.0,0.0,0.0,0.0,0.0,-5.7589,-5.8178,-5.9812,-6.0044,-6.0333,-6.1113,-6.1261,-6.1302,-6.1302,-6.1378,-6.1393,-6.1393,-6.2119,-6.2934,-6.3809,-6.4624,0.0,0.0,0.0,-6.6593,-6.66,-6.6665,-6.6655,-6.6538,-6.6546,-6.6108,-6.5251,-6.5153,-6.4315,-6.2893,-6.2796,-6.2309,-6.1607,-6.1607,-6.1602,-6.1608,-6.1667,-6.1707,-6.1698,-6.1698,-6.1698,-6.1698,-6.1698,0.0,0.0,-6.1698,-6.1698,-6.1698,-6.1698,-6.1698,-6.1698,-6.1698,-6.1698,-6.1698,-6.1698,-6.1698,-6.1698,-6.1698,-6.1698,-6.1698,-6.1698,-6.1698,-6.1698,-6.1698,-6.1698,-6.1698,-6.1698,-6.1698,-6.1698,-6.1698,-6.1037,-6.0198,-5.9219,-5.8421,-5.7601,-5.6704,-5.6584,0.0,-5.6584,-5.6533,-5.6506,-5.6506,-5.6508,-5.6491,-5.6492,-5.5751,-5.5354,-5.5353,-5.4593,-5.4184,-5.4184,-5.4184,-5.4184,-5.4184,-5.3989,-5.3946,0.0,0.0,0.0,0.0,0.0,0.0,0.0,0.0,0.0,0.0,0.0,0.0,0.0,0.0,0.0,-5.9126,-5.9397,-5.9763,-6.0796,-6.0941,-6.1036,-6.1242,-6.1283,-6.1322,-6.1378,-6.1393,-6.1393,-6.1393,-6.1548,-6.2041,-6.2896,-6.377,-6.4639,-6.5503,-6.6236,-6.6633,-6.6671,-6.6688,-6.6354,-6.565,-6.5655,0.0,-6.4335,-6.3672,-6.3205,-6.2854,-6.2153,-6.1763,-6.1607,-6.1607,-6.1602,-6.1608,-6.1667,-6.1707,-6.1698,-6.1698,-6.1698,-6.1698,-6.1698,-6.1698,-6.1698,-6.1698,-6.1698,-6.1698,-6.1698,-6.1698,0.0,-6.1698,-6.1698,-6.1698,-6.1698,-6.1698,-6.1698,-6.1698,-6.1698,-6.1698,-6.1698,-6.1698,-6.1698,-6.1698,-6.1698,-6.1698,-6.1698,-6.1698,-6.1698,-6.1698,-6.1562,-6.0878,-5.9297,-5.8948,-5.8265,-5.6762,-5.6558,-5.6511,-5.6511,-5.6517,-5.6508,-5.6508,-5.6491,-5.6492,-5.6492,-5.6336,-5.6258,-5.6253,-5.6078,-5.6,-5.6,-5.6,-5.6,-5.5961,-5.4554,-5.4277,0.0,0.0,0.0,0.0,0.0,0.0,0.0,0.0,0.0,0.0,0.0,-5.5265,-5.648,0.0,-5.786,-5.9609,-5.9899,-6.0208,-6.1085,-6.1227,-6.1261,-6.1302,-6.1306,-6.1337,-6.1393,-6.1393,-6.1393,-6.1393,-6.1393,-6.1781,-6.2643,-6.3104,-6.3747,-6.4623,-6.5103,-6.5368,-6.5403,-6.54,-6.5177,-6.4744,-6.4744,-6.4315,-6.3497,-6.3088,-6.2659,-6.2231,-6.1783,-6.1607,-6.1607,-6.1607,-6.1602,-6.1603,-6.1646,-6.167,-6.171,-6.171,-6.1693,-6.1698,-6.1698,-6.1698,-6.1698,-6.1698,-6.1698,-6.1698,-6.1698,-6.1698,-6.1698,-6.1698,-6.1698,-6.1698,-6.1698,-6.1698,-6.1698,-6.1698,-6.1698,-6.1698,-6.1698,-6.1698,-6.1698,-6.1698,-6.1693,-6.171,-6.171,-6.1666,-6.1666,-6.1698,-6.1698,-6.1071,-5.9329,-5.9095,-5.8448,-5.6723,-5.652,-5.6494,-5.6494,-5.6498,-5.6503,-5.6496,-5.6508,-5.6496,-5.6507,-5.6507,-5.6507,-5.6507,-5.6507,-5.6507,-5.6507,-5.6474,-5.645,-5.6431,-5.5555,-5.538,0.0,0.0,0.0,0.0,0.0,0.0,0.0,-5.2659,-5.3281,-5.4631,-5.5152,-5.582,-5.7276,-5.7695,-5.8314,-5.988,-6.0141,-6.0391,-6.1113,-6.1261,-6.131,-6.1329,-6.131,-6.1344,-6.1393,-6.1393,-6.1393,-6.1393,-6.1393,-6.1711,-6.2398,-6.26,-6.3029,-6.3748,-6.3973,-6.4099,-6.4104,-6.4106,-6.4023,-6.3867,-6.3867,-6.3439,-6.2659,-6.2659,-6.225,-6.1607,-6.1607,-6.1607,-6.1607,-6.1607,-6.1597,-6.1595,-6.1595,-6.1639,-6.169,-6.1673,-6.1682,-6.1671,-6.1671,-6.1693,-6.1696,-6.1696,-6.1698,-6.1698,-6.1698,-6.1698,-6.1698,-6.1698,-6.1698,-6.1698,-6.1698,-6.1698,-6.1696,-6.1696,-6.1693,-6.1671,-6.1671,-6.1671,-6.1671,-6.1671,-6.1682,-6.1673,-6.1673,-6.1644,-6.1625,-6.1668,-6.1671,-6.1063,-5.9315,-5.9098,-5.8429,-5.6699,-5.6498,-5.6494,-5.6494,-5.65,-5.6504,-5.6507,-5.6507,-5.6507,-5.6507,-5.6507,-5.6507,-5.6507,-5.6507,-5.6483,-5.6479,-5.6422,-5.6407,-5.6403,-5.6391,-5.6397,-4.8651,-4.9242,-5.0048,-5.0845,-5.1591,-5.2173,0.0,-5.3591,-5.4744,-5.4879,-5.6078,-5.7385,-5.8286,-5.9095,-5.9899,-6.0828,-6.1019,-6.1122,-6.127,-6.131,-6.1329,-6.1386,-6.1386,-6.1393,-6.1393,-6.1393,-6.1393,-6.1393,-6.1393,-6.1433,-6.1545,-6.2283,-6.2763,-6.2919,-6.3684,-6.4109,-6.4096,-6.4096,-6.375,-6.303,-6.303,-6.2581,-6.1744,-6.1744,-6.1685,-6.1607,-6.1607,-6.1607,-6.1607,-6.1607,-6.1607,-6.1592,-6.1592,-6.1606,-6.1612,-6.1611,-6.1602,-6.1602,-6.1602,-6.1651,-6.1702,-6.1702,-6.171,-6.1698,-6.1698,-6.1698,-6.1698,-6.1698,-6.1698,-6.1698,-6.1698,-6.1691,-6.1702,-6.1702,-6.1651,-6.1602,-6.1602,-6.1602,-6.1602,-6.1602,-6.1602,-6.1618,-6.1618,-6.1598,-6.1598,-6.1602,-6.1602,-6.0997,-5.9316,-5.9102,-5.8435,-5.6696,-5.6507,-5.6492,-5.6496,-5.6492,-5.6507,-5.6507,-5.6507,-5.6507,-5.6507,-5.6507,-5.6507,-5.6507,-5.6507,-5.6474,-5.6417,-5.6393,-5.6398,-5.6391,-5.6345,-5.6345,-5.006,-5.0446,-5.0787,-5.1117,-5.1804,-5.2523,-5.3028,-5.4116,-5.5268,-5.6225,-5.6939,-5.7812,-5.9108,-5.9645,-6.0179,-6.1019,-6.1173,-6.1208,-6.1283,-6.1287,-6.1318,-6.1393,-6.1393,-6.1393,-6.1393,-6.1393,-6.1393,-6.1393,-6.1401,-6.1402,-6.1396,-6.1783,-6.2007,-6.2035,-6.242,-6.2645,-6.2659,-6.2659,-6.2484,-6.2133,-6.2133,-6.1958,-6.1607,-6.1607,-6.1607,-6.1607,-6.1607,-6.1607,-6.1607,-6.1607,-6.1607,-6.1607,-6.1607,-6.1592,-6.1606,-6.1608,-6.1604,-6.1595,-6.1595,-6.1621,-6.1648,-6.1648,-6.1631,-6.1637,-6.1637,-6.1637,-6.1637,-6.1637,-6.1637,-6.1637,-6.1637,-6.1631,-6.1648,-6.1648,-6.1621,-6.1595,-6.1595,-6.1595,-6.1595,-6.1595,-6.1607,-6.1596,-6.1596,-6.1608,-6.1599,-6.1599,-6.16,-6.0987,-5.926,-5.9042,-5.8395,-5.6687,-5.6504,-5.6496,-5.6507,-5.6507,-5.6507,-5.6507,-5.6507,-5.6507,-5.6507,-5.6507,-5.6479,-5.6446,-5.6446,-5.6432,-5.6407,-5.6352,-5.6336,-5.6345,-5.6309,-5.6323,-5.1078,-5.1215,-5.1254,-5.1497,-5.216,-5.2989,-5.3863,-5.4737,-5.578,-5.7236,-5.7679,-5.8215,-5.9667,-6.0117,-6.0486,-6.1104,-6.1227,-6.125,-6.1295,-6.1329,-6.1344,-6.1393,-6.1393,-6.1393,-6.1393,-6.1393,-6.14,-6.1394,-6.1402,-6.1408,-6.1427,-6.1468,-6.1514,-6.1524,-6.1578,-6.1607,-6.1607,-6.1607,-6.1607,-6.1607,-6.1607,-6.1607,-6.1607,-6.1607,-6.1607,-6.1607,-6.1607,-6.1607,-6.1607,-6.1607,-6.1607,-6.1607,-6.1607,-6.1607,-6.1592,-6.1606,-6.1603,-6.16,-6.16,-6.1604,-6.1607,-6.1607,-6.1591,-6.1595,-6.1595,-6.1595,-6.1595,-6.1595,-6.1595,-6.1595,-6.1595,-6.1591,-6.1607,-6.1607,-6.1604,-6.16,-6.16,-6.16,-6.16,-6.16,-6.1603,-6.1591,-6.1591,-6.1597,-6.1607,-6.1607,-6.1599,-6.0972,-5.9221,-5.8593,-5.7849,-5.6624,-5.6507,-5.6507,-5.6507,-5.6507,-5.6507,-5.6507,-5.6507,-5.6507,-5.6507,-5.6479,-5.645,-5.6393,-5.6403,-5.6388,-5.6375,-5.6314,-5.6302,-5.6309,-5.6304,-5.6291,-5.1295,-5.1249,-5.1395,-5.2239,-5.3071,-5.3889,-5.4757,-5.5631,-5.6505,-5.7405,-5.8226,-5.9017,-5.9843,-6.0696,-6.1242,-6.121,-6.1239,-6.1295,-6.1302,-6.1352,-6.1393,-6.1393,-6.1393,-6.1393,-6.1393,-6.1393,-6.1394,-6.1389,-6.1396,-6.1427,-6.1489,-6.1489,-6.1524,-6.1588,-6.1607,-6.1607,-6.1607,-6.1607,-6.1607,-6.1607,-6.1607,-6.1607,-6.1607,-6.1607,-6.1607,-6.1607,-6.1607,-6.1607,-6.1607,-6.1607,-6.1607,-6.1607,-6.1607,-6.1607,-6.1607,-6.1607,-6.1607,-6.1592,-6.1592,-6.1606,-6.1603,-6.1603,-6.16,-6.1595,-6.1595,-6.1595,-6.1595,-6.1595,-6.1595,-6.1595,-6.1595,-6.16,-6.1603,-6.1603,-6.1606,-6.1592,-6.1592,-6.1592,-6.1592,-6.1592,-6.1607,-6.1607,-6.1607,-6.1607,-6.1607,-6.1607,-6.1607,-6.0969,-5.9215,-5.7578,-5.6565,-5.6507,-5.6507,-5.6507,-5.6507,-5.6507,-5.6507,-5.6507,-5.6507,-5.6507,-5.6507,-5.6446,-5.6393,-5.6393,-5.6402,-5.6375,-5.6308,-5.6302,-5.6309,-5.6298,-5.6291,-5.6291,-5.1295,-5.171,-5.2179,-5.2444,-5.353,-5.4651,-5.4938,-5.567,-5.6699,-5.8117,-5.8614,-5.9219,-6.06,-6.11,-6.1286,-6.1275,-6.1279,-6.1329,-6.1352,-6.1386,-6.1393,-6.1393,-6.1393,-6.1407,-6.1395,-6.1395,-6.1402,-6.1396,-6.1439,-6.1473,-6.1489,-6.1549,-6.1578,-6.1607,-6.1607,-6.1607,-6.1607,-6.1607,-6.1607,-6.1607,-6.1607,-6.1607,-6.1607,-6.1607,-6.1607,-6.1607,-6.1607,-6.1607,-6.1607,-6.1607,-6.1607,-6.1607,-6.1607,-6.1607,-6.1607,-6.1607,-6.1607,-6.1607,-6.1607,-6.1592,-6.1602,-6.1602,-6.1606,-6.1595,-6.1595,-6.1595,-6.1595,-6.1595,-6.1595,-6.1595,-6.1595,-6.1606,-6.1602,-6.1602,-6.1592,-6.1607,-6.1607,-6.1607,-6.1607,-6.1607,-6.1607,-6.1607,-6.1607,-6.1607,-6.1607,-6.1607,-6.0614,-5.9659,-5.9074,-5.754,-5.6507,-5.6507,-5.6507,-5.6507,-5.6507,-5.6507,-5.6507,-5.6507,-5.645,-5.6422,-5.6422,-5.6417,-5.6377,-5.6336,-5.6325,-5.6321,-5.6291,-5.6291,-5.6304,-5.6291,-5.6291,-5.6291,-5.1304,-5.1938,-5.2664,-5.2898,-5.398,-5.5071,-5.5384,-5.589,-5.6777,-5.8447,-5.8796,-5.9318,-6.0992,-6.1314,-6.1326,-6.1302,-6.131,-6.1352,-6.1393,-6.1393,-6.1393,-6.1393,-6.1393,-6.1394,-6.1396,-6.1428,-6.144,-6.1433,-6.1473,-6.1514,-6.1524,-6.1578,-6.1607,-6.1607,-6.1607,-6.1607,-6.1607,-6.1607,-6.1607,-6.1607,-6.1607,-6.1607,-6.1607,-6.1607,-6.1607,-6.1607,-6.1607,-6.1607,-6.1607,-6.1607,-6.1607,-6.1607,-6.1607,-6.1607,-6.1607,-6.1607,-6.1607,-6.1607,-6.1607,-6.1607,-6.1607,-6.1607,-6.1607,-6.1607,-6.1607,-6.1607,-6.1607,-6.1607,-6.1607,-6.1607,-6.1607,-6.1607,-6.1607,-6.1607,-6.1607,-6.1607,-6.1607,-6.1607,-6.1607,-6.1607,-6.1607,-6.1607,-6.1607,-6.1607,-6.1607,-6.1607,-6.038,-5.9347,-5.9035,-5.754,-5.6507,-5.6507,-5.6507,-5.6483,-5.6474,-5.6455,-5.645,-5.6461,-5.6427,-5.6398,-5.6398,-5.6391,-5.6345,-5.6302,-5.629,-5.6297,-5.6291,-5.6291,-5.6291,-5.6291,-5.6291,-5.6291,-5.1378,-5.2044,-5.2927,-5.3677,-5.4479,-5.5297,-5.6108,-5.6297,-5.6783,-5.8447,-5.8797,-5.9308,-6.1,-6.1352,-6.1386,-6.1329,-6.1352,-6.1393,-6.1393,-6.1393,-6.1393,-6.1393,-6.1393,-6.1394,-6.1396,-6.1466,-6.1495,-6.1495,-6.1514,-6.1524,-6.1607,-6.1607,-6.1607,-6.1607,-6.1607,-6.1607,-6.1607,-6.1607,-6.1607,-6.1607,-6.1607,-6.1607,-6.1607,-6.1607,-6.1607,-6.1607,-6.1607,-6.1607,-6.1607,-6.1607,-6.1607,-6.1607,-6.1607,-6.1607,-6.1607,-6.1607,-6.1607,-6.1607,-6.1607,-6.1607,-6.1607,-6.1607,-6.1607,-6.1607,-6.1607,-6.1607,-6.1607,-6.1607,-6.1607,-6.1607,-6.1607,-6.1607,-6.1607,-6.1607,-6.1607,-6.1607,-6.1607,-6.1607,-6.1607,-6.1607,-6.1607,-6.1607,-6.1607,-6.1607,-6.1607,-6.1607,-6.0867,-5.999,-5.9113,-5.7578,-5.6546,-5.6503,-5.6483,-5.6474,-5.6412,-5.6407,-5.6398,-5.6391,-5.6406,-5.6386,-5.6386,-5.6339,-5.6302,-5.6302,-5.6291,-5.6291,-5.6291,-5.6291,-5.6291,-5.6291,-5.6291,-5.6291,-5.2275,-5.3381,-5.458,-5.4738,-5.5405,-5.6085,-5.6255,-5.6296,-5.6789,-5.8454,-5.8797,-5.9334,-6.1056,-6.1386,-6.1393,-6.1386,-6.1386,-6.1393,-6.1393,-6.1393,-6.1393,-6.1393,-6.1393,-6.1421,-6.1466,-6.1497,-6.1526,-6.1573,-6.1578,-6.1583,-6.1607,-6.1607,-6.1607,-6.1607,-6.1607,-6.1607,-6.1607,-6.1607,-6.1607,-6.1607,-6.1607,-6.1607,-6.1607,-6.1607,-6.1607,-6.1607,-6.1607,-6.1607,-6.1607,-6.1607,-6.1607,-6.1607,-6.1607,-6.1607,-6.1607,-6.1607,-6.1607,-6.1607,-6.1607,-6.1607,-6.1607,-6.1607,-6.1607,-6.1607,-6.1607,-6.1607,-6.1607,-6.1607,-6.1607,-6.1607,-6.1607,-6.1607,-6.1607,-6.1607,-6.1607,-6.1607,-6.1607,-6.1607,-6.1607,-6.1607,-6.1607,-6.1607,-6.1607,-6.1607,-6.1607,-6.1607,-6.0867,-5.999,-5.9113,-5.8066,-5.7141,-5.648,-5.6422,-5.6432,-5.6402,-5.6402,-5.6397,-5.6411,-5.635,-5.6333,-5.6333,-5.6303,-5.6304,-5.6304,-5.6298,-5.6291,-5.6291,-5.6291,-5.6291,-5.6291,-5.6291,-5.6291,-5.3073,-5.416,-5.5193,-5.5141,-5.5774,-5.6378,-5.6356,-5.6314,-5.6782,-5.8454,-5.8797,-5.9341,-6.1082,-6.1393,-6.1393,-6.1393,-6.1393,-6.1393,-6.1393,-6.1393,-6.1393,-6.1393,-6.1394,-6.1428,-6.1497,-6.1495,-6.1523,-6.1583,-6.1607,-6.1607,-6.1607,-6.1607,-6.1607,-6.1607,-6.1607,-6.1607,-6.1607,-6.1607,-6.1607,-6.1607,-6.1607,-6.1607,-6.1607,-6.1607,-6.1607,-6.1607,-6.1607,-6.1607,-6.1607,-6.1607,-6.1607,-6.1607,-6.1607,-6.1607,-6.1607,-6.1607,-6.1841,-6.2114,-6.1724,-6.1841,-6.2114,-6.1724,-6.1607,-6.1607,-6.1607,-6.1607,-6.1607,-6.1607,-6.1607,-6.1607,-6.1607,-6.1607,-6.1607,-6.1607,-6.1607,-6.1607,-6.1607,-6.1607,-6.1607,-6.1607,-6.1607,-6.1607,-6.1607,-6.1578,-6.1554,-6.1554,-6.1135,-6.0365,-5.9119,-5.8213,-5.7376,-5.6495,-5.6393,-5.6382,-5.635,-5.637,-5.6364,-5.6372,-5.6315,-5.6303,-5.6303,-5.6304,-5.6291,-5.6291,-5.6291,-5.6291,-5.6291,-5.6291,-5.6291,-5.6291,-5.6291,-5.6291,-5.3876,-5.471,-5.5372,-5.5372,-5.5905,-5.6407,-5.6402,-5.635,-5.6788,-5.848,-5.8817,-5.9341,-6.1082,-6.1393,-6.1393,-6.1393,-6.1393,-6.1393,-6.1393,-6.1393,-6.1393,-6.1393,-6.1395,-6.1428,-6.1497,-6.1493,-6.1524,-6.1588,-6.1607,-6.1607,-6.1607,-6.1607,-6.1607,-6.1607,-6.1607,-6.1607,-6.1607,-6.1607,-6.1607,-6.1607,-6.1607,-6.1607,-6.1607,-6.1607,-6.1607,-6.1607,-6.1607,-6.1607,-6.1607,-6.1607,-6.1607,-6.1607,-6.1607,-6.1607,-6.1607,-6.1724,-6.225,-6.2796,-6.2036,-6.227,-6.2732,-6.188,-6.1607,-6.1607,-6.1607,-6.1607,-6.1607,-6.1583,-6.1583,-6.1583,-6.1598,-6.1598,-6.1598,-6.1598,-6.1598,-6.1598,-6.1598,-6.1598,-6.1598,-6.1598,-6.1598,-6.1598,-6.1598,-6.1539,-6.1504,-6.1504,-6.1501,-6.0875,-5.9124,-5.8295,-5.7483,-5.6483,-5.6381,-5.635,-5.6302,-5.6296,-5.6303,-5.6298,-5.6291,-5.6291,-5.6291,-5.6291,-5.6291,-5.6291,-5.6291,-5.6291,-5.6291,-5.6291,-5.6291,-5.6291,-5.6291,-5.6291,-5.4929,-5.5599,-5.6273,-5.6273,-5.6386,-5.6474,-5.6407,-5.6382,-5.6856,-5.8532,-5.8836,-5.9341,-6.1082,-6.1393,-6.1393,-6.1393,-6.1393,-6.1393,-6.1393,-6.1393,-6.1393,-6.1393,-6.1395,-6.1428,-6.1497,-6.1493,-6.1524,-6.1588,-6.1607,-6.1607,-6.1607,-6.1607,-6.1607,-6.1607,-6.1607,-6.1607,-6.1607,-6.1607,-6.1607,-6.1607,-6.1607,-6.1607,-6.1607,-6.1607,-6.1607,-6.1607,-6.1607,-6.1607,-6.1607,-6.1607,-6.1607,-6.1607,-6.1607,-6.1607,-6.1685,-6.2406,-6.2776,-6.2874,-6.2737,-6.2742,-6.2673,-6.1875,-6.1607,-6.1607,-6.1607,-6.1607,-6.1583,-6.1524,-6.1519,-6.1514,-6.1526,-6.152,-6.152,-6.152,-6.152,-6.152,-6.152,-6.152,-6.152,-6.152,-6.152,-6.152,-6.152,-6.1515,-6.149,-6.149,-6.1503,-6.0869,-5.912,-5.8787,-5.8073,-5.6489,-5.6314,-5.6321,-5.6304,-5.6304,-5.6298,-5.6291,-5.6291,-5.6291,-5.6291,-5.6291,-5.6291,-5.6291,-5.6291,-5.6291,-5.6291,-5.6291,-5.6291,-5.6291,-5.6291,-5.6278,-5.5755,-5.6176,-5.65,-5.6507,-5.6507,-5.6479,-5.6417,-5.6403,-5.6747,-5.7961,-5.8558,-5.9244,-6.0487,-6.1089,-6.1393,-6.1393,-6.1393,-6.1393,-6.1393,-6.1393,-6.14,-6.1408,-6.1441,-6.1452,-6.1507,-6.1534,-6.1578,-6.1607,-6.1607,-6.1607,-6.1607,-6.1607,-6.1607,-6.1607,-6.1607,-6.1607,-6.1607,-6.1607,-6.1607,-6.1607,-6.1607,-6.1607,-6.1607,-6.1607,-6.1607,-6.1607,-6.1607,-6.1607,-6.1607,-6.1607,-6.1607,-6.1607,-6.1607,-6.188,-6.2328,-6.2703,-6.3414,-6.4134,-6.3631,-6.3464,-6.3342,-6.2497,-6.1918,-6.1548,-6.1548,-6.1548,-6.1542,-6.1512,-6.1507,-6.1501,-6.1503,-6.1503,-6.1503,-6.1503,-6.1503,-6.1503,-6.1503,-6.1503,-6.1503,-6.1503,-6.1503,-6.1503,-6.1503,-6.1472,-6.146,-6.146,-6.1441,-6.0819,-5.9076,-5.8856,-5.8195,-5.6472,-5.6297,-5.6291,-5.6298,-5.6291,-5.6291,-5.6291,-5.6291,-5.6291,-5.6291,-5.6291,-5.6291,-5.6291,-5.6291,-5.6291,-5.6291,-5.6291,-5.6285,-5.6246,-5.6246,-5.6225,-5.6315,-5.65,-5.6508,-5.6496,-5.6511,-5.6483,-5.6422,-5.6412,-5.6631,-5.7453,-5.8291,-5.9147,-5.9963,-6.0817,-6.1393,-6.1393,-6.1393,-6.1393,-6.1393,-6.14,-6.1401,-6.1396,-6.1452,-6.1501,-6.1509,-6.1554,-6.1607,-6.1607,-6.1607,-6.1607,-6.1607,-6.1607,-6.1607,-6.1607,-6.1607,-6.1607,-6.1607,-6.1607,-6.1607,-6.1607,-6.1607,-6.1607,-6.1607,-6.1607,-6.1607,-6.1607,-6.1607,-6.1607,-6.1607,-6.1607,-6.1607,-6.1627,-6.1802,-6.2284,-6.2922,-6.3247,-6.421,-6.5269,-6.4525,-6.4299,-6.4176,-6.3125,-6.2198,-6.1503,-6.1503,-6.1503,-6.1497,-6.1472,-6.1472,-6.1472,-6.1485,-6.1479,-6.1479,-6.1479,-6.1479,-6.1479,-6.1479,-6.1479,-6.1479,-6.1479,-6.1479,-6.1479,-6.1479,-6.1421,-6.1402,-6.1402,-6.1394,-6.0771,-5.903,-5.8797,-5.8156,-5.6486,-5.6291,-5.6291,-5.6291,-5.6291,-5.6291,-5.6291,-5.6291,-5.6291,-5.6291,-5.6291,-5.6291,-5.6291,-5.6291,-5.6291,-5.6291,-5.6285,-5.6246,-5.6199,-5.6192,-5.6182,-5.6484,-5.6501,-5.6492,-5.6492,-5.65,-5.6507,-5.6483,-5.6446,-5.6641,-5.7507,-5.834,-5.9154,-6.0028,-6.0857,-6.1393,-6.1393,-6.1393,-6.1393,-6.1393,-6.1408,-6.1396,-6.1396,-6.1451,-6.1509,-6.1495,-6.1554,-6.1607,-6.1607,-6.1607,-6.1607,-6.1607,-6.1607,-6.1607,-6.1607,-6.1607,-6.1607,-6.1607,-6.1607,-6.1607,-6.1607,-6.1607,-6.1607,-6.1607,-6.1607,-6.1607,-6.1607,-6.1607,-6.1607,-6.1607,-6.1607,-6.1607,-6.1685,-6.2465,-6.2801,-6.3008,-6.458,-6.523,-6.5303,-6.52,-6.5181,-6.4921,-6.3243,-6.2154,-6.1503,-6.1503,-6.1503,-6.1497,-6.1428,-6.1402,-6.1415,-6.1414,-6.1407,-6.1407,-6.1407,-6.1407,-6.1407,-6.1407,-6.1407,-6.1407,-6.1407,-6.1407,-6.1407,-6.1407,-6.14,-6.14,-6.14,-6.14,-6.0771,-5.903,-5.8797,-5.8156,-5.6486,-5.6291,-5.6291,-5.6291,-5.6291,-5.6291,-5.6291,-5.6291,-5.6291,-5.6291,-5.6291,-5.6291,-5.6291,-5.6291,-5.6291,-5.6291,-5.6239,-5.6206,-5.6199,-5.6202,-5.6164,-5.6509,-5.6497,-5.6501,-5.65,-5.6508,-5.65,-5.6507,-5.6479,-5.6548,-5.686,-5.8003,-5.9052,-5.9365,-6.0501,-6.1395,-6.1395,-6.1394,-6.1393,-6.1393,-6.1389,-6.1402,-6.146,-6.1487,-6.1519,-6.1554,-6.1583,-6.1607,-6.1607,-6.1607,-6.1607,-6.1607,-6.1607,-6.1607,-6.1607,-6.1607,-6.1607,-6.1607,-6.1607,-6.1607,-6.1607,-6.1607,-6.1607,-6.1607,-6.1607,-6.1607,-6.1607,-6.1607,-6.1607,-6.1607,-6.1607,-6.1607,-6.1685,-6.2523,-6.313,-6.3737,-6.4908,-6.5648,-6.6082,-6.6035,-6.569,-6.5054,-6.3869,-6.2904,-6.2121,-6.1596,-6.1441,-6.1434,-6.1401,-6.1401,-6.1394,-6.14,-6.1393,-6.1393,-6.1393,-6.1393,-6.1393,-6.1393,-6.1393,-6.1393,-6.1393,-6.1393,-6.1393,-6.1393,-6.1393,-6.1393,-6.1393,-6.1393,-6.0966,-5.9749,-5.9127,-5.837,-5.7211,-5.6602,-5.6291,-5.6291,-5.6291,-5.6291,-5.6291,-5.6291,-5.6291,-5.6291,-5.6291,-5.6291,-5.6291,-5.6252,-5.6239,-5.6239,-5.6204,-5.6168,-5.6145,-5.6149,-5.6098,-5.6536,-5.6511,-5.65,-5.6491,-5.6496,-5.6508,-5.6492,-5.6507,-5.6483,-5.6446,-5.7795,-5.8987,-5.8946,-6.0305,-6.1428,-6.1428,-6.1428,-6.1428,-6.1428,-6.1421,-6.1452,-6.1495,-6.1523,-6.1549,-6.1607,-6.1607,-6.1607,-6.1607,-6.1607,-6.1607,-6.1607,-6.1607,-6.1607,-6.1607,-6.1607,-6.1607,-6.1607,-6.1607,-6.1607,-6.1607,-6.1607,-6.1607,-6.1607,-6.1607,-6.1607,-6.1607,-6.1607,-6.1607,-6.1607,-6.1607,-6.1744,-6.2051,-6.2858,-6.3698,-6.4543,-6.5382,-6.6055,-6.6565,-6.6516,-6.6101,-6.5421,-6.4352,-6.3575,-6.2876,-6.1742,-6.1393,-6.1393,-6.1393,-6.1393,-6.1393,-6.1393,-6.1393,-6.1393,-6.1393,-6.1393,-6.1393,-6.1393,-6.1393,-6.1393,-6.1393,-6.1393,-6.1393,-6.1393,-6.1393,-6.1393,-6.1393,-6.1393,-6.1089,-6.0215,-5.9341,-5.8486,-5.7696,-5.6822,-5.6291,-5.6291,-5.6291,-5.6291,-5.6291,-5.6291,-5.6291,-5.6291,-5.6291,-5.6291,-5.6278,-5.6213,-5.6192,-5.6204,-5.618,-5.6149,-5.6098,-5.6082,-5.6057,-5.6606,-5.6558,-5.6503,-5.6508,-5.6507,-5.6508,-5.6492,-5.6507,-5.6507,-5.6507,-5.7829,-5.8992,-5.8992,-6.0372,-6.1503,-6.1503,-6.1503,-6.1503,-6.1503,-6.1493,-6.1489,-6.1489,-6.1554,-6.1607,-6.1607,-6.1607,-6.1607,-6.1607,-6.1607,-6.1607,-6.1607,-6.1607,-6.1607,-6.1607,-6.1607,-6.1607,-6.1607,-6.1607,-6.1607,-6.1607,-6.1607,-6.1607,-6.1607,-6.1607,-6.1607,-6.1607,-6.1607,-6.1607,-6.1607,-6.1607,-6.2114,-6.2966,-6.3773,-6.4582,-6.5395,-6.627,-6.6546,-6.6508,-6.6508,-6.6489,-6.6217,-6.4547,-6.3983,-6.3653,-6.1924,-6.1393,-6.1393,-6.1393,-6.1393,-6.1393,-6.1393,-6.1393,-6.1393,-6.1393,-6.1393,-6.1393,-6.1393,-6.1393,-6.1393,-6.1393,-6.1393,-6.1393,-6.1393,-6.1393,-6.1393,-6.1393,-6.1393,-6.1089,-6.0215,-5.9341,-5.8486,-5.7696,-5.6822,-5.6291,-5.6291,-5.6291,-5.6291,-5.6291,-5.6291,-5.6291,-5.6291,-5.6291,-5.6278,-5.6199,-5.6199,-5.6197,-5.6199,-5.6141,-5.6098,-5.6098,-5.6029,-5.6012,-5.6606,-5.6582,-5.6558,-5.6503,-5.6508,-5.6507,-5.6508,-5.6496,-5.6507,-5.6507,-5.7823,-5.9002,-5.9002,-6.0365,-6.1498,-6.1498,-6.1495,-6.1503,-6.1503,-6.1493,-6.1495,-6.1495,-6.1554,-6.1607,-6.1607,-6.1607,-6.1607,-6.1607,-6.1607,-6.1607,-6.1607,-6.1607,-6.1607,-6.1607,-6.1607,-6.1607,-6.1607,-6.1607,-6.1607,-6.1607,-6.1607,-6.1607,-6.1607,-6.1607,-6.1607,-6.1607,-6.1607,-6.1607,-6.1607,-6.1607,-6.2085,-6.2916,-6.3726,-6.4552,-6.5395,-6.6227,-6.6516,-6.6508,-6.6508,-6.6508,-6.6314,-6.5188,-6.445,-6.3789,-6.2643,-6.1866,-6.1393,-6.1393,-6.1393,-6.1393,-6.1393,-6.1393,-6.1393,-6.1393,-6.1393,-6.1393,-6.1393,-6.1393,-6.1393,-6.1393,-6.1393,-6.1393,-6.1393,-6.1393,-6.1393,-6.1393,-6.1393,-6.1296,-6.1031,-5.971,-5.87,-5.8447,-5.7146,-5.6291,-5.6291,-5.6291,-5.6291,-5.6291,-5.6291,-5.6291,-5.6291,-5.6272,-5.6213,-5.6199,-5.6148,-5.613,-5.6133,-5.6054,-5.6029,-5.6029,-5.6012,-5.6012,-5.6606,-5.6606,-5.6582,-5.6511,-5.65,-5.6504,-5.65,-5.6504,-5.6496,-5.6507,-5.7832,-5.8996,-5.8996,-6.039,-6.1544,-6.1544,-6.1548,-6.1537,-6.1537,-6.1534,-6.1544,-6.1544,-6.1578,-6.1607,-6.1607,-6.1607,-6.1607,-6.1607,-6.1607,-6.1607,-6.1607,-6.1607,-6.1607,-6.1607,-6.1607,-6.1607,-6.1607,-6.1607,-6.1607,-6.1607,-6.1607,-6.1607,-6.1607,-6.1607,-6.1607,-6.1607,-6.1607,-6.1607,0.0,-6.1607,-6.2275,-6.3334,-6.3811,-6.4734,-6.5841,-6.6329,-6.6508,-6.6508,-6.6508,-6.6508,-6.6353,-6.5471,-6.443,-6.3342,-6.2468,-6.182,-6.1393,-6.1393,-6.1393,-6.1393,-6.1393,-6.1393,-6.1393,-6.1393,-6.1393,-6.1393,-6.1393,-6.1393,-6.1393,-6.1393,-6.1393,-6.1393,-6.1393,-6.1393,-6.1393,-6.1393,-6.1393,-6.1393,-6.1393,-5.9885,-5.8797,-5.8797,-5.7301,-5.6291,-5.6291,-5.6291,-5.6291,-5.6291,-5.6291,-5.6285,-5.6252,-5.6213,-5.6185,-5.6156,-5.6122,-5.609,-5.6054,-5.602,-5.6012,-5.6012,-5.6012,-5.6012,0.0,-5.6606,-5.6582,-5.6511,-5.6509,-5.65,-5.6507,-5.6496,0.0,-5.6492,-5.7832,-5.8996,-5.8996,-6.0419,-6.1607,-6.1607,-6.1607,-6.1607,-6.1607,-6.1607,-6.1607,-6.1607,-6.1607,-6.1607,-6.1607,-6.1607,-6.1607,-6.1607,-6.1607,-6.1607,-6.1607,-6.1607,-6.1607,-6.1607,-6.1607,-6.1607,-6.1607,-6.1607,-6.1607,-6.1607,-6.1607,-6.1607,-6.1607,-6.1607,-6.1607,-6.1607,-6.1607,-6.1607,-6.1607,-6.1607,-6.2581,-6.4087,-6.4025,-6.5058,-6.6599,-6.6524,-6.6508,-6.6508,-6.6508,-6.6508,-6.6353,-6.5421,-6.4015,-6.2519,-6.1665,-6.1393,-6.1393,-6.1393,-6.1393,-6.1386,-6.1386,-6.1386,-6.1386,-6.1386,-6.1393,-6.1393,-6.1393,-6.1393,-6.1393,-6.1393,-6.1393,-6.1393,-6.1393,-6.1393,-6.1393,-6.1393,-6.1393,-6.1393,-6.1393,-5.9885,-5.8797,-5.8797,-5.7301,-5.6291,-5.6291,-5.6291,-5.6291,-5.6291,-5.6291,-5.6252,-5.6199,-5.6192,-5.6156,-5.6098,-5.609,-5.6054,-5.6012,-5.6012,-5.6012,-5.6012,-5.6012,-5.6012,-5.6606,0.0,-5.6604,-5.6582,-5.6536,-5.6506,0.0,-5.6494,-5.6492,-5.6508,-5.7821,-5.8996,-5.8996,-6.0419,-6.1607,-6.1607,-6.1607,-6.1607,-6.1607,-6.1607,-6.1607,-6.1607,-6.1607,-6.1607,-6.1607,-6.1607,-6.1607,-6.1607,-6.1607,-6.1607,-6.1607,-6.1607,-6.1607,-6.1607,-6.1607,-6.1607,-6.1607,-6.1607,-6.1607,-6.1607,-6.1549,-6.1549,-6.1607,-6.1549,-6.1549,-6.1607,-6.1607,-6.1607,-6.1607,-6.1607,-6.2551,-6.4025,-6.4013,-6.5025,-6.6524,-6.6508,-6.6508,-6.6508,-6.6508,-6.6508,-6.6256,-6.476,-6.3534,-6.2463,-6.1589,-6.1318,-6.1318,-6.1318,-6.1314,-6.133,-6.133,-6.133,-6.133,-6.133,-6.1314,-6.1318,-6.1318,-6.1359,-6.1393,-6.1393,-6.1393,-6.1393,-6.1393,-6.1393,-6.1393,-6.1393,-6.1393,-6.1393,-6.1393,-5.9885,-5.8797,-5.8797,-5.7301,-5.6291,-5.6291,-5.6291,-5.6291,-5.6291,-5.6246,-5.6225,-5.6199,-5.6141,-5.6114,-5.6098,-5.6046,-5.602,-5.6012,-5.6012,-5.6012,-5.6012,-5.6012,-5.6012,-5.6606,-5.6606,-5.6606,-5.6606,-5.656,-5.6536,-5.6509,-5.6494,-5.6494,-5.6496,-5.7829,-5.899,-5.9001,-6.0419,-6.1607,-6.1607,-6.1607,-6.1607,-6.1607,-6.1607,-6.1607,-6.1607,-6.1607,-6.1607,-6.1607,-6.1607,-6.1607,-6.1607,-6.1607,-6.1607,-6.1607,-6.1607,-6.1607,-6.1607,-6.1607,-6.1607,-6.1607,-6.1607,-6.1583,-6.1554,-6.1519,-6.1514,-6.1548,-6.1518,-6.1518,-6.1553,-6.1544,-6.1554,-6.1554,-6.1583,-6.2551,-6.3994,-6.3994,-6.5018,-6.6508,-6.6508,-6.6508,-6.6508,-6.6508,-6.6237,-6.5685,-6.4388,-6.3344,-6.2447,-6.1551,-6.1275,-6.1267,-6.1291,-6.1294,-6.1297,-6.1297,-6.1297,-6.1297,-6.1297,-6.1294,-6.1291,-6.1291,-6.1334,-6.1349,-6.1344,-6.1352,-6.1359,-6.1393,-6.1393,-6.1393,-6.1393,-6.1393,-6.1393,-6.1393,-5.9885,-5.8797,-5.8797,-5.7301,-5.6291,-5.6291,-5.6278,-5.6252,-5.6252,-5.6213,-5.6185,-5.6168,-5.6122,-5.609,-5.6046,-5.602,-5.6012,-5.6012,-5.6012,-5.6012,-5.6012,-5.6012,-5.6012,-5.6606,-5.6606,-5.6606,-5.6606,-5.6606,-5.6582,-5.6533,-5.6509,-5.65,-5.651,-5.7825,-5.9007,-5.9005,-6.0423,-6.1607,-6.1607,-6.1607,-6.1607,-6.1607,-6.1607,-6.1607,-6.1607,-6.1607,-6.1607,-6.1607,-6.1607,-6.1607,-6.1607,-6.1607,-6.1607,-6.1607,-6.1607,-6.1607,-6.1607,-6.1607,-6.1607,-6.1583,-6.1583,-6.1554,-6.1495,-6.1484,-6.1487,-6.1503,-6.1497,-6.1497,-6.1503,-6.1493,-6.1504,-6.1509,-6.1568,-6.2463,-6.3838,-6.3949,-6.4941,-6.6322,-6.645,-6.6508,-6.6489,-6.6353,-6.5724,-6.4862,-6.3969,-6.3099,-6.2249,-6.1511,-6.1236,-6.1201,-6.1245,-6.1261,-6.1261,-6.1261,-6.1261,-6.1261,-6.1261,-6.1281,-6.1289,-6.1289,-6.1297,-6.1294,-6.1306,-6.1295,-6.1322,-6.1359,-6.1386,-6.1386,-6.1393,-6.1393,-6.1354,-6.1218,-5.9807,-5.8758,-5.8622,-5.7224,-5.6291,-5.6285,-5.6239,-5.6192,-5.6185,-5.6185,-5.6148,-5.609,-5.609,-5.6065,-5.6012,-5.6012,-5.6012,-5.6012,-5.6012,-5.6012,-5.6012,-5.6012,-5.6012,-5.6606,-5.6606,-5.6606,-5.6606,-5.6606,-5.6604,-5.6584,-5.6536,-5.6506,-5.65,-5.7824,-5.8991,-5.9007,-6.0413,-6.1607,-6.1607,-6.1607,-6.1607,-6.1607,-6.1607,-6.1607,-6.1607,-6.1607,-6.1607,-6.1607,-6.1607,-6.1607,-6.1607,-6.1607,-6.1607,-6.1607,-6.1607,-6.1607,-6.1607,-6.1607,-6.1578,-6.1519,-6.1519,-6.1514,-6.1489,-6.1439,-6.144,-6.1503,-6.1434,-6.146,-6.1503,-6.1509,-6.1509,-6.149,-6.1515,-6.2093,-6.3054,-6.3729,-6.4603,-6.5562,-6.6244,-6.6508,-6.6392,-6.5654,-6.4835,-6.3969,-6.3068,-6.2167,-6.1382,-6.1257,-6.1164,-6.1127,-6.1137,-6.1117,-6.1117,-6.1117,-6.1117,-6.1117,-6.1117,-6.1173,-6.1219,-6.1219,-6.1253,-6.1306,-6.1306,-6.1294,-6.1302,-6.1302,-6.1329,-6.1318,-6.1393,-6.1393,-6.1121,-6.039,-5.9419,-5.8545,-5.7871,-5.6894,-5.6278,-5.6213,-5.6206,-5.617,-5.6122,-5.6114,-5.609,-5.602,-5.602,-5.6012,-5.6012,-5.6012,-5.6012,-5.6012,-5.6012,-5.6012,-5.6012,-5.6012,-5.6012,-5.6606,-5.6606,-5.6606,-5.6606,-5.6606,-5.6606,-5.6606,-5.6582,-5.6536,-5.6509,-5.7863,-5.9037,-5.9015,-6.0426,-6.1602,-6.1592,-6.1607,-6.1607,-6.1607,-6.1607,-6.1607,-6.1607,-6.1607,-6.1583,-6.1549,-6.1549,-6.1544,-6.1542,-6.1558,-6.1549,-6.1549,-6.1583,-6.1607,-6.1607,-6.1554,-6.1524,-6.1495,-6.1462,-6.1445,-6.1445,-6.1415,-6.1415,-6.1447,-6.1408,-6.1415,-6.1447,-6.1447,-6.146,-6.146,-6.1497,-6.1997,-6.2776,-6.3145,-6.4104,-6.5346,-6.6186,-6.6198,-6.5743,-6.534,-6.4326,-6.3119,-6.269,-6.1942,-6.1182,-6.1155,-6.1117,-6.1099,-6.1099,-6.1099,-6.1099,-6.1099,-6.1099,-6.1099,-6.1099,-6.1117,-6.1146,-6.1146,-6.1164,-6.1191,-6.1236,-6.1245,-6.1253,-6.1283,-6.131,-6.1299,-6.1337,-6.1344,-6.1041,-6.0215,-5.9341,-5.8486,-5.7696,-5.6783,-5.6239,-5.6199,-5.6163,-5.6137,-5.6098,-5.6073,-5.6029,-5.6012,-5.6012,-5.6012,-5.6012,-5.6012,-5.6012,-5.6012,-5.6012,-5.6012,-5.6012,-5.6012,-5.6012,-5.6608,-5.6606,-5.6606,-5.6606,-5.6606,-5.6606,-5.6606,-5.6606,-5.6582,-5.6533,-5.7894,-5.9075,-5.9026,-6.0434,-6.161,-6.1592,-6.1607,-6.1607,-6.1607,-6.1607,-6.1607,-6.1607,-6.1607,-6.1578,-6.1514,-6.1495,-6.1498,-6.1503,-6.1507,-6.1504,-6.1495,-6.1549,-6.1583,-6.1607,-6.1524,-6.1509,-6.1504,-6.1427,-6.1396,-6.1396,-6.1409,-6.1408,-6.1393,-6.1393,-6.1393,-6.14,-6.1408,-6.1402,-6.1402,-6.1467,-6.1836,-6.2419,-6.2627,-6.3616,-6.5032,-6.5887,-6.5646,-6.4893,-6.4901,-6.3875,-6.2524,-6.2282,-6.1724,-6.1164,-6.1127,-6.1099,-6.1099,-6.1099,-6.1099,-6.1099,-6.1099,-6.1099,-6.1099,-6.1099,-6.1099,-6.1099,-6.1099,-6.1099,-6.1127,-6.1164,-6.1192,-6.1201,-6.1272,-6.1281,-6.1278,-6.1299,-6.1306,-6.0934,-5.9896,-5.9197,-5.8381,-5.7378,-5.6633,-5.6185,-5.617,-5.6122,-5.6082,-5.6082,-5.6029,-5.6012,-5.6012,-5.6012,-5.6012,-5.6012,-5.6012,-5.6012,-5.6012,-5.6012,-5.6012,-5.6012,-5.6012,-5.6012,-5.6608,-5.6606,-5.6606,-5.6606,-5.6606,-5.6606,-5.6606,-5.6606,-5.6606,-5.6584,-5.7921,-5.9098,-5.9079,-6.0469,-6.1592,-6.1607,-6.1607,-6.1607,-6.1607,-6.1607,-6.1607,-6.1607,-6.1607,-6.1578,-6.1514,-6.1495,-6.1498,-6.1503,-6.1503,-6.1501,-6.1489,-6.1495,-6.1544,-6.1607,-6.1524,-6.1498,-6.1503,-6.1434,-6.1396,-6.1396,-6.1401,-6.14,-6.1393,-6.1393,-6.1393,-6.1393,-6.14,-6.14,-6.14,-6.14,-6.144,-6.1571,-6.2385,-6.3265,-6.4178,-6.4993,-6.473,-6.398,-6.4,-6.335,-6.2361,-6.1559,-6.1213,-6.1099,-6.1099,-6.1099,-6.1099,-6.1099,-6.1099,-6.1099,-6.1099,-6.1099,-6.1099,-6.1099,-6.1099,-6.1099,-6.1099,-6.1099,-6.1099,-6.1099,-6.1099,-6.1137,-6.1201,-6.121,-6.1227,-6.1297,-6.1306,-6.0685,-5.9018,-5.8746,-5.8087,-5.6458,-5.6245,-5.6172,-5.6106,-5.6046,-5.6012,-5.6012,-5.5993,-5.6012,-5.6012,-5.6012,-5.6012,-5.6012,-5.6012,-5.6012,-5.6012,-5.6012,-5.6012,-5.6012,-5.6012,-5.6012,-5.6591,-5.6606,-5.6606,-5.6606,-5.6606,-5.6606,-5.6606,-5.6606,-5.6606,-5.6606,-5.7929,-5.9421,-6.0451,-6.1163,-6.1606,-6.1592,-6.1607,-6.1607,-6.1607,-6.1607,-6.1607,-6.1607,-6.1607,-6.1573,-6.1507,-6.1501,-6.1478,-6.1441,-6.1441,-6.144,-6.1433,-6.1473,-6.1509,-6.1537,-6.1507,-6.1484,-6.1434,-6.1415,-6.1401,-6.1401,-6.14,-6.1393,-6.1393,-6.1393,-6.1393,-6.1393,-6.1393,-6.1393,-6.1393,-6.1393,-6.1407,-6.1492,-6.2359,-6.2881,-6.3227,-6.4082,-6.3798,-6.302,-6.3034,-6.2437,-6.1627,-6.1271,-6.1108,-6.1099,-6.1099,-6.1099,-6.1099,-6.1099,-6.1099,-6.1099,-6.1099,-6.1099,-6.1099,-6.1099,-6.1099,-6.1099,-6.1099,-6.1099,-6.1099,-6.1099,-6.1099,-6.1099,-6.1117,-6.1146,-6.1164,-6.1227,-6.1236,-6.0625,-5.8932,-5.87,-5.806,-5.6373,-5.6157,-5.6106,-5.6037,-5.602,-5.6012,-5.6012,-5.6012,-5.6012,-5.6012,-5.6012,-5.6012,-5.6012,-5.6012,-5.6012,-5.6012,-5.6012,-5.6012,-5.6012,-5.6012,-5.6012,-5.6596,-5.6608,-5.6606,-5.6606,-5.6606,-5.6606,-5.6606,-5.6606,-5.6606,-5.6606,-5.7929,-5.9617,-6.129,-6.16,-6.1595,-6.1592,-6.1607,-6.1607,-6.1607,-6.1607,-6.1607,-6.1607,-6.1607,-6.1568,-6.1509,-6.1503,-6.1473,-6.14,-6.1401,-6.1402,-6.1396,-6.1439,-6.1476,-6.1503,-6.1472,-6.146,-6.1396,-6.1394,-6.1393,-6.1393,-6.1393,-6.1393,-6.1393,-6.1393,-6.1393,-6.1393,-6.1393,-6.1393,-6.1393,-6.1393,-6.1393,-6.1451,-6.2027,-6.2237,-6.2292,-6.315,-6.2884,-6.2125,-6.24,-6.1918,-6.1155,-6.1108,-6.1099,-6.1099,-6.1099,-6.1099,-6.1099,-6.1099,-6.1099,-6.1099,-6.1099,-6.1099,-6.1099,-6.1099,-6.1099,-6.1099,-6.1099,-6.1099,-6.1099,-6.1099,-6.1099,-6.1099,-6.1099,-6.1099,-6.1127,-6.1155,-6.1164,-6.0553,-5.8892,-5.8659,-5.802,-5.6315,-5.609,-5.6046,-5.5993,-5.6012,-5.6012,-5.6012,-5.6012,-5.6012,-5.6012,-5.6012,-5.6012,-5.6012,-5.6012,-5.6012,-5.6012,-5.6012,-5.6012,-5.6012,-5.6012,-5.6012,-5.6603,-5.6595,-5.6606,-5.6606,-5.6606,-5.6606,-5.6606,-5.6606,-5.6606,-5.6626,-5.7941,-5.9605,-6.1286,-6.16,-6.1595,-6.1592,-6.1607,-6.1607,-6.1607,-6.1607,-6.1607,-6.1607,-6.1607,-6.1568,-6.1509,-6.1503,-6.1473,-6.14,-6.1393,-6.1394,-6.1396,-6.1396,-6.1428,-6.1497,-6.1434,-6.1396,-6.1396,-6.1394,-6.1393,-6.1393,-6.1393,-6.1393,-6.1393,-6.1393,-6.1393,-6.1393,-6.1393,-6.1393,-6.1393,-6.1393,-6.1393,-6.1393,-6.1337,-6.1302,-6.1392,-6.2186,-6.1942,-6.1317,-6.2198,-6.188,-6.1099,-6.1099,-6.1099,-6.1099,-6.1099,-6.1099,-6.1099,-6.1099,-6.1099,-6.1099,-6.1099,-6.1099,-6.1099,-6.1099,-6.1099,-6.1099,-6.1099,-6.1099,-6.1099,-6.1099,-6.1099,-6.1099,-6.1099,-6.1099,-6.1099,-6.1099,-6.1099,-6.0499,-5.8816,-5.8593,-5.7907,-5.6186,-5.6012,-5.6012,-5.6012,-5.6012,-5.6012,-5.6012,-5.6012,-5.6012,-5.6012,-5.6012,-5.6012,-5.6012,-5.6012,-5.6012,-5.6012,-5.6012,-5.6012,-5.6012,-5.6012,-5.6012,-5.6593,-5.6608,-5.6606,-5.6606,-5.6606,-5.6606,-5.6606,-5.6606,-5.6938,-5.8128,-5.8748,-5.9617,-6.129,-6.1591,-6.1596,-6.1597,-6.1607,-6.1607,-6.1607,-6.1607,-6.1607,-6.1607,-6.1554,-6.1528,-6.1503,-6.1466,-6.1409,-6.14,-6.1393,-6.14,-6.1394,-6.1402,-6.1409,-6.1428,-6.1409,-6.1402,-6.1394,-6.14,-6.1386,-6.1337,-6.1337,-6.1352,-6.1393,-6.1393,-6.1393,-6.1393,-6.1393,-6.1359,-6.1337,-6.1326,-6.1337,-6.1337,-6.1302,-6.1278,-6.1264,-6.1499,-6.1395,-6.1175,-6.1427,-6.1321,-6.1099,-6.1099,-6.1099,-6.1099,-6.1099,-6.1099,-6.1099,-6.1099,-6.1099,-6.1099,-6.1099,-6.1099,-6.1099,-6.1099,-6.1099,-6.1099,-6.1099,-6.1099,-6.1099,-6.1099,-6.1099,-6.1099,-6.1099,-6.1099,-6.1099,-6.1099,-6.1099,-6.0499,-5.8816,-5.7521,-5.6573,-5.607,-5.6012,-5.6012,-5.6012,-5.6012,-5.6012,-5.6012,-5.6012,-5.6012,-5.6012,-5.6012,-5.6012,-5.6012,-5.6012,-5.6012,-5.6012,-5.6012,-5.6012,-5.6012,-5.6012,-5.6012,-5.6595,-5.6608,-5.6606,-5.6606,-5.6606,-5.6606,-5.6606,-5.6606,-5.6977,-5.8304,-5.887,-5.9505,-6.0861,-6.138,-6.1604,-6.1597,-6.1607,-6.1607,-6.1607,-6.1607,-6.1607,-6.1607,-6.1549,-6.1498,-6.1503,-6.1434,-6.1402,-6.14,-6.1393,-6.1393,-6.1393,-6.1401,-6.1401,-6.1393,-6.1368,-6.1361,-6.1352,-6.1356,-6.1341,-6.1299,-6.1299,-6.1326,-6.1349,-6.1349,-6.1349,-6.1349,-6.1349,-6.1341,-6.1299,-6.1294,-6.1297,-6.1297,-6.1281,-6.1236,-6.1201,-6.1164,-6.1117,-6.1099,-6.1099,-6.1099,-6.1099,-6.1099,-6.1099,-6.1099,-6.1099,-6.1099,-6.1099,-6.1099,-6.1099,-6.1099,-6.1099,-6.1099,-6.1099,-6.1099,-6.1099,-6.1099,-6.1099,-6.1099,-6.1099,-6.1099,-6.1099,-6.1099,-6.1099,-6.1099,-6.1099,-6.1099,-6.0538,-5.9745,-5.8729,-5.7076,-5.6012,-5.6012,-5.6012,-5.6012,-5.6012,-5.6012,-5.6012,-5.6012,-5.6012,-5.6012,-5.6012,-5.6012,-5.6012,-5.6012,-5.6012,-5.6012,-5.6012,-5.6012,-5.6012,-5.6012,-5.6012,-5.6012,-5.66,-5.6593,-5.6606,-5.6606,-5.6606,-5.6606,-5.6606,-5.6606,-5.6821,-5.7621,-5.8421,-5.9271,-6.0217,-6.099,-6.1506,-6.1597,-6.1607,-6.1607,-6.1607,-6.1607,-6.1607,-6.1607,-6.1544,-6.1498,-6.1503,-6.1434,-6.1395,-6.14,-6.1393,-6.1393,-6.1393,-6.1393,-6.1386,-6.1386,-6.1329,-6.1295,-6.1295,-6.1302,-6.1297,-6.1297,-6.1297,-6.1289,-6.1289,-6.1297,-6.1297,-6.1297,-6.1297,-6.1297,-6.1297,-6.127,-6.1289,-6.1281,-6.1219,-6.1201,-6.1173,-6.1108,-6.1099,-6.1099,-6.1099,-6.1099,-6.1099,-6.1099,-6.1099,-6.1099,-6.1099,-6.1099,-6.1099,-6.1099,-6.1099,-6.1099,-6.1099,-6.1099,-6.1099,-6.1099,-6.1099,-6.1099,-6.1099,-6.1099,-6.1099,-6.1099,-6.1099,-6.1099,-6.1099,-6.1099,-6.1099,-6.1099,-5.9667,-5.8613,-5.8613,-5.7076,-5.6012,-5.6012,-5.6012,-5.6012,-5.6012,-5.6012,-5.6012,-5.6012,-5.6012,-5.6012,-5.6012,-5.6012,-5.6012,-5.6012,-5.6012,-5.6012,-5.6012,-5.6012,-5.6012,-5.6012,-5.6012,-5.6012,-5.6608,-5.6608,-5.6606,-5.6606,-5.6606,-5.6606,-5.6606,-5.6606,-5.6821,-5.7621,-5.7953,-5.8553,-6.0118,-6.0532,-6.0866,-6.1502,-6.1602,-6.1607,-6.1607,-6.1607,-6.1607,-6.1607,-6.1548,-6.149,-6.1503,-6.1447,-6.1407,-6.1393,-6.1393,-6.1386,-6.1318,-6.131,-6.1322,-6.133,-6.1322,-6.1294,-6.1294,-6.1306,-6.1261,-6.1219,-6.1219,-6.1182,-6.1155,-6.1245,-6.1297,-6.1297,-6.1236,-6.1219,-6.1219,-6.1164,-6.1146,-6.1146,-6.1137,-6.1108,-6.1108,-6.1099,-6.1099,-6.1099,-6.1099,-6.1099,-6.1099,-6.1099,-6.1099,-6.1099,-6.1099,-6.1099,-6.1099,-6.1099,-6.1099,-6.1099,-6.1099,-6.1099,-6.1099,-6.1099,-6.1099,-6.1099,-6.1099,-6.1099,-6.1099,-6.1099,-6.1099,-6.1099,-6.1099,-6.1099,-6.1099,-6.1099,-5.9667,-5.8613,-5.8613,-5.7076,-5.6012,-5.6012,-5.6012,-5.6012,-5.6012,-5.6012,-5.6012,-5.6012,-5.6012,-5.6012,-5.6012,-5.6012,-5.6012,-5.6012,-5.6012,-5.6012,-5.6012,-5.6012,-5.6012,-5.6012,-5.6012,-5.6012,-5.6606,-5.6606,-5.6606,-5.6606,-5.6606,-5.6606,-5.6606,-5.6606,-5.6723,-5.7133,-5.7523,-5.8087,-5.8989,-5.9498,-5.9891,-6.0282,-6.0709,-6.0984,-6.0984,-6.1334,-6.1583,-6.1554,-6.1512,-6.1497,-6.146,-6.1408,-6.1393,-6.1393,-6.1378,-6.1344,-6.1302,-6.1306,-6.1302,-6.1297,-6.1281,-6.1245,-6.1245,-6.1227,-6.1182,-6.1155,-6.1155,-6.1117,-6.1099,-6.1173,-6.1191,-6.1191,-6.1164,-6.1155,-6.1155,-6.1108,-6.1099,-6.1099,-6.1099,-6.1099,-6.1099,-6.1099,-6.1099,-6.1099,-6.1099,-6.1099,-6.1099,-6.1099,-6.1099,-6.1099,-6.1099,-6.1099,-6.1099,-6.1099,-6.1099,-6.1099,-6.1099,-6.1099,-6.1099,-6.1099,-6.1099,-6.1099,-6.1099,-6.1099,-6.1099,-6.1099,-6.1099,-6.1099,-6.1099,-6.1099,-6.1099,-6.1099,-5.9667,-5.8613,-5.8613,-5.7076,-5.6012,-5.6012,-5.6012,-5.6012,-5.6012,-5.6012,-5.6012,-5.6012,-5.6012,-5.6012,-5.6012,-5.6012,-5.6012,-5.6012,-5.6012,-5.6012,-5.6012,-5.6012,-5.6012,-5.6003,-5.6005,-5.5996,-5.6606,-5.6606,-5.6606,-5.6606,-5.6606,-5.6606,-5.6606,-5.6606,-5.6606,-5.6606,-5.7133,-5.7638,-5.776,-5.839,-5.8916,-5.8999,-5.9618,-6.0126,-6.0282,-6.0925,-6.1403,-6.1495,-6.1501,-6.1472,-6.1421,-6.1401,-6.1393,-6.1386,-6.1337,-6.1295,-6.1279,-6.1286,-6.1281,-6.1281,-6.1219,-6.1173,-6.1173,-6.1137,-6.1099,-6.1099,-6.1099,-6.1099,-6.1099,-6.1099,-6.1099,-6.1099,-6.1099,-6.1099,-6.1099,-6.1099,-6.1099,-6.1099,-6.1099,-6.1099,-6.1099,-6.1099,-6.1099,-6.1099,-6.1099,-6.1099,-6.1099,-6.1099,-6.1099,-6.1099,-6.1099,-6.1099,-6.1099,-6.1099,-6.1099,-6.1099,-6.1099,-6.1099,-6.1099,-6.1099,-6.1099,-6.1099,-6.1099,-6.1099,-6.1099,-6.1099,-6.1099,-6.1099,-6.1099,-6.1099,-6.1099,-6.1099,-5.9667,-5.8613,-5.8613,-5.7076,-5.6012,-5.6012,-5.6012,-5.6012,-5.6012,-5.6012,-5.6012,-5.6012,-5.6012,-5.6012,-5.6012,-5.6012,-5.6012,-5.6012,-5.6012,-5.6003,-5.5995,-5.5995,-5.5995,-5.5986,-5.598,-5.5981,-5.6606,-5.6606,-5.6606,-5.6606,-5.6606,-5.6606,-5.6606,-5.6606,-5.6606,-5.6606,-5.6684,-5.6977,-5.7677,-5.7908,-5.8217,-5.8978,-5.9143,-5.9445,-6.0185,-6.0399,-6.0721,-6.1417,-6.1501,-6.1472,-6.1421,-6.1401,-6.1386,-6.131,-6.1302,-6.1271,-6.1227,-6.1219,-6.1201,-6.1137,-6.1108,-6.1108,-6.1108,-6.1099,-6.1099,-6.1099,-6.1099,-6.1099,-6.1099,-6.1099,-6.1099,-6.1099,-6.1099,-6.1099,-6.1099,-6.1099,-6.1099,-6.1099,-6.1099,-6.1099,-6.1099,-6.1099,-6.1099,-6.1099,-6.1099,-6.1099,-6.1099,-6.1099,-6.1099,-6.1099,-6.1099,-6.1099,-6.1099,-6.1099,-6.1099,-6.1099,-6.1099,-6.1099,-6.1099,-6.1099,-6.1099,-6.1099,-6.1099,-6.1099,-6.1099,-6.1099,-6.1099,-6.1099,-6.1099,-6.1099,-6.1099,-6.1099,-5.9667,-5.8613,-5.8613,-5.7076,-5.6012,-5.6012,-5.6012,-5.6012,-5.6012,-5.6012,-5.6012,-5.6012,-5.6012,-5.6012,-5.6012,-5.6012,-5.6012,-5.6012,-5.6012,-5.6005,-5.6008,-5.6008,-5.5961,-5.5914,-5.5914,-5.5905,-5.6606,-5.6606,-5.6606,-5.6606,-5.6606,-5.6606,-5.6606,-5.6606,-5.6606,-5.6606,-5.6606,-5.6704,-5.7055,-5.7091,-5.7203,-5.7577,-5.7993,-5.8412,-5.8782,-5.9684,-6.0424,-6.0728,-6.1167,-6.1421,-6.1408,-6.1407,-6.1359,-6.1302,-6.1299,-6.1278,-6.121,-6.1164,-6.1137,-6.1099,-6.1099,-6.1099,-6.1099,-6.1099,-6.1099,-6.1099,-6.1099,-6.1099,-6.1099,-6.1099,-6.1099,-6.1099,-6.1099,-6.1099,-6.1099,-6.1099,-6.1099,-6.1099,-6.1099,-6.1099,-6.1099,-6.1099,-6.1099,-6.1099,-6.1099,-6.1099,-6.1099,-6.1099,-6.1099,-6.1099,-6.1099,-6.1099,-6.1099,-6.1099,-6.1099,-6.1089,-6.1041,-6.1041,-6.1051,-6.1031,-6.105,-6.105,-6.105,-6.107,-6.1099,-6.1099,-6.1099,-6.1099,-6.1099,-6.1099,-6.1099,-6.1099,-5.9667,-5.8613,-5.8613,-5.7076,-5.6012,-5.6012,-5.6012,-5.6012,-5.6012,-5.6012,-5.6012,-5.6012,-5.6012,-5.6012,-5.6012,-5.6005,-5.6007,-5.6007,-5.6007,-5.5998,-5.5999,-5.5962,-5.5924,-5.5895,-5.5856,-5.5846,-5.6606,-5.6606,-5.6606,-5.6606,-5.6606,-5.6606,-5.6606,-5.6606,-5.6606,-5.6606,-5.6606,-5.6584,-5.6582,-5.6523,-5.6501,-5.6498,-5.6995,-5.7481,-5.7676,-5.8817,-5.9785,-6.0161,-6.0734,-6.1188,-6.1381,-6.1393,-6.1378,-6.1306,-6.1294,-6.1253,-6.1173,-6.1137,-6.1099,-6.1099,-6.1099,-6.1099,-6.1099,-6.1099,-6.1099,-6.1099,-6.1099,-6.1099,-6.1099,-6.1099,-6.1099,-6.1099,-6.1099,-6.1099,-6.1099,-6.1099,-6.1099,-6.1099,-6.1099,-6.1099,-6.1099,-6.1099,-6.1099,-6.1099,-6.1099,-6.1099,-6.1099,-6.1099,-6.1099,-6.1099,-6.1099,-6.1099,-6.1099,-6.1099,-6.1089,-6.1051,-6.1012,-6.0992,-6.101,-6.0997,-6.0987,-6.0997,-6.0989,-6.1041,-6.108,-6.1099,-6.1099,-6.1099,-6.1099,-6.1099,-6.1099,-6.1099,-5.9861,-5.8855,-5.8632,-5.7269,-5.6255,-5.6031,-5.6012,-5.6012,-5.6012,-5.6012,-5.6012,-5.6012,-5.6012,-5.6003,-5.5995,-5.5998,-5.599,-5.5971,-5.5962,-5.5962,-5.5962,-5.5905,-5.5875,-5.5855,-5.5806,-5.5766,-5.6606,-5.6606,-5.6606,-5.6606,-5.6606,-5.6606,-5.6606,-5.6606,-5.6606,-5.6606,-5.6606,-5.6582,-5.6511,-5.6494,-5.6498,-5.65,-5.6539,-5.6838,-5.7598,-5.779,-5.8422,-6.0005,-6.0248,-6.0566,-6.1322,-6.1393,-6.1364,-6.1314,-6.1306,-6.1245,-6.1108,-6.1099,-6.1099,-6.1099,-6.1099,-6.1099,-6.1099,-6.1099,-6.1099,-6.1099,-6.1099,-6.1099,-6.1099,-6.1099,-6.1099,-6.1099,-6.1099,-6.1099,-6.1099,-6.1099,-6.1099,-6.1099,-6.1099,-6.1099,-6.1099,-6.1099,-6.1099,-6.1099,-6.1099,-6.1099,-6.1099,-6.1099,-6.1099,-6.1099,-6.1099,-6.1099,-6.1099,-6.1099,-6.1041,-6.1012,-6.1002,-6.1,-6.0997,-6.0997,-6.0987,-6.1008,-6.1011,-6.1002,-6.1022,-6.1089,-6.1099,-6.1099,-6.1099,-6.1099,-6.1099,-6.1099,-6.0383,-5.9532,-5.8709,-5.7811,-5.6912,-5.6089,-5.6012,-5.6012,-5.6012,-5.6012,-5.6012,-5.6012,-5.6012,-5.6005,-5.5999,-5.5999,-5.5971,-5.5905,-5.5846,-5.5797,-5.5797,-5.5816,-5.5766,-5.5714,-5.5714,-5.5714,-5.6606,-5.6606,-5.6606,-5.6606,-5.6606,-5.6606,-5.6606,-5.6606,-5.6606,-5.6606,-5.6606,-5.658,-5.6517,-5.6508,-5.6498,-5.6496,-5.65,-5.6604,-5.6896,-5.7342,-5.7856,-5.8462,-5.9471,-6.0248,-6.0545,-6.107,-6.1364,-6.1306,-6.1297,-6.1245,-6.1099,-6.1099,-6.1099,-6.1099,-6.1099,-6.1099,-6.1099,-6.1099,-6.1099,-6.1099,-6.1099,-6.1099,-6.1099,-6.1099,-6.1099,-6.1099,-6.1099,-6.1099,-6.1099,-6.1099,-6.1099,-6.1099,-6.1099,-6.1099,-6.1099,-6.1099,-6.1099,-6.1099,-6.1099,-6.1099,-6.1099,-6.1099,-6.1099,-6.1099,-6.1099,-6.1099,-6.1089,-6.1061,-6.1022,-6.0992,-6.0959,-6.0935,-6.0933,-6.088,-6.0869,-6.088,-6.0927,-6.0971,-6.1012,-6.1032,-6.108,-6.1099,-6.1099,-6.1099,-6.1099,-6.1099,-6.0422,-5.959,-5.8709,-5.7849,-5.697,-5.6089,-5.6012,-5.6012,-5.6012,-5.6012,-5.6012,-5.6012,-5.5996,-5.5998,-5.5999,-5.5914,-5.5856,-5.5836,-5.5766,-5.5756,-5.5797,-5.5756,-5.5724,-5.5703,-5.5703,-5.5703,-5.6577,-5.658,-5.656,-5.6584,-5.6606,-5.6606,-5.6606,-5.6606,-5.6606,-5.6606,-5.6582,-5.6553,-5.6508,-5.6498,-5.6507,-5.6508,-5.6496,-5.6507,-5.6507,-5.6909,-5.7295,-5.7567,-5.8584,-5.9477,-6.004,-6.0623,-6.1061,-6.1283,-6.1306,-6.1245,-6.1146,-6.1108,-6.1099,-6.1099,-6.1099,-6.1099,-6.1099,-6.1099,-6.1099,-6.1099,-6.1099,-6.1099,-6.1099,-6.1099,-6.1099,-6.1099,-6.1099,-6.1099,-6.1099,-6.1099,-6.1099,-6.1099,-6.1099,-6.1099,-6.1099,-6.1099,-6.1099,-6.1099,-6.1099,-6.1099,-6.1099,-6.1099,-6.1099,-6.1099,-6.108,-6.107,-6.1061,-6.1011,-6.0981,-6.095,-6.0914,-6.088,-6.0858,-6.0812,-6.08,-6.0812,-6.0858,-6.0938,-6.1001,-6.1002,-6.1041,-6.1099,-6.1099,-6.1099,-6.1099,-6.1099,-6.0654,-5.988,-5.8748,-5.8081,-5.7288,-5.6128,-5.6012,-5.6012,-5.6012,-5.6012,-5.6003,-5.6005,-5.5989,-5.5981,-5.5933,-5.5846,-5.5787,-5.5766,-5.5724,-5.5724,-5.5766,-5.5724,-5.5703,-5.5703,-5.5703,-5.5703,0.0,0.0,0.0,-5.6582,-5.6604,-5.6604,-5.6604,-5.6604,-5.6604,-5.6604,-5.6555,-5.6503,-5.6504,-5.6507,-5.6508,-5.6511,-5.6507,-5.6507,-5.6507,-5.6446,-5.6697,-5.747,-5.7598,-5.824,-5.9865,-6.006,-6.0415,-6.1205,-6.1283,-6.1281,-6.121,-6.1146,-6.1099,-6.1099,-6.1099,-6.1099,-6.1099,-6.1099,-6.1099,-6.1099,-6.1099,-6.1099,-6.1099,-6.1099,-6.1099,-6.1099,-6.1099,-6.1099,-6.1099,-6.1099,-6.1099,-6.1099,-6.1099,-6.1099,-6.1099,-6.1099,-6.1099,-6.1099,-6.1099,-6.1099,-6.1099,-6.1099,-6.1099,-6.1089,-6.1022,-6.1002,-6.1011,-6.1008,-6.0955,-6.0911,-6.0911,-6.0846,-6.08,-6.08,-6.08,-6.08,-6.08,-6.0891,-6.1008,-6.0992,-6.1041,-6.1099,-6.1099,-6.1099,-6.1099,-6.1099,-6.1099,-6.0499,-5.8816,-5.8613,-5.7927,-5.6186,-5.6012,-5.6012,-5.6012,-5.6003,-5.6005,-5.5999,-5.599,-5.5933,-5.5816,-5.5787,-5.5766,-5.5703,-5.5703,-5.5703,-5.5703,-5.5703,-5.5703,-5.5703,-5.5703,-5.5703,-5.6508,0.0,0.0,0.0,0.0,0.0,-5.6536,-5.6536,-5.6536,-5.6536,-5.6514,-5.6504,-5.6507,-5.6496,-5.6508,-5.6511,-5.6507,-5.6507,-5.6507,-5.6441,-5.649,-5.6703,-5.7247,-5.7774,-5.824,-5.938,-6.0201,-6.0429,-6.0973,-6.1281,-6.121,-6.1146,-6.1099,-6.1099,-6.1099,-6.1099,-6.1099,-6.1099,-6.1099,-6.1099,-6.1099,-6.1099,-6.1099,-6.1099,-6.1099,-6.1099,-6.1099,-6.1099,-6.1099,-6.1099,-6.1099,-6.1099,-6.1099,-6.1099,-6.1099,-6.1099,-6.1099,-6.1099,-6.1099,-6.1099,-6.1089,-6.1041,-6.1022,-6.1012,-6.102,-6.0999,-6.0989,-6.0944,-6.0903,-6.09,-6.0835,-6.0812,-6.08,-6.08,-6.08,-6.08,-6.08,-6.0858,-6.0955,-6.0989,-6.1001,-6.1032,-6.1089,-6.1099,-6.1099,-6.1099,-6.1099,-6.0499,-5.8816,-5.8613,-5.7927,-5.6186,-5.6012,-5.6012,-5.6012,-5.5996,-5.6008,-5.5999,-5.5914,-5.5836,-5.5797,-5.5756,-5.5724,-5.5703,-5.5703,-5.5703,-5.5703,-5.5703,-5.5703,-5.5703,-5.5703,-5.5703,-5.651,-5.6491,-5.6494,-5.6501,0.0,0.0,-5.6501,-5.6501,-5.6501,-5.6501,-5.6498,-5.6507,-5.6496,-5.6508,-5.65,-5.6507,-5.6507,-5.6507,-5.6507,-5.6446,-5.6403,-5.6391,-5.6786,-5.7204,-5.7561,-5.8474,-5.9198,-5.9539,-6.0302,-6.0865,-6.1145,-6.1108,-6.1099,-6.1099,-6.1099,-6.1099,-6.1099,-6.1099,-6.1099,-6.1099,-6.1099,-6.1099,-6.1099,-6.108,-6.107,-6.107,-6.106,-6.1051,-6.1051,-6.1051,-6.108,-6.1099,-6.1099,-6.1099,-6.1099,-6.1099,-6.108,-6.107,-6.107,-6.1051,-6.1041,-6.1021,-6.101,-6.1,-6.0976,-6.0955,-6.0944,-6.0869,-6.0858,-6.0846,-6.0812,-6.08,-6.08,-6.08,-6.08,-6.08,-6.08,-6.0835,-6.09,-6.0976,-6.1,-6.1022,-6.1089,-6.1099,-6.1099,-6.1099,-6.1099,-6.0499,-5.8816,-5.8613,-5.7927,-5.6186,-5.6012,-5.6012,-5.6012,-5.6007,-5.599,-5.5962,-5.5856,-5.5787,-5.5756,-5.5724,-5.5703,-5.5703,-5.5703,-5.5703,-5.5703,-5.5703,-5.5703,-5.5703,-5.5703,-5.5703,-5.648,-5.6488,-5.6492,-5.6491,-5.6498,0.0,-5.6498,-5.6498,-5.6498,-5.6498,-5.6503,-5.6492,-5.6492,-5.6496,-5.6507,-5.6507,-5.6507,-5.6507,-5.6507,-5.645,-5.6403,-5.6391,-5.6345,-5.6607,-5.7386,-5.7541,-5.791,-5.8603,-5.9405,-6.0171,-6.0934,-6.0963,-6.1002,-6.1099,-6.1099,-6.1099,-6.1099,-6.1099,-6.1099,-6.1099,-6.1099,-6.1099,-6.1099,-6.1032,-6.1002,-6.1002,-6.0999,-6.0987,-6.0987,-6.0987,-6.103,-6.1099,-6.1099,-6.1099,-6.1099,-6.1099,-6.1051,-6.0992,-6.0992,-6.1,-6.0987,-6.0987,-6.0987,-6.0976,-6.0922,-6.09,-6.0888,-6.0823,-6.08,-6.08,-6.08,-6.08,-6.08,-6.08,-6.08,-6.08,-6.08,-6.08,-6.0835,-6.0965,-6.1,-6.1012,-6.1089,-6.1099,-6.1099,-6.1099,-6.1099,-6.0538,-5.8952,-5.8671,-5.7965,-5.6321,-5.607,-5.6003,-5.6003,-5.5998,-5.5962,-5.5895,-5.5826,-5.5756,-5.5714,-5.5703,-5.5703,-5.5703,-5.5703,-5.5703,-5.5703,-5.5703,-5.5703,-5.5703,-5.5703,-5.5703,-5.6417,-5.6422,-5.6431,-5.6492,-5.65,0.0,-5.65,-5.65,-5.65,-5.65,-5.6496,-5.6492,-5.6492,-5.6507,-5.6507,-5.6507,-5.6507,-5.6507,-5.6507,-5.6483,-5.6465,-5.6416,-5.6386,-5.6436,-5.6531,-5.7191,-5.7677,-5.7813,-5.8532,-5.9296,-6.0098,-6.0131,-6.0422,-6.1079,-6.1099,-6.1099,-6.1099,-6.1099,-6.1099,-6.1099,-6.1099,-6.1099,-6.1099,-6.1032,-6.1002,-6.1002,-6.0999,-6.0987,-6.0987,-6.0987,-6.1008,-6.1029,-6.1029,-6.1029,-6.1029,-6.1029,-6.1018,-6.1008,-6.1008,-6.0997,-6.0987,-6.0944,-6.0922,-6.0911,-6.0835,-6.0823,-6.0823,-6.0812,-6.08,-6.08,-6.08,-6.08,-6.08,-6.08,-6.08,-6.08,-6.08,-6.08,-6.0835,-6.0965,-6.0997,-6.102,-6.108,-6.1099,-6.1099,-6.1099,-6.1099,-6.075,-5.9764,-5.9029,-5.8197,-5.7164,-5.6409,-5.5995,-5.5989,-5.5943,-5.5895,-5.5826,-5.5756,-5.5714,-5.5703,-5.5703,-5.5703,-5.5703,-5.5703,-5.5703,-5.5703,-5.5703,-5.5703,-5.5703,-5.5703,-5.5703,-5.6407,-5.6393,-5.6412,-5.6446,-5.6461,0.0,0.0,-5.6479,-5.6507,-5.6507,-5.6507,-5.6507,-5.6507,-5.6507,-5.6507,-5.6507,-5.6507,-5.6507,-5.6507,-5.6507,-5.6489,-5.6416,-5.6411,-5.6364,-5.6317,-5.6699,-5.712,-5.7527,-5.7858,-5.8404,-5.9215,-5.9249,-5.9435,-5.9841,-5.9841,-6.0054,-6.0499,-6.0499,-6.0692,-6.1099,-6.1099,-6.1099,-6.1099,-6.1041,-6.1,-6.099,-6.0924,-6.0911,-6.0911,-6.0911,-6.0911,-6.0911,-6.0965,-6.0987,-6.0987,-6.0987,-6.0976,-6.0955,-6.0955,-6.0933,-6.088,-6.0858,-6.0846,-6.0846,-6.0812,-6.08,-6.08,-6.08,-6.08,-6.08,-6.08,-6.08,-6.08,-6.08,-6.08,-6.08,-6.08,-6.08,-6.0835,-6.0933,-6.0976,-6.1029,-6.1099,-6.1099,-6.1099,-6.1099,-6.1099,-6.0809,-5.9996,-5.9145,-5.8275,-5.7396,-5.6527,-5.5998,-5.5999,-5.5905,-5.5836,-5.5797,-5.5735,-5.5703,-5.5703,-5.5703,-5.5703,-5.5703,-5.5703,-5.5703,-5.5703,-5.5703,-5.5703,-5.5703,-5.5682,-5.564,-5.637,-5.6375,-5.6381,-5.6406,-5.6407,-5.6403,0.0,0.0,0.0,-5.6479,-5.6483,-5.6507,-5.6507,-5.6507,-5.6507,-5.6507,-5.6507,-5.6507,-5.6507,-5.6483,-5.6465,-5.6416,-5.6386,-5.6358,-5.6317,-5.6291,-5.657,-5.7215,-5.721,-5.7521,-5.8341,-5.8368,-5.843,-5.8593,-5.8613,-5.8932,-5.9629,-5.9648,-5.9977,-6.0615,-6.0615,-6.0615,-6.0615,-6.0537,-6.0505,-6.0485,-6.0376,-6.0319,-6.0319,-6.0319,-6.0416,-6.0581,-6.0845,-6.0965,-6.0965,-6.0965,-6.0933,-6.0869,-6.0869,-6.0846,-6.08,-6.08,-6.08,-6.08,-6.08,-6.08,-6.08,-6.08,-6.08,-6.08,-6.08,-6.08,-6.08,-6.08,-6.08,-6.08,-6.08,-6.08,-6.0823,-6.09,-6.0955,-6.1029,-6.107,-6.1089,-6.1099,-6.1099,-6.1099,-6.0867,-6.0209,-5.9223,-5.8333,-5.7637,-5.6625,-5.599,-5.5981,-5.5866,-5.5787,-5.5776,-5.5735,-5.5703,-5.5703,-5.5703,-5.5703,-5.5703,-5.5703,-5.5684,-5.5673,-5.5673,-5.5673,-5.5692,-5.5618,-5.5596,-5.6298,-5.6309,-5.6333,-5.6381,-5.6391,-5.6391,-5.6391,0.0,-5.6417,-5.6417,0.0,-5.6507,-5.6507,0.0,0.0,-5.6507,-5.6507,-5.6507,-5.6507,-5.645,-5.6403,-5.6391,-5.6345,-5.6315,-5.6298,-5.6291,-5.633,-5.6421,-5.6379,-5.6695,-5.7482,-5.7486,-5.7811,-5.8593,-5.8613,-5.8651,-5.8748,-5.8748,-5.8778,-5.8874,-5.8874,-5.8874,-5.8874,-5.8752,-5.8692,-5.8692,-5.8613,-5.8588,-5.8588,-5.8588,-5.9011,-5.9723,-6.0523,-6.0823,-6.0823,-6.0823,-6.0823,-6.0812,-6.0812,-6.0812,-6.08,-6.08,-6.08,-6.08,-6.08,-6.08,-6.08,-6.08,-6.08,-6.08,-6.08,-6.08,-6.08,-6.08,-6.08,-6.08,-6.08,-6.08,-6.0823,-6.09,-6.0955,-6.0989,-6.1002,-6.107,-6.1099,-6.1099,-6.1099,-6.1079,-6.0983,-5.9571,-5.8574,-5.8449,-5.6973,-5.5981,-5.5914,-5.5846,-5.5766,-5.5724,-5.5695,-5.5703,-5.5703,-5.5703,-5.5703,-5.5703,-5.5703,-5.5662,-5.5607,-5.5607,-5.5607,-5.5607,-5.5596,-5.5562,-5.6223,-5.6239,-5.6246,-5.6285,-5.6315,-5.6345,-5.6345,-5.5977,-5.5648,-5.5648,0.0,0.0,0.0,0.0,0.0,0.0,-5.6111,-5.6442,-5.6442,-5.6382,-5.6367,-5.6406,-5.6345,-5.629,-5.6298,-5.6291,-5.6291,-5.6291,-5.6243,-5.6354,-5.6684,-5.6596,-5.6708,-5.7076,-5.7095,-5.7327,-5.7849,-5.7849,-5.8101,-5.8613,-5.8613,-5.8613,-5.8604,-5.8462,-5.8402,-5.8402,-5.8325,-5.83,-5.83,-5.83,-5.8511,-5.8896,-5.9723,-6.0339,-6.08,-6.08,-6.08,-6.08,-6.08,-6.08,-6.08,-6.08,-6.08,-6.08,-6.08,-6.08,-6.08,-6.08,-6.08,-6.08,-6.08,-6.08,-6.08,-6.08,-6.08,-6.08,-6.08,-6.08,-6.0812,-6.0835,-6.0911,-6.0946,-6.098,-6.106,-6.1099,-6.1099,-6.1099,-6.1099,-6.1099,-6.0074,-5.9155,-5.8606,-5.7438,-5.6454,-5.5885,-5.5776,-5.5735,-5.5703,-5.5703,-5.5703,-5.5703,-5.5703,-5.5703,-5.5703,-5.5651,-5.5618,-5.5596,-5.5562,-5.5527,-5.548,-5.548,-5.5468,-5.6164,-5.6194,-5.6204,-5.6204,-5.6233,-5.6219,-5.5967,-5.5472,-5.5013,-5.4799,-5.4241,0.0,0.0,0.0,-5.4732,-5.4732,0.0,-5.5763,-5.6016,-5.5994,-5.6061,-5.6336,-5.6327,-5.6303,-5.6298,-5.6291,-5.6291,-5.6291,-5.6238,-5.6194,-5.6199,-5.609,-5.602,-5.6012,-5.6012,-5.6293,-5.6932,-5.6932,-5.7269,-5.7888,-5.7888,-5.7888,-5.7888,-5.7757,-5.7708,-5.7708,-5.7613,-5.7588,-5.7588,-5.7588,-5.7723,-5.7992,-5.8588,-5.9473,-6.0473,-6.0704,-6.08,-6.08,-6.08,-6.08,-6.08,-6.08,-6.08,-6.08,-6.08,-6.08,-6.08,-6.08,-6.08,-6.08,-6.08,-6.08,-6.08,-6.08,-6.08,-6.08,-6.08,-6.08,-6.08,-6.08,-6.0846,-6.0922,-6.0965,-6.1021,-6.108,-6.1099,-6.1099,-6.1099,-6.1099,-6.0374,-5.962,-5.8925,-5.7853,-5.6897,-5.6221,-5.587,-5.5703,-5.5703,-5.5703,-5.5703,-5.5703,-5.5703,-5.5703,-5.5703,-5.5629,-5.5585,-5.5573,-5.5504,-5.5444,-5.539,-5.5395,-5.5395,-5.6098,-5.6149,-5.6199,-5.6199,-5.619,-5.5985,-5.5131,-5.4971,-5.4786,-5.4008,-5.3816,-5.3798,-5.3798,-5.3818,-5.3837,-5.3837,-5.3876,0.0,0.0,-5.5075,-5.5369,-5.6211,-5.6297,-5.6291,-5.6291,-5.6291,-5.6291,-5.6291,-5.6239,-5.6204,-5.6199,-5.6141,-5.6073,-5.6012,-5.6012,-5.6012,-5.6051,-5.6051,-5.607,-5.6089,-5.6089,-5.6089,-5.6081,-5.6001,-5.5972,-5.5972,-5.5852,-5.578,-5.578,-5.578,-5.628,-5.7041,-5.708,-5.8088,-5.9646,-6.0492,-6.08,-6.08,-6.08,-6.08,-6.08,-6.08,-6.08,-6.08,-6.08,-6.08,-6.08,-6.08,-6.08,-6.08,-6.08,-6.08,-6.08,-6.08,-6.08,-6.08,-6.08,-6.08,-6.08,-6.08,-6.0846,-6.0911,-6.0891,-6.095,-6.1022,-6.1089,-6.1099,-6.1099,-6.1099,-6.0345,-5.9795,-5.9756,-5.8171,-5.7097,-5.7048,-5.6216,-5.5703,-5.5703,-5.5703,-5.5703,-5.5703,-5.5703,-5.5703,-5.5703,-5.5629,-5.5562,-5.5504,-5.5444,-5.5409,-5.5403,-5.539,-5.5409,-5.6016,-5.6059,-5.6082,-5.6114,-5.5726,-5.5252,-5.4961,-5.4031,-5.3139,-5.2926,-5.24,-5.203,-5.2067,-5.2519,-5.2869,-5.2869,-5.3355,-5.3841,0.0,-5.4645,-5.5106,-5.5397,-5.5948,-5.6291,-5.6291,-5.6291,-5.6291,-5.6291,-5.6239,-5.6204,-5.6199,-5.6141,-5.6073,-5.6012,-5.6012,-5.6012,-5.6012,-5.6012,-5.6012,-5.6012,-5.6012,-5.6012,-5.6003,-5.5923,-5.5895,-5.5895,-5.5756,-5.5703,-5.5703,-5.5703,-5.5857,-5.6214,-5.6772,-5.7703,-5.8819,-5.9627,-6.03,-6.08,-6.08,-6.08,-6.08,-6.08,-6.08,-6.08,-6.08,-6.08,-6.08,-6.08,-6.08,-6.08,-6.08,-6.08,-6.08,-6.08,-6.08,-6.08,-6.08,-6.08,-6.08,-6.08,-6.0823,-6.0846,-6.088,-6.0924,-6.0959,-6.1012,-6.108,-6.1089,-6.1032,-6.078,-6.0364,-5.9723,-5.8601,-5.7664,-5.7082,-5.6214,-5.5703,-5.5703,-5.5703,-5.5703,-5.5703,-5.5703,-5.5692,-5.5629,-5.5562,-5.5504,-5.5432,-5.5409,-5.5396,-5.5403,-5.5409,-5.5396,-5.5962,-5.5951,-5.5987,-5.6059,-5.5443,-5.4746,-5.4471,-5.3303,-5.2232,-5.1981,-5.1483,-5.1108,-5.1159,-5.1592,-5.1948,-5.1979,-5.2445,-5.2912,0.0,-5.398,-5.4543,-5.4543,-5.5573,-5.6291,-5.6291,-5.6291,-5.6291,-5.6291,-5.6239,-5.6204,-5.6199,-5.6141,-5.6073,-5.6012,-5.6012,-5.6012,-5.6012,-5.6012,-5.6012,-5.6012,-5.6012,-5.6003,-5.5996,-5.5933,-5.5885,-5.5846,-5.5745,-5.5703,-5.5703,-5.5703,-5.5703,-5.5761,-5.6329,-5.7261,-5.8396,-5.9204,-6.005,-6.08,-6.08,-6.08,-6.08,-6.08,-6.08,-6.08,-6.08,-6.08,-6.08,-6.08,-6.08,-6.08,-6.08,-6.08,-6.08,-6.08,-6.08,-6.08,-6.08,-6.08,-6.08,-6.08,-6.08,-6.0812,-6.0858,-6.088,-6.0924,-6.1,-6.1041,-6.1051,-6.1021,-6.0981,-6.0727,-6.0121,-5.9252,-5.8248,-5.7099,-5.6214,-5.5703,-5.5703,-5.5703,-5.5703,-5.5703,-5.5682,-5.564,-5.5596,-5.5516,-5.5444,-5.5408,-5.539,-5.5403,-5.5403,-5.5403,-5.5403]},{"header":{"parameterUnit":"m.s-1","parameterCategory":1,"la1":30.6,"la2":29.2853,"lo1":-89.7004,"lo2":-87.6739,"dy":0.0162,"dx":0.0183,"nx":112,"ny":82,"refTime":"2024-05-05T12:00:00:Z","depth":0,"parameterNumber":3,"parameterNumberName":"V-component_of_WINDS"},"data":[0.0,0.0,0.0,0.0,0.0,0.0,0.0,0.0,0.0,0.0,0.0,0.0,0.0,0.0,0.0,0.0,0.0,0.0,0.0,0.0,0.0,0.0,0.0,0.0,0.0,0.0,0.0,0.0,0.0,0.0,0.0,0.0,0.0,0.0,0.0,0.0,0.0,0.0,0.0,0.0,0.0,0.0,0.0,0.0,0.0,0.0,0.0,0.0,0.0,0.0,0.0,0.0,0.0,0.0,0.0,0.0,0.0,0.0,0.0,0.0,0.0,0.0,0.0,0.0,0.0,0.0,0.0,0.0,0.0,0.0,0.0,0.0,0.0,0.0,0.0,0.0,0.0,0.0,0.0,0.0,0.0,0.0,0.0,0.0,0.0,0.0,0.0,0.0,0.0,0.0,-0.2222,-0.2222,-0.2759,-0.3296,-0.3701,-0.3993,-0.4266,-0.4519,0.0,0.0,0.0,0.0,0.0,0.0,0.0,0.0,0.0,0.0,0.0,0.0,0.0,0.0,0.0,0.0,0.0,0.0,0.0,0.0,0.0,0.0,0.0,0.0,0.0,0.0,0.0,0.0,0.0,0.0,0.0,0.0,0.0,0.0,0.0,0.0,0.0,0.0,0.0,0.0,0.0,0.0,0.0,0.0,0.0,0.0,0.0,0.0,0.0,0.0,0.0,0.0,0.0,0.0,0.0,0.0,0.0,0.0,0.0,0.0,0.0,0.0,0.0,0.0,0.0,0.0,0.0,0.0,0.0,0.0,0.0,0.0,0.0,0.0,0.0,0.0,0.0,0.0,0.0,0.0,0.0,0.0,0.0,0.0,0.0,0.0,0.0,0.0,0.0,0.0,0.0,0.0,0.0,0.0,0.0,0.0,0.0,0.0,0.0,0.0,0.0,0.0,0.0,0.0,-0.2222,-0.2222,-0.2558,-0.2895,-0.3295,-0.3625,-0.3979,-0.4132,0.0,0.0,0.0,0.0,0.0,0.0,0.0,0.0,0.0,0.0,0.0,0.0,0.0,0.0,0.0,0.0,0.0,0.0,0.0,0.0,0.0,0.0,0.0,0.0,0.0,0.0,0.0,0.0,0.0,0.0,0.0,0.0,0.0,0.0,0.0,0.0,0.0,0.0,0.0,0.0,0.0,0.0,0.0,0.0,0.0,0.0,0.0,0.0,0.0,0.0,0.0,0.0,0.0,0.0,0.0,0.0,0.0,0.0,0.0,0.0,0.0,0.0,0.0,0.0,0.0,0.0,0.0,0.0,0.0,0.0,0.0,0.0,0.0,0.0,0.0,0.0,0.0,0.0,0.0,0.0,0.0,0.0,0.0,0.0,0.0,0.0,0.0,0.0,0.0,0.0,0.0,0.0,0.0,0.0,0.0,0.0,0.0,0.0,0.0,0.0,0.0,0.0,0.0,-0.1945,-0.2222,-0.2222,-0.2492,-0.2761,-0.2895,-0.3408,-0.3757,-0.3807,-0.4068,0.0,0.0,0.0,0.0,0.0,0.0,0.0,0.0,0.0,0.0,0.0,0.0,0.0,0.0,0.0,0.0,0.0,0.0,0.0,0.0,0.0,0.0,0.0,0.0,0.0,0.0,0.0,0.0,0.0,0.0,0.0,0.0,0.0,0.0,0.0,0.0,0.0,0.0,0.0,0.0,0.0,0.0,0.0,0.0,0.0,0.0,0.0,0.0,0.0,0.0,0.0,0.0,0.0,0.0,0.0,0.0,0.0,0.0,0.0,0.0,0.0,0.0,0.0,0.0,0.0,0.0,0.0,0.0,0.0,0.0,0.0,0.0,0.0,0.0,0.0,0.0,0.0,0.0,0.0,0.0,0.0,0.0,0.0,0.0,0.0,0.0,0.0,0.0,0.0,0.0,0.0,0.0,0.0,0.0,0.0,0.0,0.0,0.0,0.0,0.0,0.0,0.0,-0.1885,-0.2087,-0.2222,-0.2424,-0.2627,-0.2694,-0.3123,-0.3469,-0.3612,-0.3751,0.0,0.0,0.0,0.0,0.0,0.0,0.0,0.0,0.0,0.0,0.0,0.0,0.0,0.0,0.0,0.0,0.0,0.0,0.0,0.0,0.0,0.0,0.0,0.0,0.0,0.0,0.0,0.0,0.0,0.0,0.0,0.0,0.0,0.0,0.0,0.0,0.0,0.0,0.0,0.0,0.0,0.0,0.0,0.0,0.0,0.0,0.0,0.0,0.0,0.0,0.0,0.0,0.0,0.0,0.0,0.0,0.0,0.0,0.0,0.0,0.0,0.0,0.0,0.0,0.0,0.0,0.0,0.0,0.0,0.0,0.0,0.0,0.0,0.0,0.0,0.0,0.0,0.0,0.0,0.0,0.0,0.0,0.0,0.0,0.0,0.0,0.0,0.0,0.0,0.0,0.0,0.0,0.0,0.0,0.0,0.0,0.0,0.0,0.0,0.0,0.0,0.0,-0.1616,-0.1818,-0.2155,-0.2222,-0.2357,-0.2694,-0.2659,-0.2947,-0.3547,-0.3562,0.0,0.0,0.0,0.0,0.0,0.0,0.0,0.0,0.0,0.0,0.0,0.0,0.0,0.0,0.0,0.0,0.0,0.0,0.0,0.0,0.0,0.0,0.0,0.0,0.0,0.0,0.0,0.0,0.0,0.0,0.0,0.0,0.0,0.0,0.0,0.0,0.0,0.0,0.0,0.0,0.0,0.0,0.0,0.0,0.0,0.0,0.0,0.0,0.0,0.0,0.0,0.0,0.0,0.0,0.0,0.0,0.0,0.0,0.0,0.0,0.0,0.0,0.0,0.0,0.0,0.0,0.0,0.0,0.0,0.0,0.0,0.0,0.0,0.0,0.0,0.0,0.0,0.0,0.0,0.0,0.0,0.0,0.0,0.0,0.0,0.0,0.0,0.0,0.0,0.0,0.0,0.0,0.0,0.0,0.0,0.0,0.0,0.0,0.0,0.0,0.0,0.0,-0.1346,-0.1683,-0.1818,-0.202,-0.2222,-0.2357,-0.2505,-0.2725,-0.2967,0.0,0.0,0.0,0.0,0.0,0.0,0.0,0.0,0.0,0.0,0.0,0.0,0.0,0.0,0.0,0.0,0.0,0.0,0.0,0.0,0.0,0.0,0.0,0.0,0.0,0.0,0.0,0.0,0.0,0.0,0.0,0.0,0.0,0.0,0.0,0.0,0.0,0.0,0.0,0.0,0.0,0.0,0.0,0.0,0.0,0.0,0.0,0.0,0.0,0.0,0.0,0.0,0.0,0.0,0.0,0.0,0.0,0.0,0.0,0.0,0.0,0.0,0.0,0.0,0.0,0.0,0.0,0.0,0.0,0.0,0.0,0.0,0.0,0.0,0.0,0.0,0.0,0.0,0.0,0.0,0.0,0.0,0.0,0.0,0.0,0.0,0.0,0.0,0.0,0.0,0.0,0.0,0.0,0.0,0.0,0.0,0.0,0.0,0.0,0.0,0.0,0.0,-0.0467,-0.094,-0.1346,-0.1548,-0.1818,-0.2083,-0.2141,-0.2355,-0.2446,-0.2563,0.0,0.0,0.0,0.0,0.0,0.0,0.0,0.0,0.0,0.0,0.0,0.0,0.0,0.0,0.0,0.0,0.0,0.0,0.0,0.0,0.0,0.0,0.0,0.0,0.0,0.0,0.0,0.0,0.0,0.0,0.0,0.0,0.0,0.0,0.0,0.0,0.0,0.0,0.0,0.0,0.0,0.0,0.0,0.0,0.0,0.0,0.0,0.0,0.0,0.0,0.0,0.0,0.0,0.0,0.0,0.0,0.0,0.0,0.0,0.0,0.0,0.0,0.0,0.0,0.0,0.0,0.0,0.0,0.0,0.0,0.0,0.0,0.0,0.0,0.0,0.0,0.0,0.0,0.0,0.0,0.0,0.0,0.0,0.0,0.0,0.0,0.0,0.0,0.0,0.0,0.0,0.0,0.0,0.0,0.0,0.0,0.0,0.0,0.0,0.0,0.0,0.0,-0.046,-0.0467,-0.0808,-0.1481,-0.1616,-0.174,-0.2046,-0.2081,-0.2243,0.0,0.0,0.0,0.0,0.0,0.0,0.0,0.0,0.0,0.0,0.0,0.0,0.0,0.0,0.0,0.0,0.0,0.0,0.0,0.0,0.0,0.0,0.0,0.0,0.0,0.0,0.0,0.0,0.0,0.0,0.0,0.0,0.0,0.0,0.0,0.0,0.0,0.0,0.0,0.0,0.0,0.0,0.0,0.0,0.0,0.0,0.0,0.0,0.0,0.0,0.0,0.0,0.0,0.0,0.0,0.0,0.0,0.0,0.0,0.0,0.0,0.0,0.0,0.0,0.0,0.0,0.0,0.0,0.0,0.0,0.0,0.0,0.0,0.0,0.0,0.0,0.0,0.0,0.0,0.0,0.0,0.0,0.0,0.0,0.0,0.0,0.0,0.0,0.0,0.0,0.0,0.0,0.0,0.0,0.0,0.0,0.0,0.0,0.0,0.0,0.0,0.0,0.0,-0.0132,-0.0334,-0.0606,-0.0808,-0.1279,-0.1673,-0.1715,-0.1951,-0.2115,-0.2147,0.0,0.0,0.0,0.0,0.0,0.0,0.0,0.0,0.0,0.0,0.0,0.0,0.0,0.0,0.0,0.0,0.0,0.0,0.0,0.0,0.0,0.0,0.0,0.0,0.0,0.0,0.0,0.0,0.0,0.0,0.0,0.0,0.0,0.0,0.0,0.0,0.0,0.0,0.0,0.0,0.0,0.0,0.0,0.0,0.0,0.0,0.0,0.0,0.0,0.0,0.0,0.0,0.0,0.0,0.0,0.0,0.0,0.0,0.0,0.0,0.0,0.0,0.0,0.0,0.0,0.0,0.0,0.0,0.0,0.0,0.0,0.0,0.0,0.0,0.0,0.0,0.0,0.0,0.0,0.0,0.0,0.0,0.0,0.0,0.0,0.0,0.0,0.0,0.0,0.0,0.0,0.0,0.0,0.0,0.0,0.0,0.0,0.0,0.0,0.0,0.0,0.0,0.0,-0.0199,-0.0334,-0.0471,-0.0871,-0.1195,-0.1374,-0.1548,-0.1716,-0.1816,0.0,0.0,0.0,0.0,0.0,0.0,0.0,0.0,0.0,0.0,0.0,0.0,0.0,0.0,0.0,0.0,0.0,0.0,0.0,0.0,0.0,0.0,0.0,0.0,0.0,0.0,0.0,0.0,0.0,0.0,0.0,0.0,0.0,0.0,0.0,0.0,0.0,0.0,0.0,0.0,0.0,0.0,0.0,0.0,0.0,0.0,0.0,0.0,0.0,0.0,0.0,0.0,0.0,0.0,0.0,0.0,0.0,0.0,0.0,0.0,0.0,0.0,0.0,0.0,0.0,0.0,0.0,0.0,0.0,0.0,0.0,0.0,0.0,0.0,0.0,0.0,0.0,0.0,0.0,0.0,0.0,0.0,0.0,0.0,0.0,0.0,0.0,0.0,0.0,0.0,0.0,0.0,0.0,0.0,0.0,0.0,0.0,0.0,0.0,0.0,0.0,0.0,0.0,0.0,-0.0132,-0.0402,-0.0464,-0.0654,-0.0902,-0.0954,-0.113,-0.1422,0.0,0.0,0.0,0.0,0.0,0.0,0.0,0.0,0.0,0.0,0.0,0.0,0.0,0.0,0.0,0.0,0.0,0.0,0.0,0.0,0.0,0.0,0.0,0.0,0.0,0.0,0.0,0.0,0.0,0.0,0.0,0.0,0.0,0.0,0.0,0.0,0.0,0.0,0.0,0.0,0.0,0.0,0.0,0.0,0.0,0.0,0.0,0.0,0.0,0.0,0.0,0.0,0.0,0.0,0.0,0.0,0.0,0.0,0.0,0.0,0.2681,0.2353,0.0,0.0,0.0,0.0,0.0,0.0,0.0,0.0,0.0,0.0,0.0,0.0,0.0,0.0,0.0,0.0,0.0,0.0,0.0,0.0,0.0,0.0,0.0,0.0,0.0,0.0,0.0,0.0,0.0,0.0,0.0,0.0,0.0,0.0,0.0,0.0,0.0,0.0,0.0,0.0,0.0,0.0,0.0,-0.013,-0.0325,-0.0516,-0.0572,-0.0823,-0.1004,-0.1113,-0.1111,0.0,0.0,0.0,0.0,0.0,0.0,0.0,0.0,0.0,0.0,0.0,0.0,0.0,0.0,0.0,0.0,0.0,0.0,0.0,0.0,0.0,0.0,0.0,0.0,0.0,0.0,0.0,0.0,0.0,0.0,0.0,0.0,0.0,0.0,0.0,0.0,0.0,0.0,0.0,0.0,0.0,0.0,0.0,0.0,0.0,0.0,0.0,0.0,0.0,0.0,0.0,0.0,0.0,0.0,0.0,0.0,0.0,0.0,0.0,0.2974,0.258,0.0,0.0,0.0,0.0,0.0,0.0,0.0,0.0,0.0,0.0,0.0,0.0,0.0,0.0,0.0,0.0,0.0,0.0,0.0,0.0,0.0,0.0,0.0,0.0,0.0,0.0,0.0,0.0,0.0,0.0,0.0,0.0,0.0,0.0,0.0,0.0,0.0,0.0,0.0,0.0,0.0,0.0,0.0,0.0,-0.0128,-0.0255,-0.0253,-0.0439,-0.056,-0.0741,-0.0741,0.0,0.0,0.0,0.0,0.0,0.0,0.0,0.0,0.0,0.0,0.0,0.0,0.0,0.0,0.0,0.0,0.0,0.0,0.0,0.0,0.0,0.0,0.0,0.0,0.0,0.0,0.0,0.0,0.0,0.0,0.0,0.0,0.0,0.0,0.0,0.0,0.0,0.0,0.0,0.0,0.0,0.0,0.0,0.0,0.0,0.0,0.0,0.0,0.0,0.0,0.0,0.0,0.0,0.4104,0.3919,0.3919,0.3919,0.3919,0.3919,0.3357,0.2892,0.2481,0.206,0.0,0.0,0.0,0.0,0.0,0.0,0.0,0.0,0.0,0.0,0.0,0.0,0.0,0.0,0.0,0.0,0.0,0.0,0.0,0.0,0.0,0.0,0.1155,0.1108,0.1111,0.0926,0.0309,0.0,0.0,0.0,0.0,0.0,0.0,0.0,0.0,0.0,0.0,0.0,0.0,0.0,0.0,0.0,0.0,0.0,0.0,0.0,-0.0123,-0.037,-0.0432,-0.0487,0.0,0.0,0.0,0.0,0.0,0.0,0.0,0.0,0.0,0.0,0.0,0.0,0.0,0.0,0.0,0.0,0.0,0.0,0.0,0.0,0.0,0.0,0.0,0.0,0.0,0.0,0.0,0.0,0.0,0.0,0.0,0.0,0.5482,0.5504,0.0,0.0,0.0,0.0,0.0,0.0,0.0,0.0,0.0,0.0,0.0,0.0,0.0,0.602,0.5638,0.5317,0.4998,0.4681,0.4232,0.4102,0.4102,0.4102,0.4102,0.4038,0.3653,0.0,0.2891,0.2216,0.0,0.0,0.0,0.0,0.0,0.0,0.0,0.0,0.0,0.0,0.0,0.0,0.0,0.0,0.0,0.0,0.0,0.0,0.0,0.0,0.0,0.0,0.1787,0.1481,0.142,0.1359,0.0926,0.0864,0.0803,0.0494,0.0432,0.037,0.0,0.0,0.0,0.0,0.0,0.0,0.0,0.0,0.0,0.0,0.0,0.0,0.0,0.0,0.0,-0.0062,-0.0062,-0.0061,-0.0118,-0.0118,0.0,0.0,0.0,0.0,0.0,0.0,0.0,0.0,0.0,0.0,0.0,0.0,0.0,0.0,0.0,0.0,0.0,0.0,0.0,0.0,0.0,0.0,0.0,0.0,0.0,0.0,0.0,0.0,0.0,0.5459,0.5545,0.5649,0.5733,0.58,0.0,0.0,0.0,0.0,0.0,0.0,0.0,0.0,0.0,0.618,0.618,0.6116,0.5989,0.5476,0.5154,0.4962,0.4383,0.4125,0.4125,0.4125,0.4125,0.4061,0.3738,0.3391,0.3036,0.2509,0.2187,0.1997,0.0,0.0,0.0,0.0,0.1926,0.1852,0.1732,0.1662,0.165,0.1532,0.0,0.0,0.0,0.0,0.0,0.0,0.0,0.1776,0.1788,0.1915,0.1977,0.1791,0.1791,0.1729,0.1606,0.1544,0.142,0.0864,0.0803,0.0741,0.0617,0.0432,0.0,0.0,0.0,0.0,0.0,0.0,0.0,0.0,0.0,0.0,0.0,0.0185,0.0309,0.0309,0.0432,0.0548,0.0531,0.053,0.0522,0.0,0.0,0.0,0.0,0.0,0.0,0.0,0.0,0.0,0.0,0.0,0.0,0.0,0.0,0.0,0.0,0.0,0.0,0.0,0.0,0.0,0.0,0.0,0.0,0.0,0.0,0.0,0.0,0.5779,0.5862,0.5943,0.5941,0.5937,0.0,0.0,0.0,0.0,0.0,0.0,0.6215,0.6215,0.6225,0.6249,0.6251,0.6251,0.6251,0.56,0.5277,0.5212,0.4497,0.4172,0.4172,0.4172,0.4172,0.4107,0.3911,0.3586,0.3257,0.2814,0.2348,0.2027,0.1999,0.1988,0.1986,0.1979,0.1962,0.1943,0.1943,0.1928,0.1909,0.1909,0.1909,0.1909,0.1909,0.0,0.0,0.0,0.0,0.1977,0.1977,0.1977,0.1977,0.1977,0.1982,0.1988,0.1988,0.1993,0.187,0.1237,0.1111,0.1111,0.0988,0.0803,0.0,0.0617,0.0432,0.0247,0.0247,0.0247,0.0247,0.0247,0.0247,0.0247,0.0247,0.0494,0.0617,0.0617,0.0864,0.0976,0.095,0.0886,0.0872,0.0904,0.0,0.0,0.0,0.0,0.0,0.0,0.0,0.0,0.0,0.0,0.0,0.0,0.0,0.0,0.0,0.0,0.0,0.0,0.0,0.0,0.0,0.0,0.0,0.0,0.0,0.0,0.0,0.0,0.0,0.6315,0.6361,0.0,0.0,0.0,0.0,0.6174,0.6178,0.6219,0.6304,0.6308,0.6349,0.6504,0.6508,0.6508,0.6508,0.577,0.5369,0.5369,0.4634,0.4298,0.4298,0.4298,0.4298,0.4298,0.4298,0.4096,0.3685,0.2934,0.2384,0.2059,0.2029,0.2016,0.2013,0.1986,0.1975,0.1974,0.1974,0.1973,0.1972,0.1972,0.1972,0.1972,0.1972,0.1973,0.0,0.0,0.1977,0.1977,0.1977,0.1977,0.1977,0.1977,0.1996,0.2016,0.2016,0.2039,0.1979,0.1552,0.1482,0.1359,0.105,0.0,0.0988,0.0988,0.0988,0.0926,0.0926,0.0926,0.0926,0.0926,0.0926,0.0926,0.0926,0.0988,0.0988,0.0988,0.0988,0.0981,0.1025,0.095,0.0877,0.0919,0.1131,0.0,0.0,0.0,0.0,0.0,0.0,0.0,0.0,0.0,0.0,0.0,0.0,0.0,0.0,0.0,0.0,0.0,0.0,0.0,0.0,0.0,0.0,0.0,0.0,0.0,0.0,0.0,0.0,0.6806,0.669,0.0,0.6457,0.6346,0.6268,0.6268,0.6323,0.6372,0.6402,0.6462,0.6509,0.6541,0.6598,0.6489,0.6212,0.5801,0.5388,0.511,0.4628,0.442,0.4418,0.4383,0.4367,0.4364,0.4324,0.4105,0.3764,0.3194,0.2769,0.2417,0.2189,0.2048,0.2044,0.2014,0.2003,0.2001,0.1983,0.1977,0.1977,0.1977,0.1977,0.1977,0.1977,0.1977,0.1977,0.1977,0.199,0.2003,0.2003,0.2018,0.2033,0.2033,0.204,0.2048,0.2048,0.2056,0.2058,0.1909,0.1906,0.1842,0.1715,0.1524,0.1392,0.1317,0.1127,0.0999,0.0989,0.0988,0.0988,0.0988,0.0988,0.0988,0.0988,0.1173,0.1297,0.1297,0.1544,0.1595,0.157,0.1545,0.152,0.1495,0.1584,0.1683,0.0,0.0,0.0,0.0,0.0,0.0,0.0,0.0,0.0,0.0,0.0,0.0,0.0,0.0,0.0,0.0,0.0,0.0,0.0,0.0,0.0,0.0,0.0,0.0,0.0,0.725,0.7299,0.7277,0.707,0.6877,0.675,0.6509,0.6364,0.6364,0.6449,0.6568,0.6568,0.6586,0.6637,0.6637,0.6694,0.6585,0.6304,0.5817,0.5467,0.5186,0.4694,0.4482,0.4481,0.4444,0.4417,0.4397,0.4356,0.4191,0.3969,0.3565,0.3145,0.2784,0.2287,0.2079,0.2076,0.2045,0.2034,0.2031,0.2012,0.2006,0.2006,0.2006,0.2006,0.2006,0.2006,0.2006,0.2006,0.2006,0.202,0.2034,0.2034,0.2049,0.2128,0.2128,0.2071,0.2079,0.2079,0.2087,0.216,0.216,0.2143,0.2128,0.2128,0.1935,0.1735,0.1719,0.1519,0.1321,0.1308,0.1362,0.1359,0.1359,0.1359,0.1359,0.1359,0.1544,0.1667,0.1667,0.1853,0.1967,0.1947,0.2036,0.2063,0.1973,0.2043,0.2188,0.2356,0.0,0.0,0.0,0.0,0.0,0.0,0.0,0.0,0.0,0.0,0.0,0.0,0.0,0.0,0.0,0.0,0.0,0.0,0.0,0.0,0.0,0.0,0.0,0.7861,0.8043,0.7975,0.7707,0.75,0.7177,0.6917,0.667,0.652,0.652,0.6535,0.6586,0.659,0.6678,0.6727,0.6731,0.6733,0.6665,0.6665,0.5966,0.5614,0.5544,0.4839,0.4488,0.4488,0.4484,0.4452,0.4401,0.4397,0.4362,0.4308,0.3969,0.3565,0.3157,0.2386,0.211,0.2107,0.2076,0.2129,0.2128,0.2128,0.2128,0.2128,0.2128,0.2128,0.2128,0.2128,0.2128,0.2128,0.2128,0.2129,0.213,0.213,0.2131,0.2131,0.2131,0.2089,0.211,0.211,0.2133,0.2222,0.2222,0.2173,0.2131,0.2131,0.2131,0.2131,0.213,0.204,0.0,0.2019,0.1994,0.1977,0.1977,0.1977,0.1977,0.1977,0.1977,0.1977,0.1977,0.2038,0.2038,0.2038,0.2249,0.2393,0.2299,0.2571,0.2698,0.2698,0.0,0.0,0.0,0.0,0.0,0.0,0.0,0.0,0.0,0.0,0.0,0.0,0.0,0.0,0.0,0.0,0.0,0.0,0.0,0.0,0.0,0.7899,0.8029,0.8062,0.8108,0.81,0.7891,0.7612,0.7348,0.7013,0.6706,0.652,0.652,0.6545,0.6521,0.6586,0.6678,0.6756,0.6817,0.6882,0.663,0.6053,0.5837,0.548,0.4976,0.4759,0.4615,0.461,0.4523,0.4474,0.4454,0.4369,0.4323,0.4308,0.3969,0.3565,0.316,0.2681,0.241,0.2138,0.2108,0.2082,0.2128,0.2128,0.2128,0.2128,0.2128,0.2128,0.2128,0.2128,0.2128,0.2128,0.2128,0.208,0.2097,0.2097,0.2113,0.2197,0.2197,0.2203,0.2142,0.2142,0.2216,0.2222,0.2222,0.2208,0.2197,0.2197,0.2197,0.2188,0.21,0.209,0.2068,0.2024,0.2011,0.1999,0.1979,0.1977,0.1977,0.1977,0.1977,0.1977,0.1977,0.2222,0.2345,0.2345,0.2613,0.2752,0.2709,0.2977,0.3138,0.0,0.0,0.0,0.0,0.0,0.0,0.0,0.0,0.0,0.0,0.0,0.0,0.0,0.0,0.0,0.0,0.0,0.0,0.0,0.0,0.0,0.0,0.807,0.8152,0.8193,0.8269,0.8226,0.801,0.7685,0.739,0.7051,0.6719,0.652,0.652,0.6557,0.6551,0.6643,0.6731,0.6819,0.6909,0.6817,0.6555,0.6047,0.5683,0.532,0.4883,0.4738,0.4651,0.4624,0.4553,0.4493,0.4443,0.4375,0.4331,0.4308,0.4105,0.3768,0.3431,0.0,0.0,0.0,0.0,0.2117,0.2168,0.2168,0.2168,0.2168,0.2168,0.2168,0.2168,0.2168,0.2168,0.2168,0.2168,0.2114,0.2128,0.2128,0.2142,0.2222,0.2222,0.2222,0.2222,0.2222,0.2222,0.2222,0.2222,0.2222,0.0,0.2222,0.2222,0.2216,0.2131,0.2117,0.2092,0.2044,0.2026,0.2007,0.1979,0.1977,0.1977,0.1977,0.2099,0.0,0.0,0.0,0.2775,0.29,0.3039,0.0,0.0,0.0,0.3533,0.3533,0.371,0.0,0.0,0.3321,0.3394,0.0,0.0,0.0,0.0,0.0,0.0,0.0,0.0,0.0,0.0,0.0,0.0,0.0,0.0,0.0,0.0,0.8158,0.8176,0.8339,0.8372,0.8278,0.8046,0.7658,0.7323,0.6985,0.6654,0.652,0.652,0.6529,0.6615,0.6707,0.6792,0.0,0.0,0.0,0.6339,0.6266,0.5539,0.5173,0.5164,0.4799,0.4623,0.4563,0.4556,0.4497,0.4398,0.4391,0.4357,0.4308,0.4308,0.4105,0.3701,0.2962,0.2492,0.2222,0.2222,0.2222,0.2222,0.2222,0.0,0.0,0.2222,0.2222,0.2222,0.2222,0.2222,0.2222,0.2222,0.2222,0.2222,0.2222,0.2222,0.2222,0.2222,0.2222,0.2222,0.2222,0.2222,0.2222,0.2222,0.2222,0.2222,0.2222,0.2222,0.2222,0.2222,0.2131,0.2102,0.2133,0.204,0.2011,0.198,0.2038,0.0,0.2038,0.2345,0.2529,0.2529,0.29,0.3208,0.3517,0.3471,0.3567,0.3871,0.3818,0.3789,0.3789,0.3789,0.3789,0.3789,0.3775,0.3831,0.0,0.0,0.0,0.0,0.0,0.0,0.0,0.0,0.0,0.0,0.0,0.0,0.0,0.0,0.0,0.831,0.8348,0.8266,0.8206,0.8158,0.8035,0.7655,0.7321,0.6987,0.6654,0.652,0.652,0.652,0.6537,0.6521,0.6611,0.6702,0.6651,0.6452,0.6378,0.6123,0.5467,0.5248,0.5004,0.4735,0.4663,0.0,0.4499,0.4452,0.442,0.4395,0.4346,0.4319,0.4308,0.4308,0.4105,0.3701,0.2962,0.2492,0.2222,0.2222,0.2222,0.2222,0.2222,0.2222,0.2222,0.2222,0.2222,0.2222,0.2222,0.2222,0.0,0.2222,0.2222,0.2222,0.2222,0.2222,0.2222,0.2222,0.2222,0.2222,0.2222,0.2222,0.2222,0.2222,0.2222,0.2222,0.2222,0.2222,0.2222,0.2222,0.2217,0.2192,0.2135,0.2059,0.2035,0.1982,0.2222,0.2406,0.2406,0.2715,0.29,0.29,0.3208,0.3517,0.3826,0.3816,0.3811,0.3872,0.386,0.3855,0.3855,0.3855,0.3855,0.3852,0.3815,0.3855,0.0,0.0,0.0,0.0,0.0,0.0,0.0,0.0,0.0,0.0,0.0,0.6969,0.7624,0.0,0.8196,0.8378,0.8418,0.8328,0.811,0.7925,0.7658,0.7323,0.7121,0.6853,0.652,0.652,0.652,0.652,0.652,0.6562,0.6584,0.6493,0.6349,0.6222,0.5911,0.5575,0.5147,0.4932,0.4772,0.4527,0.4527,0.4497,0.444,0.4412,0.4382,0.4352,0.432,0.4308,0.4308,0.4308,0.4105,0.3768,0.3366,0.2895,0.2425,0.2425,0.2357,0.2222,0.2222,0.2222,0.2222,0.2222,0.2222,0.2222,0.2222,0.2222,0.2222,0.2222,0.2222,0.2222,0.2222,0.2222,0.2222,0.2222,0.2222,0.2222,0.2222,0.2222,0.2222,0.2222,0.2357,0.2425,0.2425,0.2558,0.2558,0.2222,0.2222,0.2266,0.2331,0.2322,0.236,0.2477,0.2653,0.2775,0.2775,0.3085,0.3332,0.3455,0.358,0.3765,0.3889,0.3889,0.3889,0.3889,0.3889,0.3889,0.3889,0.4073,0.4133,0.4132,0.4311,0.4298,0.0,0.0,0.0,0.0,0.0,0.0,0.0,0.5535,0.5776,0.6526,0.6772,0.7101,0.7859,0.8108,0.8195,0.8416,0.8385,0.8286,0.8046,0.7658,0.7257,0.692,0.6918,0.6786,0.652,0.652,0.652,0.652,0.652,0.6486,0.6489,0.6235,0.6069,0.5928,0.5386,0.5045,0.4975,0.4694,0.4477,0.4466,0.4466,0.4436,0.4382,0.4382,0.4353,0.4308,0.4308,0.4308,0.4308,0.4308,0.4172,0.3902,0.3902,0.35,0.2896,0.2828,0.2626,0.2423,0.2423,0.2357,0.2289,0.2289,0.2222,0.2222,0.2222,0.2222,0.2222,0.2222,0.2222,0.2222,0.2222,0.2222,0.2289,0.2289,0.2357,0.2423,0.2423,0.2423,0.2423,0.2423,0.2626,0.2828,0.2828,0.3028,0.3027,0.249,0.2423,0.2466,0.2655,0.2709,0.2807,0.2971,0.3085,0.3146,0.3146,0.3394,0.3642,0.3889,0.3889,0.3889,0.3889,0.3889,0.3889,0.3889,0.3889,0.395,0.4011,0.4255,0.4439,0.4501,0.4872,0.481,0.3402,0.3875,0.4544,0.5232,0.5422,0.5484,0.0,0.5633,0.5875,0.6253,0.6761,0.7173,0.7673,0.8108,0.8418,0.8549,0.8304,0.7979,0.7591,0.7257,0.692,0.6587,0.6587,0.652,0.652,0.652,0.652,0.652,0.652,0.6321,0.5994,0.6066,0.5767,0.509,0.5082,0.4905,0.4552,0.4552,0.4458,0.4407,0.4407,0.4376,0.4318,0.4318,0.4313,0.4308,0.4308,0.4308,0.4308,0.4308,0.4308,0.4239,0.4239,0.4038,0.3633,0.3296,0.3094,0.3094,0.3094,0.2894,0.2627,0.2627,0.2425,0.2222,0.2222,0.2222,0.2222,0.2222,0.2222,0.2222,0.2222,0.2424,0.2627,0.2627,0.2894,0.3094,0.3094,0.3094,0.3094,0.3094,0.3094,0.3162,0.3162,0.3161,0.3161,0.3094,0.3094,0.3063,0.3044,0.3033,0.3062,0.3033,0.3271,0.3517,0.3765,0.3826,0.3889,0.3889,0.3889,0.3889,0.3889,0.3889,0.3889,0.3889,0.3889,0.4073,0.4316,0.4376,0.4562,0.4872,0.5177,0.5177,0.394,0.4247,0.4611,0.526,0.5445,0.552,0.5573,0.5688,0.5931,0.6344,0.6802,0.7226,0.7716,0.8117,0.8391,0.8304,0.8189,0.7922,0.7321,0.7118,0.6851,0.652,0.652,0.652,0.652,0.652,0.652,0.652,0.625,0.6048,0.5912,0.5541,0.5221,0.4882,0.4707,0.4587,0.4382,0.4382,0.4369,0.4345,0.4345,0.4333,0.4308,0.4308,0.4308,0.4308,0.4308,0.4308,0.4308,0.4308,0.4308,0.4308,0.4308,0.4239,0.4038,0.3701,0.3431,0.3228,0.3228,0.3095,0.2961,0.2961,0.2893,0.2759,0.2759,0.2759,0.2759,0.2759,0.2759,0.2759,0.2759,0.2893,0.2961,0.2961,0.3095,0.3228,0.3228,0.3228,0.3228,0.3228,0.3363,0.3565,0.3565,0.3701,0.3835,0.3835,0.3498,0.3263,0.3365,0.3417,0.3444,0.3529,0.3642,0.3765,0.3889,0.3889,0.3889,0.3889,0.3889,0.3889,0.3889,0.3889,0.4011,0.4195,0.4195,0.4379,0.4687,0.4868,0.5053,0.5177,0.5546,0.5609,0.4188,0.4424,0.4653,0.5186,0.5425,0.5569,0.5661,0.5753,0.5924,0.6268,0.6699,0.7148,0.7657,0.7981,0.8165,0.8112,0.7925,0.7588,0.7051,0.692,0.6786,0.652,0.652,0.652,0.652,0.652,0.6453,0.6317,0.6048,0.5778,0.5577,0.5108,0.4774,0.464,0.4441,0.4308,0.4308,0.4308,0.4308,0.4308,0.4308,0.4308,0.4308,0.4308,0.4308,0.4308,0.4308,0.4308,0.4308,0.4308,0.4308,0.4308,0.4308,0.4308,0.4239,0.4038,0.3768,0.3498,0.3498,0.3431,0.3363,0.3363,0.3295,0.3228,0.3228,0.3228,0.3228,0.3228,0.3228,0.3228,0.3228,0.3295,0.3363,0.3363,0.3431,0.3498,0.3498,0.3498,0.3498,0.3498,0.3768,0.3969,0.3969,0.4172,0.4308,0.4308,0.3835,0.3529,0.3687,0.3712,0.3728,0.3897,0.3889,0.3889,0.3889,0.3889,0.3889,0.3889,0.3889,0.3889,0.3889,0.4011,0.4133,0.4376,0.4501,0.4685,0.5056,0.5298,0.5421,0.5546,0.5794,0.5916,0.3924,0.4258,0.4609,0.503,0.5344,0.5605,0.5755,0.5847,0.5939,0.597,0.6377,0.6855,0.7348,0.7453,0.7655,0.8058,0.7519,0.7051,0.6985,0.6719,0.652,0.652,0.652,0.652,0.652,0.652,0.6317,0.5979,0.5912,0.5577,0.4839,0.4839,0.464,0.4307,0.4308,0.4308,0.4308,0.4308,0.4308,0.4308,0.4308,0.4308,0.4308,0.4308,0.4308,0.4308,0.4308,0.4308,0.4308,0.4308,0.4308,0.4308,0.4308,0.4308,0.4308,0.4308,0.4308,0.4239,0.4239,0.4038,0.3768,0.3768,0.3498,0.3228,0.3228,0.3228,0.3228,0.3228,0.3228,0.3228,0.3228,0.3498,0.3768,0.3768,0.4038,0.4239,0.4239,0.4239,0.4239,0.4239,0.4308,0.4308,0.4308,0.4308,0.4308,0.4308,0.4308,0.4197,0.4076,0.3963,0.3893,0.3889,0.3889,0.3889,0.3889,0.3889,0.3889,0.3889,0.3889,0.3889,0.3889,0.4195,0.4376,0.4376,0.4749,0.5056,0.536,0.5421,0.5546,0.5855,0.5916,0.5916,0.3924,0.4126,0.4393,0.4934,0.5272,0.5443,0.5714,0.5851,0.5959,0.6108,0.6419,0.6813,0.7106,0.7367,0.7457,0.7388,0.7185,0.692,0.6719,0.6587,0.652,0.652,0.652,0.6386,0.6115,0.6115,0.6048,0.5912,0.5443,0.5041,0.4839,0.4574,0.4441,0.4308,0.4308,0.4308,0.4308,0.4308,0.4308,0.4308,0.4308,0.4308,0.4308,0.4308,0.4308,0.4308,0.4308,0.4308,0.4308,0.4308,0.4308,0.4308,0.4308,0.4308,0.4308,0.4308,0.4308,0.4308,0.4308,0.4239,0.4105,0.4105,0.4038,0.3902,0.3902,0.3902,0.3902,0.3902,0.3902,0.3902,0.3902,0.4038,0.4105,0.4105,0.4239,0.4308,0.4308,0.4308,0.4308,0.4308,0.4308,0.4308,0.4308,0.4308,0.4308,0.4308,0.4239,0.4172,0.4131,0.396,0.3889,0.3889,0.3889,0.3889,0.3889,0.3889,0.3889,0.3889,0.4133,0.4255,0.4255,0.4564,0.4808,0.5053,0.5176,0.5423,0.573,0.573,0.5794,0.5916,0.5916,0.5916,0.3813,0.3974,0.4203,0.4686,0.5079,0.5363,0.5577,0.5813,0.5967,0.6143,0.6374,0.6627,0.6949,0.7054,0.7123,0.6985,0.6918,0.6719,0.652,0.652,0.652,0.652,0.652,0.6317,0.5912,0.578,0.5646,0.551,0.5041,0.4774,0.464,0.4441,0.4308,0.4308,0.4308,0.4308,0.4308,0.4308,0.4308,0.4308,0.4308,0.4308,0.4308,0.4308,0.4308,0.4308,0.4308,0.4308,0.4308,0.4308,0.4308,0.4308,0.4308,0.4308,0.4308,0.4308,0.4308,0.4308,0.4308,0.4308,0.4308,0.4308,0.4308,0.4308,0.4308,0.4308,0.4308,0.4308,0.4308,0.4308,0.4308,0.4308,0.4308,0.4308,0.4308,0.4308,0.4308,0.4308,0.4308,0.4308,0.4308,0.4308,0.4308,0.4308,0.4308,0.4308,0.4222,0.415,0.4128,0.396,0.3889,0.3889,0.3889,0.395,0.4073,0.4071,0.4133,0.4258,0.4441,0.4562,0.4562,0.4872,0.5177,0.5421,0.5544,0.5669,0.5916,0.5916,0.5916,0.5916,0.5916,0.5916,0.3593,0.3868,0.4107,0.4283,0.4766,0.5264,0.5403,0.5669,0.5906,0.6143,0.618,0.6364,0.6883,0.6719,0.6587,0.692,0.6719,0.652,0.652,0.652,0.652,0.652,0.652,0.6317,0.5912,0.558,0.5245,0.4772,0.4774,0.464,0.4308,0.4308,0.4308,0.4308,0.4308,0.4308,0.4308,0.4308,0.4308,0.4308,0.4308,0.4308,0.4308,0.4308,0.4308,0.4308,0.4308,0.4308,0.4308,0.4308,0.4308,0.4308,0.4308,0.4308,0.4308,0.4308,0.4308,0.4308,0.4308,0.4308,0.4308,0.4308,0.4308,0.4308,0.4308,0.4308,0.4308,0.4308,0.4308,0.4308,0.4308,0.4308,0.4308,0.4308,0.4308,0.4308,0.4308,0.4308,0.4308,0.4308,0.4308,0.4308,0.4308,0.4308,0.4308,0.4308,0.4256,0.4195,0.4134,0.3963,0.3892,0.3951,0.395,0.4073,0.4378,0.4439,0.4562,0.4872,0.4935,0.4933,0.4933,0.5239,0.5421,0.5421,0.573,0.5916,0.5916,0.5916,0.5916,0.5916,0.5916,0.5916,0.3655,0.3791,0.3996,0.4248,0.4482,0.4784,0.5293,0.5483,0.5656,0.6079,0.618,0.6302,0.6552,0.6587,0.652,0.6587,0.6587,0.652,0.652,0.652,0.652,0.652,0.652,0.6252,0.558,0.5448,0.5112,0.4508,0.4441,0.4374,0.4308,0.4308,0.4308,0.4308,0.4308,0.4308,0.4308,0.4308,0.4308,0.4308,0.4308,0.4308,0.4308,0.4308,0.4308,0.4308,0.4308,0.4308,0.4308,0.4308,0.4308,0.4308,0.4308,0.4308,0.4308,0.4308,0.4308,0.4308,0.4308,0.4308,0.4308,0.4308,0.4308,0.4308,0.4308,0.4308,0.4308,0.4308,0.4308,0.4308,0.4308,0.4308,0.4308,0.4308,0.4308,0.4308,0.4308,0.4308,0.4308,0.4308,0.4308,0.4308,0.4308,0.4308,0.4308,0.4308,0.4256,0.4195,0.4134,0.3997,0.4058,0.4259,0.4255,0.4379,0.4749,0.4749,0.481,0.4873,0.5116,0.53,0.53,0.5607,0.5794,0.5794,0.5855,0.5916,0.5916,0.5916,0.5916,0.5916,0.5916,0.5916,0.3711,0.3847,0.392,0.4098,0.4267,0.4561,0.5054,0.5298,0.553,0.6079,0.618,0.6237,0.6487,0.652,0.652,0.652,0.652,0.652,0.652,0.652,0.652,0.652,0.6317,0.5982,0.5448,0.5245,0.491,0.4374,0.4308,0.4308,0.4308,0.4308,0.4308,0.4308,0.4308,0.4308,0.4308,0.4308,0.4308,0.4308,0.4308,0.4308,0.4308,0.4308,0.4308,0.4308,0.4308,0.4308,0.4308,0.4308,0.4308,0.4308,0.4308,0.4308,0.4308,0.4308,0.4324,0.4343,0.4316,0.4324,0.4343,0.4316,0.4308,0.4308,0.4308,0.4308,0.4308,0.4308,0.4308,0.4308,0.4308,0.4308,0.4308,0.4308,0.4308,0.4308,0.4308,0.4308,0.4308,0.4308,0.4308,0.4308,0.4308,0.4441,0.4507,0.4507,0.461,0.4685,0.4588,0.439,0.4327,0.457,0.4624,0.4747,0.5116,0.5118,0.5179,0.5304,0.5485,0.5607,0.5607,0.5794,0.5916,0.5916,0.5916,0.5916,0.5916,0.5916,0.5916,0.5916,0.5916,0.5916,0.3708,0.3826,0.3872,0.3872,0.4093,0.4439,0.4749,0.5116,0.5468,0.6018,0.6182,0.6237,0.6487,0.652,0.652,0.652,0.652,0.652,0.652,0.652,0.652,0.652,0.6115,0.578,0.5448,0.5042,0.464,0.4307,0.4308,0.4308,0.4308,0.4308,0.4308,0.4308,0.4308,0.4308,0.4308,0.4308,0.4308,0.4308,0.4308,0.4308,0.4308,0.4308,0.4308,0.4308,0.4308,0.4308,0.4308,0.4308,0.4308,0.4308,0.4308,0.4308,0.4308,0.4316,0.4353,0.4391,0.4338,0.4354,0.4455,0.4327,0.4308,0.4308,0.4308,0.4308,0.4308,0.4374,0.4374,0.4374,0.4442,0.4442,0.4442,0.4442,0.4442,0.4442,0.4442,0.4442,0.4442,0.4442,0.4442,0.4442,0.4442,0.4708,0.4908,0.4908,0.5178,0.5393,0.5238,0.4844,0.4713,0.4942,0.4995,0.5116,0.5421,0.5483,0.5607,0.5855,0.5916,0.5916,0.5916,0.5916,0.5916,0.5916,0.5916,0.5916,0.5916,0.5916,0.5916,0.5916,0.5916,0.5916,0.348,0.3705,0.3873,0.3873,0.3943,0.4073,0.4439,0.4747,0.5162,0.57,0.5989,0.6237,0.6487,0.652,0.652,0.652,0.652,0.652,0.652,0.652,0.652,0.652,0.6115,0.578,0.5448,0.5042,0.464,0.4307,0.4308,0.4308,0.4308,0.4308,0.4308,0.4308,0.4308,0.4308,0.4308,0.4308,0.4308,0.4308,0.4308,0.4308,0.4308,0.4308,0.4308,0.4308,0.4308,0.4308,0.4308,0.4308,0.4308,0.4308,0.4308,0.4308,0.4313,0.4364,0.439,0.4397,0.4387,0.4594,0.4726,0.4395,0.4308,0.4308,0.4308,0.4308,0.4374,0.464,0.4707,0.4774,0.5112,0.518,0.518,0.518,0.518,0.518,0.518,0.518,0.518,0.518,0.518,0.518,0.518,0.5247,0.5312,0.5312,0.5381,0.5459,0.5497,0.5272,0.5145,0.5315,0.5298,0.5423,0.5794,0.5794,0.5855,0.5916,0.5916,0.5916,0.5916,0.5916,0.5916,0.5916,0.5916,0.5916,0.5916,0.5916,0.5916,0.5916,0.5916,0.6039,0.341,0.3559,0.3703,0.3889,0.3889,0.4011,0.4316,0.4501,0.484,0.5517,0.5832,0.6031,0.6357,0.6421,0.652,0.652,0.652,0.652,0.652,0.652,0.6453,0.6183,0.5848,0.5512,0.5111,0.4775,0.4441,0.4308,0.4308,0.4308,0.4308,0.4308,0.4308,0.4308,0.4308,0.4308,0.4308,0.4308,0.4308,0.4308,0.4308,0.4308,0.4308,0.4308,0.4308,0.4308,0.4308,0.4308,0.4308,0.4308,0.4308,0.4308,0.4308,0.4327,0.4358,0.4591,0.4782,0.4836,0.5008,0.5134,0.5194,0.4987,0.4873,0.4844,0.4844,0.4844,0.4911,0.5044,0.5111,0.5178,0.5381,0.5381,0.5381,0.5381,0.5381,0.5381,0.5381,0.5381,0.5381,0.5381,0.5381,0.5381,0.5381,0.5513,0.5647,0.5647,0.5848,0.599,0.5949,0.5797,0.5732,0.5686,0.5669,0.573,0.5855,0.5916,0.5916,0.5916,0.5916,0.5916,0.5916,0.5916,0.5916,0.5916,0.5916,0.5916,0.5916,0.5916,0.5978,0.616,0.616,0.6344,0.3198,0.3394,0.358,0.3765,0.3828,0.395,0.4255,0.4378,0.4581,0.5279,0.5549,0.5825,0.6104,0.6392,0.652,0.652,0.652,0.652,0.652,0.6453,0.625,0.5912,0.5512,0.5178,0.4841,0.4507,0.4308,0.4308,0.4308,0.4308,0.4308,0.4308,0.4308,0.4308,0.4308,0.4308,0.4308,0.4308,0.4308,0.4308,0.4308,0.4308,0.4308,0.4308,0.4308,0.4308,0.4308,0.4308,0.4308,0.4308,0.4308,0.4309,0.4322,0.4424,0.4538,0.4908,0.5124,0.5352,0.5574,0.5696,0.5756,0.5662,0.551,0.5381,0.5381,0.5381,0.5448,0.5513,0.5513,0.5513,0.5582,0.5649,0.5649,0.5649,0.5649,0.5649,0.5649,0.5649,0.5649,0.5649,0.5649,0.5649,0.5649,0.5847,0.6048,0.6048,0.6317,0.6454,0.6204,0.618,0.6112,0.5937,0.5916,0.5916,0.5916,0.5916,0.5916,0.5916,0.5916,0.5916,0.5916,0.5916,0.5916,0.5916,0.5916,0.5916,0.5916,0.5978,0.616,0.6403,0.6464,0.6712,0.259,0.3023,0.3517,0.3517,0.3703,0.3889,0.395,0.4195,0.4458,0.4652,0.5232,0.5761,0.5846,0.6195,0.652,0.652,0.652,0.652,0.652,0.6183,0.5912,0.5912,0.5309,0.4841,0.4772,0.4507,0.4308,0.4308,0.4308,0.4308,0.4308,0.4308,0.4308,0.4308,0.4308,0.4308,0.4308,0.4308,0.4308,0.4308,0.4308,0.4308,0.4308,0.4308,0.4308,0.4308,0.4308,0.4308,0.4308,0.4308,0.4308,0.4313,0.4368,0.4598,0.4959,0.5153,0.5349,0.5642,0.5704,0.5918,0.618,0.609,0.5779,0.5381,0.5381,0.5381,0.5448,0.578,0.5845,0.5914,0.6319,0.6386,0.6386,0.6386,0.6386,0.6386,0.6386,0.6386,0.6386,0.6386,0.6386,0.6386,0.6386,0.6453,0.6453,0.6453,0.6453,0.6454,0.6204,0.618,0.6112,0.5937,0.5916,0.5916,0.5916,0.5916,0.5916,0.5916,0.5916,0.5916,0.5916,0.5916,0.5916,0.5916,0.5916,0.5916,0.5916,0.6221,0.6342,0.6403,0.6714,0.7021,0.2467,0.2714,0.3023,0.3394,0.358,0.3703,0.3889,0.4011,0.414,0.4413,0.482,0.5166,0.539,0.5826,0.6115,0.6115,0.6317,0.652,0.652,0.6182,0.5845,0.5647,0.5109,0.4707,0.4507,0.4374,0.4308,0.4308,0.4308,0.4308,0.4308,0.4308,0.4308,0.4308,0.4308,0.4308,0.4308,0.4308,0.4308,0.4308,0.4308,0.4308,0.4308,0.4308,0.4308,0.4308,0.4308,0.4308,0.4308,0.4308,0.4308,0.4313,0.4646,0.4899,0.5156,0.5679,0.596,0.6145,0.6431,0.6542,0.6622,0.6502,0.6334,0.6118,0.6067,0.6051,0.6118,0.625,0.625,0.6317,0.6453,0.652,0.652,0.652,0.652,0.652,0.652,0.652,0.652,0.652,0.652,0.652,0.652,0.652,0.652,0.652,0.652,0.6475,0.628,0.6215,0.6135,0.595,0.5949,0.5916,0.5916,0.5916,0.5916,0.5916,0.5916,0.5916,0.5916,0.5916,0.5916,0.5916,0.6099,0.6221,0.6221,0.6528,0.6834,0.7018,0.7143,0.7385,0.2283,0.2406,0.2652,0.3208,0.3455,0.358,0.3826,0.3889,0.395,0.4195,0.4485,0.4772,0.5028,0.5409,0.578,0.578,0.5982,0.6185,0.6185,0.5847,0.5512,0.5245,0.491,0.4574,0.4308,0.4308,0.4308,0.4308,0.4308,0.4308,0.4308,0.4308,0.4308,0.4308,0.4308,0.4308,0.4308,0.4308,0.4308,0.4308,0.4308,0.4308,0.4308,0.4308,0.4308,0.4308,0.4308,0.4308,0.4308,0.4308,0.4318,0.4407,0.4878,0.5153,0.5363,0.608,0.6433,0.6629,0.6918,0.6947,0.6876,0.6764,0.6682,0.6609,0.6557,0.652,0.652,0.652,0.652,0.652,0.652,0.652,0.652,0.652,0.652,0.652,0.652,0.652,0.652,0.652,0.652,0.652,0.652,0.652,0.652,0.652,0.652,0.6421,0.6329,0.6237,0.6147,0.6001,0.591,0.5916,0.5916,0.5916,0.5916,0.5916,0.5916,0.5916,0.5916,0.5916,0.5916,0.6039,0.628,0.6464,0.6528,0.6898,0.7143,0.7385,0.7508,0.7691,0.1977,0.2222,0.259,0.29,0.3271,0.358,0.3826,0.3889,0.3889,0.3889,0.4297,0.4708,0.4708,0.5083,0.5381,0.5381,0.5381,0.5381,0.5381,0.5042,0.4839,0.4839,0.4507,0.4308,0.4308,0.4308,0.4308,0.4308,0.4308,0.4308,0.4308,0.4308,0.4308,0.4308,0.4308,0.4308,0.4308,0.4308,0.4308,0.4308,0.4308,0.4308,0.4308,0.4308,0.4308,0.4308,0.4308,0.4308,0.4308,0.4308,0.4343,0.4472,0.4949,0.5366,0.5721,0.6235,0.6627,0.699,0.699,0.6988,0.696,0.6784,0.6725,0.669,0.6509,0.652,0.652,0.652,0.652,0.652,0.652,0.652,0.652,0.652,0.652,0.652,0.652,0.652,0.652,0.652,0.652,0.652,0.652,0.652,0.652,0.652,0.652,0.6421,0.6329,0.6237,0.6147,0.6001,0.591,0.5916,0.5916,0.5916,0.5916,0.5916,0.5916,0.5916,0.5916,0.5916,0.6039,0.6403,0.6403,0.6589,0.69,0.7204,0.7385,0.7385,0.775,0.7872,0.1977,0.2099,0.2222,0.259,0.29,0.3271,0.358,0.3765,0.3889,0.3889,0.4107,0.432,0.432,0.4685,0.4975,0.4975,0.5245,0.5381,0.5381,0.5042,0.4772,0.4772,0.4507,0.4308,0.4308,0.4308,0.4308,0.4308,0.4308,0.4308,0.4308,0.4308,0.4308,0.4308,0.4308,0.4308,0.4308,0.4308,0.4308,0.4308,0.4308,0.4308,0.4308,0.4308,0.4308,0.4308,0.4308,0.4308,0.4308,0.4308,0.4478,0.4883,0.5295,0.5719,0.6153,0.6669,0.6918,0.699,0.699,0.699,0.697,0.6851,0.6774,0.6705,0.6584,0.6502,0.652,0.652,0.652,0.652,0.652,0.652,0.652,0.652,0.652,0.652,0.652,0.652,0.652,0.652,0.652,0.652,0.652,0.652,0.652,0.652,0.652,0.651,0.6415,0.6276,0.617,0.6143,0.6006,0.5916,0.5916,0.5916,0.5916,0.5916,0.5916,0.5916,0.5916,0.6101,0.628,0.6403,0.6832,0.7141,0.7266,0.7566,0.775,0.775,0.7872,0.7872,0.1977,0.1977,0.2099,0.2406,0.2652,0.2961,0.3394,0.3642,0.3765,0.3889,0.3981,0.4125,0.4125,0.4355,0.4641,0.4641,0.4844,0.4978,0.4978,0.4775,0.4641,0.4641,0.4441,0.4308,0.4308,0.4308,0.4308,0.4308,0.4308,0.4308,0.4308,0.4308,0.4308,0.4308,0.4308,0.4308,0.4308,0.4308,0.4308,0.4308,0.4308,0.4308,0.4308,0.4308,0.4308,0.4308,0.4308,0.4308,0.0,0.4308,0.4559,0.5054,0.5442,0.5877,0.6412,0.6825,0.699,0.699,0.699,0.699,0.6974,0.6954,0.6772,0.6658,0.6566,0.6566,0.652,0.652,0.652,0.652,0.652,0.652,0.652,0.652,0.652,0.652,0.652,0.652,0.652,0.652,0.652,0.652,0.652,0.652,0.652,0.652,0.652,0.652,0.652,0.6294,0.618,0.618,0.6023,0.5916,0.5916,0.5916,0.5916,0.5916,0.5916,0.5978,0.6099,0.628,0.6526,0.6771,0.7202,0.7447,0.7566,0.7811,0.7872,0.7872,0.7872,0.7872,0.0,0.1977,0.2099,0.2406,0.2467,0.2652,0.3271,0.3455,0.0,0.3826,0.3981,0.4125,0.4125,0.4225,0.4308,0.4308,0.4308,0.4308,0.4308,0.4308,0.4308,0.4308,0.4308,0.4308,0.4308,0.4308,0.4308,0.4308,0.4308,0.4308,0.4308,0.4308,0.4308,0.4308,0.4308,0.4308,0.4308,0.4308,0.4308,0.4308,0.4308,0.4308,0.4308,0.4308,0.4308,0.4308,0.4308,0.4308,0.4308,0.4308,0.4651,0.5184,0.5461,0.5978,0.6486,0.6845,0.699,0.699,0.699,0.699,0.6974,0.6876,0.6799,0.664,0.6549,0.652,0.652,0.652,0.652,0.6587,0.6587,0.6587,0.6587,0.6587,0.652,0.652,0.652,0.652,0.652,0.652,0.652,0.652,0.652,0.652,0.652,0.652,0.652,0.652,0.652,0.6294,0.618,0.618,0.6023,0.5916,0.5916,0.5916,0.5916,0.5916,0.5916,0.6099,0.6403,0.6464,0.6771,0.7385,0.7447,0.7566,0.7872,0.7872,0.7872,0.7872,0.7872,0.7872,0.1977,0.0,0.2038,0.2099,0.2283,0.2529,0.0,0.3146,0.3517,0.358,0.3853,0.4125,0.4125,0.4225,0.4308,0.4308,0.4308,0.4308,0.4308,0.4308,0.4308,0.4308,0.4308,0.4308,0.4308,0.4308,0.4308,0.4308,0.4308,0.4308,0.4308,0.4308,0.4308,0.4308,0.4308,0.4308,0.4308,0.4308,0.4308,0.4308,0.4574,0.4574,0.4308,0.4574,0.4574,0.4308,0.4308,0.4308,0.4308,0.4308,0.4786,0.5461,0.56,0.6118,0.6845,0.699,0.699,0.699,0.699,0.699,0.6964,0.6807,0.6888,0.6979,0.6881,0.6851,0.6851,0.6851,0.7054,0.7259,0.7259,0.7259,0.7259,0.7259,0.7054,0.6851,0.6851,0.6652,0.652,0.652,0.652,0.652,0.652,0.652,0.652,0.652,0.652,0.652,0.652,0.6294,0.618,0.618,0.6023,0.5916,0.5916,0.5916,0.5916,0.5916,0.616,0.6344,0.6403,0.6893,0.7263,0.7385,0.7627,0.7811,0.7872,0.7872,0.7872,0.7872,0.7872,0.7872,0.1977,0.1977,0.1977,0.1977,0.216,0.2283,0.2467,0.2775,0.3146,0.3455,0.3727,0.3931,0.4061,0.4225,0.4308,0.4308,0.4308,0.4308,0.4308,0.4308,0.4308,0.4308,0.4308,0.4308,0.4308,0.4308,0.4308,0.4308,0.4308,0.4308,0.4308,0.4308,0.4308,0.4308,0.4308,0.4308,0.4308,0.4308,0.4374,0.4507,0.4707,0.4774,0.4844,0.4977,0.4977,0.4777,0.4641,0.4507,0.4507,0.4374,0.4786,0.5599,0.5599,0.6189,0.699,0.699,0.699,0.699,0.699,0.6962,0.6976,0.6981,0.7007,0.7115,0.7217,0.7388,0.7455,0.7254,0.739,0.7526,0.7526,0.7526,0.7526,0.7526,0.739,0.7254,0.7254,0.7056,0.6922,0.6786,0.6719,0.6652,0.652,0.652,0.652,0.652,0.652,0.652,0.652,0.6294,0.618,0.618,0.6023,0.5916,0.5916,0.6039,0.6099,0.6099,0.628,0.6526,0.6834,0.7202,0.7447,0.7627,0.7811,0.7872,0.7872,0.7872,0.7872,0.7872,0.7872,0.7872,0.1977,0.1977,0.1977,0.1977,0.1977,0.2099,0.2345,0.2467,0.2652,0.3209,0.3473,0.3674,0.3997,0.4159,0.4308,0.4308,0.4308,0.4308,0.4308,0.4308,0.4308,0.4308,0.4308,0.4308,0.4308,0.4308,0.4308,0.4308,0.4308,0.4308,0.4308,0.4308,0.4308,0.4308,0.4308,0.4308,0.4374,0.4374,0.4507,0.4772,0.4906,0.5109,0.5381,0.5448,0.5448,0.5381,0.5042,0.4908,0.4841,0.4575,0.4916,0.5585,0.5665,0.6182,0.6898,0.6984,0.699,0.6988,0.6974,0.698,0.696,0.7218,0.7259,0.7299,0.7553,0.7858,0.8125,0.7791,0.7658,0.7658,0.7658,0.7658,0.7658,0.7658,0.766,0.7593,0.7593,0.7526,0.739,0.7121,0.7051,0.6987,0.6652,0.6587,0.6587,0.652,0.652,0.6516,0.6502,0.6286,0.6176,0.6161,0.6014,0.5916,0.5978,0.6221,0.6464,0.6526,0.6526,0.6832,0.7447,0.7447,0.763,0.7872,0.7872,0.7872,0.7872,0.7872,0.7872,0.7872,0.7872,0.7872,0.1977,0.1977,0.1977,0.1977,0.1977,0.2038,0.2038,0.2283,0.2529,0.2652,0.3157,0.3608,0.3674,0.4026,0.4308,0.4308,0.4308,0.4308,0.4308,0.4308,0.4308,0.4308,0.4308,0.4308,0.4308,0.4308,0.4308,0.4308,0.4308,0.4308,0.4308,0.4308,0.4308,0.4308,0.4308,0.4441,0.4707,0.4707,0.4774,0.4839,0.5443,0.5646,0.5381,0.5713,0.5647,0.5381,0.5314,0.5314,0.5312,0.5247,0.5364,0.5586,0.5926,0.6221,0.6457,0.6889,0.699,0.6978,0.69,0.7029,0.7218,0.7186,0.7495,0.7945,0.7997,0.8256,0.8523,0.8456,0.8454,0.8454,0.8454,0.8454,0.8454,0.8454,0.8189,0.7992,0.7992,0.7724,0.7459,0.7459,0.739,0.7323,0.6985,0.692,0.6851,0.652,0.652,0.6491,0.6347,0.6245,0.6153,0.6019,0.598,0.6039,0.628,0.6342,0.6648,0.7202,0.7263,0.7447,0.7811,0.7811,0.7872,0.7872,0.7872,0.7872,0.7872,0.7872,0.7872,0.7872,0.7872,0.7872,0.1977,0.1977,0.1977,0.1977,0.1977,0.1977,0.1977,0.2099,0.2283,0.2467,0.2779,0.3159,0.3545,0.3828,0.4105,0.4239,0.4308,0.4308,0.4308,0.4308,0.4308,0.4308,0.4308,0.4374,0.4574,0.4574,0.4641,0.4911,0.471,0.4574,0.4574,0.4374,0.4308,0.4308,0.4507,0.464,0.4772,0.5175,0.5376,0.5376,0.5711,0.5914,0.5984,0.6183,0.6116,0.5984,0.5781,0.5647,0.5647,0.5448,0.556,0.5837,0.608,0.6314,0.6652,0.6883,0.6958,0.6982,0.7084,0.7187,0.7261,0.7559,0.788,0.8123,0.8323,0.8454,0.8587,0.8587,0.8587,0.8587,0.8587,0.8587,0.8587,0.8587,0.8454,0.839,0.839,0.8256,0.8056,0.7858,0.7791,0.7724,0.7321,0.7257,0.7187,0.6853,0.6786,0.6685,0.6329,0.6237,0.6147,0.6001,0.6093,0.6221,0.6403,0.6709,0.7079,0.7385,0.7569,0.775,0.7872,0.7872,0.7872,0.7872,0.7872,0.7872,0.7872,0.7872,0.7872,0.7872,0.7872,0.7872,0.1915,0.1977,0.1977,0.1977,0.1977,0.1977,0.1977,0.1977,0.2099,0.2345,0.2528,0.2773,0.3352,0.3696,0.3971,0.4239,0.4308,0.4308,0.4308,0.4308,0.4308,0.4308,0.4308,0.4441,0.4774,0.4772,0.4975,0.5381,0.5111,0.4908,0.4772,0.4574,0.4374,0.4308,0.464,0.4841,0.4908,0.5577,0.5912,0.5912,0.5981,0.6183,0.652,0.652,0.652,0.6453,0.6183,0.6048,0.6048,0.5783,0.5818,0.6079,0.6168,0.6476,0.6835,0.6925,0.6972,0.7035,0.7323,0.7348,0.7469,0.7992,0.8195,0.8256,0.8523,0.8587,0.8587,0.8587,0.8587,0.8587,0.8587,0.8587,0.8587,0.8587,0.8587,0.8587,0.8587,0.8587,0.8523,0.8256,0.8192,0.8125,0.7727,0.766,0.7524,0.7187,0.7121,0.6943,0.656,0.6483,0.6394,0.6221,0.639,0.6526,0.6648,0.7202,0.7508,0.7508,0.775,0.7872,0.7872,0.7872,0.7872,0.7872,0.7872,0.7872,0.7872,0.7872,0.7872,0.7872,0.7872,0.7872,0.1915,0.1977,0.1977,0.1977,0.1977,0.1977,0.1977,0.1977,0.1977,0.2038,0.2339,0.2709,0.3096,0.3765,0.4239,0.4308,0.4308,0.4308,0.4308,0.4308,0.4308,0.4308,0.4308,0.4441,0.4774,0.4772,0.4975,0.5381,0.5381,0.5178,0.4839,0.4772,0.4641,0.4308,0.464,0.4975,0.5381,0.5713,0.5912,0.5912,0.625,0.6453,0.652,0.652,0.652,0.652,0.6453,0.6453,0.6453,0.6453,0.6254,0.5929,0.6419,0.6649,0.6745,0.6831,0.7089,0.729,0.7292,0.7638,0.8141,0.8104,0.8331,0.8587,0.8587,0.8587,0.8587,0.8587,0.8587,0.8587,0.8587,0.8587,0.8587,0.8587,0.8587,0.8587,0.8587,0.8587,0.8587,0.8587,0.8587,0.8456,0.8125,0.8058,0.7925,0.7526,0.7459,0.7384,0.7181,0.7148,0.7068,0.687,0.6844,0.6959,0.7324,0.7627,0.7872,0.7872,0.7869,0.7872,0.7872,0.7872,0.7872,0.7872,0.7872,0.7872,0.7872,0.7872,0.7872,0.7872,0.7872,0.7872,0.1853,0.1977,0.1977,0.1977,0.1977,0.1977,0.1977,0.1977,0.1977,0.1977,0.2149,0.2465,0.3036,0.3607,0.4038,0.4239,0.4308,0.4308,0.4308,0.4308,0.4308,0.4308,0.4308,0.4508,0.5111,0.5178,0.5446,0.6051,0.5848,0.5646,0.551,0.5041,0.4841,0.4978,0.5111,0.5379,0.5713,0.6116,0.625,0.625,0.6453,0.652,0.652,0.652,0.652,0.652,0.652,0.652,0.652,0.652,0.6386,0.6327,0.6485,0.6748,0.6994,0.7089,0.7339,0.7598,0.7809,0.8012,0.8182,0.8339,0.852,0.8587,0.8587,0.8587,0.8587,0.8587,0.8587,0.8587,0.8587,0.8587,0.8587,0.8587,0.8587,0.8587,0.8587,0.8587,0.8587,0.8587,0.8587,0.8587,0.8454,0.839,0.8256,0.7925,0.7858,0.7712,0.7236,0.7207,0.7129,0.6922,0.7082,0.7324,0.7689,0.7811,0.7872,0.7872,0.7872,0.7872,0.7872,0.7872,0.7872,0.7872,0.7872,0.7872,0.7872,0.7872,0.7872,0.7872,0.7872,0.7872,0.1667,0.1915,0.1977,0.1977,0.1977,0.1977,0.1977,0.1977,0.1977,0.1977,0.2149,0.2473,0.3078,0.3498,0.3902,0.4239,0.4308,0.4308,0.4308,0.4308,0.4308,0.4308,0.4308,0.4575,0.5314,0.5381,0.5716,0.6453,0.625,0.6048,0.5912,0.5443,0.5243,0.5381,0.5513,0.5647,0.5912,0.6317,0.652,0.652,0.652,0.652,0.652,0.652,0.652,0.652,0.652,0.652,0.652,0.652,0.652,0.6527,0.6656,0.6885,0.7097,0.7335,0.7582,0.7834,0.8146,0.822,0.8323,0.852,0.8587,0.8587,0.8587,0.8587,0.8587,0.8587,0.8587,0.8587,0.8587,0.8587,0.8587,0.8587,0.8587,0.8587,0.8587,0.8587,0.8587,0.8587,0.8587,0.8587,0.8587,0.8587,0.8523,0.8323,0.8256,0.8106,0.7557,0.7527,0.7445,0.7227,0.7447,0.7627,0.7869,0.7872,0.7872,0.7872,0.7872,0.7872,0.7872,0.7872,0.7872,0.7872,0.7872,0.7872,0.7872,0.7872,0.7872,0.7872,0.7872,0.7872,0.142,0.1729,0.1977,0.1977,0.1977,0.1977,0.1977,0.1977,0.1977,0.1977,0.234,0.2733,0.3145,0.3498,0.3902,0.4239,0.4308,0.4308,0.4308,0.4308,0.4308,0.4308,0.4308,0.4575,0.5314,0.5381,0.5716,0.6453,0.652,0.6317,0.5912,0.5912,0.578,0.5448,0.5713,0.5912,0.5912,0.6317,0.652,0.652,0.652,0.652,0.652,0.652,0.652,0.652,0.652,0.652,0.652,0.652,0.652,0.652,0.6853,0.6985,0.7063,0.7498,0.788,0.8141,0.8188,0.8353,0.8587,0.8587,0.8587,0.8587,0.8587,0.8587,0.8587,0.8587,0.8587,0.8587,0.8587,0.8587,0.8587,0.8587,0.8587,0.8587,0.8587,0.8587,0.8587,0.8587,0.8587,0.8587,0.8587,0.8587,0.8587,0.8587,0.8587,0.8503,0.8266,0.817,0.8138,0.7896,0.7872,0.7872,0.7872,0.7872,0.7872,0.7872,0.7872,0.7872,0.7872,0.7872,0.7872,0.7872,0.7872,0.7872,0.7872,0.7872,0.7872,0.7872,0.7872,0.7872,0.1791,0.1915,0.1977,0.1977,0.1977,0.1977,0.1977,0.1977,0.1988,0.203,0.218,0.2473,0.3078,0.3295,0.3565,0.4172,0.4308,0.4308,0.4308,0.4308,0.4308,0.4308,0.4507,0.4842,0.5381,0.558,0.5981,0.6453,0.652,0.6453,0.6317,0.6048,0.5981,0.6185,0.5981,0.6048,0.6317,0.6453,0.6587,0.6853,0.6853,0.6719,0.652,0.652,0.652,0.652,0.652,0.6652,0.6853,0.7123,0.7192,0.7192,0.7323,0.7524,0.7794,0.796,0.8151,0.8462,0.8496,0.855,0.8587,0.8587,0.8587,0.8587,0.8587,0.8587,0.8587,0.8587,0.8587,0.8587,0.8587,0.8587,0.8587,0.8587,0.8587,0.8587,0.8587,0.8587,0.8587,0.8587,0.8587,0.8587,0.8587,0.8587,0.8587,0.8587,0.8587,0.8503,0.8266,0.8084,0.7951,0.788,0.7872,0.7872,0.7872,0.7872,0.7872,0.7872,0.7872,0.7872,0.7872,0.7872,0.7872,0.7872,0.7872,0.7872,0.7872,0.7872,0.7872,0.7872,0.7872,0.7872,0.1729,0.1915,0.1977,0.1977,0.1977,0.1977,0.1977,0.1977,0.199,0.2036,0.2056,0.2338,0.3056,0.3217,0.3431,0.4172,0.4308,0.4308,0.4308,0.4308,0.4308,0.4308,0.4574,0.4975,0.5381,0.5713,0.6048,0.6453,0.652,0.652,0.652,0.625,0.625,0.652,0.6382,0.6449,0.6719,0.6855,0.6989,0.7187,0.7187,0.7123,0.6922,0.6922,0.6922,0.6922,0.6922,0.6989,0.7187,0.739,0.7526,0.7526,0.766,0.7858,0.8125,0.8256,0.8454,0.8587,0.8587,0.8587,0.8587,0.8587,0.8587,0.8587,0.8587,0.8587,0.8587,0.8587,0.8587,0.8587,0.8587,0.8587,0.8587,0.8587,0.8587,0.8587,0.8587,0.8587,0.8587,0.8587,0.8587,0.8587,0.8587,0.8587,0.8587,0.8587,0.8508,0.8397,0.8188,0.8021,0.7872,0.7872,0.7872,0.7872,0.7872,0.7872,0.7872,0.7872,0.7872,0.7872,0.7872,0.7872,0.7872,0.7872,0.7872,0.7872,0.7872,0.7872,0.7872,0.7872,0.7872,0.7872,0.1544,0.1791,0.1977,0.1977,0.1977,0.1977,0.1977,0.1977,0.1984,0.2012,0.204,0.2329,0.3024,0.3196,0.3425,0.4172,0.4308,0.4308,0.4308,0.4308,0.4308,0.4308,0.4641,0.4975,0.5381,0.5713,0.6115,0.6453,0.652,0.652,0.652,0.652,0.6587,0.6587,0.692,0.7051,0.7051,0.7323,0.7526,0.7526,0.7526,0.7593,0.7593,0.7526,0.7526,0.7526,0.7526,0.7526,0.7526,0.7591,0.7593,0.766,0.7992,0.8125,0.8189,0.852,0.8587,0.8587,0.8587,0.8587,0.8587,0.8587,0.8587,0.8587,0.8587,0.8587,0.8587,0.8587,0.8587,0.8587,0.8587,0.8587,0.8587,0.8587,0.8587,0.8587,0.8587,0.8587,0.8587,0.8587,0.8587,0.8587,0.8587,0.8587,0.8587,0.8587,0.8386,0.8172,0.8172,0.8021,0.7872,0.7872,0.7872,0.7872,0.7872,0.7872,0.7872,0.7872,0.7872,0.7872,0.7872,0.7872,0.7872,0.7872,0.7872,0.7872,0.7872,0.7872,0.7872,0.7872,0.7872,0.7872,0.1915,0.1915,0.1977,0.1977,0.1977,0.1977,0.1977,0.1977,0.1984,0.2012,0.2024,0.2173,0.2625,0.2974,0.3323,0.3829,0.4105,0.4308,0.4308,0.4308,0.4308,0.4308,0.4844,0.5312,0.5381,0.5984,0.6386,0.652,0.652,0.6587,0.6851,0.6918,0.6987,0.7259,0.7326,0.739,0.739,0.7459,0.7658,0.7992,0.7992,0.8123,0.8323,0.7791,0.7526,0.7526,0.7858,0.7992,0.7992,0.8256,0.839,0.839,0.8456,0.852,0.852,0.8587,0.8587,0.8587,0.8587,0.8587,0.8587,0.8587,0.8587,0.8587,0.8587,0.8587,0.8587,0.8587,0.8587,0.8587,0.8587,0.8587,0.8587,0.8587,0.8587,0.8587,0.8587,0.8587,0.8587,0.8587,0.8587,0.8587,0.8587,0.8587,0.8587,0.8587,0.8386,0.8172,0.8172,0.8021,0.7872,0.7872,0.7872,0.7872,0.7872,0.7872,0.7872,0.7872,0.7872,0.7872,0.7872,0.7872,0.7872,0.7872,0.7872,0.7872,0.7872,0.7872,0.7872,0.7872,0.7872,0.7872,0.1977,0.1977,0.1977,0.1977,0.1977,0.1977,0.1977,0.1977,0.1981,0.1995,0.2009,0.2092,0.2511,0.2923,0.327,0.3621,0.3979,0.4264,0.4264,0.4289,0.4374,0.4507,0.5044,0.5448,0.5647,0.6183,0.652,0.652,0.6654,0.6786,0.6985,0.7121,0.7323,0.7526,0.766,0.7791,0.7791,0.7925,0.8123,0.8323,0.8323,0.8454,0.8587,0.8189,0.8056,0.8056,0.8256,0.8323,0.8323,0.852,0.8587,0.8587,0.8587,0.8587,0.8587,0.8587,0.8587,0.8587,0.8587,0.8587,0.8587,0.8587,0.8587,0.8587,0.8587,0.8587,0.8587,0.8587,0.8587,0.8587,0.8587,0.8587,0.8587,0.8587,0.8587,0.8587,0.8587,0.8587,0.8587,0.8587,0.8587,0.8587,0.8587,0.8587,0.8587,0.8587,0.8386,0.8172,0.8172,0.8021,0.7872,0.7872,0.7872,0.7872,0.7872,0.7872,0.7872,0.7872,0.7872,0.7872,0.7872,0.7872,0.7872,0.7872,0.7872,0.7872,0.7872,0.7872,0.7872,0.7933,0.8058,0.8119,0.1977,0.1977,0.1977,0.1977,0.1977,0.1977,0.1977,0.1977,0.1977,0.1977,0.1995,0.2076,0.2459,0.2805,0.3217,0.3479,0.3908,0.4204,0.4215,0.426,0.4428,0.4772,0.5178,0.5513,0.5847,0.625,0.652,0.6587,0.6853,0.7051,0.7185,0.7457,0.766,0.766,0.7992,0.8189,0.8189,0.8456,0.8587,0.8587,0.8587,0.8587,0.8587,0.8587,0.8587,0.8587,0.8587,0.8587,0.8587,0.8587,0.8587,0.8587,0.8587,0.8587,0.8587,0.8587,0.8587,0.8587,0.8587,0.8587,0.8587,0.8587,0.8587,0.8587,0.8587,0.8587,0.8587,0.8587,0.8587,0.8587,0.8587,0.8587,0.8587,0.8587,0.8587,0.8587,0.8587,0.8587,0.8587,0.8587,0.8587,0.8587,0.8587,0.8587,0.8587,0.8587,0.8386,0.8172,0.8172,0.8021,0.7872,0.7872,0.7872,0.7872,0.7872,0.7872,0.7872,0.7872,0.7872,0.7872,0.7872,0.7872,0.7872,0.7872,0.7872,0.7933,0.7994,0.7994,0.7994,0.8055,0.8366,0.8491,0.1977,0.1977,0.1977,0.1977,0.1977,0.1977,0.1977,0.1977,0.1977,0.1977,0.1979,0.199,0.2077,0.2655,0.3115,0.3155,0.3682,0.4157,0.4209,0.4224,0.4379,0.4766,0.5178,0.5513,0.5847,0.625,0.6587,0.6918,0.6985,0.7252,0.7925,0.7992,0.8125,0.8456,0.852,0.852,0.852,0.8587,0.8587,0.8587,0.8587,0.8587,0.8587,0.8587,0.8587,0.8587,0.8587,0.8587,0.8587,0.8587,0.8587,0.8587,0.8587,0.8587,0.8587,0.8587,0.8587,0.8587,0.8587,0.8587,0.8587,0.8587,0.8587,0.8587,0.8587,0.8587,0.8587,0.8587,0.8587,0.8587,0.8587,0.8587,0.8587,0.8587,0.8587,0.8587,0.8587,0.8587,0.8587,0.8587,0.8587,0.8587,0.8587,0.8587,0.8587,0.8587,0.8386,0.8172,0.8172,0.8021,0.7872,0.7872,0.7872,0.7872,0.7872,0.7872,0.7872,0.7872,0.7872,0.7872,0.7872,0.7872,0.7872,0.7872,0.7872,0.8058,0.8308,0.8308,0.8488,0.8793,0.8793,0.8854,0.1977,0.1977,0.1977,0.1977,0.1977,0.1977,0.1977,0.1977,0.1977,0.1977,0.1977,0.198,0.1992,0.2555,0.306,0.3017,0.3611,0.4085,0.411,0.437,0.4689,0.5046,0.5419,0.5847,0.6183,0.6386,0.6652,0.6985,0.7187,0.7524,0.8058,0.8256,0.8456,0.8587,0.8587,0.8587,0.8587,0.8587,0.8587,0.8587,0.8587,0.8587,0.8587,0.8587,0.8587,0.8587,0.8587,0.8587,0.8587,0.8587,0.8587,0.8587,0.8587,0.8587,0.8587,0.8587,0.8587,0.8587,0.8587,0.8587,0.8587,0.8587,0.8587,0.8587,0.8587,0.8587,0.8587,0.8587,0.8587,0.8653,0.8851,0.8851,0.892,0.9189,0.9192,0.9192,0.9192,0.8923,0.8587,0.8587,0.8587,0.8587,0.8587,0.8587,0.8587,0.8587,0.8386,0.8172,0.8172,0.8021,0.7872,0.7872,0.7872,0.7872,0.7872,0.7872,0.7872,0.7872,0.7872,0.7872,0.7872,0.8058,0.8183,0.8183,0.8183,0.8244,0.8369,0.8613,0.8732,0.8915,0.9034,0.9095,0.1977,0.1977,0.1977,0.1977,0.1977,0.1977,0.1977,0.1977,0.1977,0.1977,0.1977,0.2038,0.2099,0.2591,0.3023,0.3085,0.3611,0.3956,0.397,0.4435,0.4836,0.5263,0.5647,0.6027,0.6451,0.652,0.6654,0.7121,0.739,0.7724,0.8189,0.8456,0.8587,0.8587,0.8587,0.8587,0.8587,0.8587,0.8587,0.8587,0.8587,0.8587,0.8587,0.8587,0.8587,0.8587,0.8587,0.8587,0.8587,0.8587,0.8587,0.8587,0.8587,0.8587,0.8587,0.8587,0.8587,0.8587,0.8587,0.8587,0.8587,0.8587,0.8587,0.8587,0.8587,0.8587,0.8587,0.8587,0.8653,0.8784,0.905,0.9183,0.9322,0.9661,0.9728,0.9661,0.9591,0.9123,0.872,0.8587,0.8587,0.8587,0.8587,0.8587,0.8587,0.8587,0.8413,0.8272,0.8175,0.8049,0.7969,0.7875,0.7872,0.7872,0.7872,0.7872,0.7872,0.7872,0.7872,0.7933,0.7994,0.8244,0.843,0.8552,0.8613,0.8613,0.8613,0.8854,0.9037,0.9159,0.9339,0.9457,0.1977,0.1977,0.1977,0.1977,0.1977,0.1977,0.1977,0.1977,0.1977,0.1977,0.1977,0.2099,0.2406,0.2775,0.3085,0.3394,0.3706,0.3912,0.3965,0.4295,0.4726,0.525,0.5602,0.5965,0.6445,0.652,0.6788,0.7393,0.7459,0.7791,0.852,0.8587,0.8587,0.8587,0.8587,0.8587,0.8587,0.8587,0.8587,0.8587,0.8587,0.8587,0.8587,0.8587,0.8587,0.8587,0.8587,0.8587,0.8587,0.8587,0.8587,0.8587,0.8587,0.8587,0.8587,0.8587,0.8587,0.8587,0.8587,0.8587,0.8587,0.8587,0.8587,0.8587,0.8587,0.8587,0.8587,0.8587,0.8851,0.905,0.9117,0.9389,0.9661,0.9661,0.9728,0.9594,0.9186,0.9117,0.8984,0.8653,0.8587,0.8587,0.8587,0.8587,0.8587,0.8587,0.8486,0.8367,0.8186,0.8125,0.8062,0.7883,0.7872,0.7872,0.7872,0.7872,0.7872,0.7872,0.7872,0.8058,0.8369,0.8369,0.8552,0.8854,0.9095,0.9275,0.9275,0.9278,0.9457,0.9761,0.9761,0.9761,0.1977,0.1977,0.1977,0.1977,0.1977,0.1977,0.1977,0.1977,0.1977,0.1977,0.1977,0.2161,0.2715,0.29,0.3085,0.3455,0.3703,0.3896,0.3916,0.4513,0.4935,0.5179,0.5726,0.6199,0.6364,0.6419,0.6788,0.7459,0.7526,0.7791,0.8587,0.8587,0.8587,0.8587,0.8587,0.8587,0.8587,0.8587,0.8587,0.8587,0.8587,0.8587,0.8587,0.8587,0.8587,0.8587,0.8587,0.8587,0.8587,0.8587,0.8587,0.8587,0.8587,0.8587,0.8587,0.8587,0.8587,0.8587,0.8587,0.8587,0.8587,0.8587,0.8587,0.8587,0.8587,0.8587,0.8653,0.8853,0.8984,0.9183,0.9655,0.9924,1.006,1.0256,1.0323,1.0256,0.9854,0.9452,0.905,0.8917,0.872,0.8587,0.8587,0.8587,0.8587,0.8587,0.8492,0.8375,0.8186,0.813,0.807,0.7883,0.7872,0.7872,0.7872,0.7872,0.7872,0.7872,0.8119,0.8244,0.8369,0.8793,0.9034,0.9156,0.9457,0.9518,0.9275,0.9518,0.97,0.9822,0.9822,0.9822,0.2223,0.2161,0.216,0.2038,0.1977,0.1977,0.1977,0.1977,0.1977,0.1977,0.2099,0.2346,0.29,0.3085,0.3271,0.358,0.3765,0.3889,0.3889,0.4541,0.5076,0.51,0.577,0.6251,0.631,0.6372,0.6687,0.7321,0.7459,0.7791,0.839,0.852,0.8587,0.8587,0.8587,0.8587,0.8587,0.8587,0.8587,0.8587,0.8587,0.8587,0.8587,0.8587,0.8587,0.8587,0.8587,0.8587,0.8587,0.8587,0.8587,0.8587,0.8587,0.8587,0.8587,0.8587,0.8587,0.8587,0.8587,0.8587,0.8587,0.8587,0.8587,0.8587,0.872,0.8787,0.8853,0.9186,0.9386,0.9585,1.0057,1.0256,1.0389,1.0654,1.0721,1.0654,1.0389,0.9788,0.9253,0.9117,0.8851,0.8587,0.8587,0.8587,0.8587,0.8587,0.8524,0.8416,0.8191,0.8163,0.8051,0.7888,0.7872,0.7872,0.7872,0.7872,0.7933,0.8058,0.8305,0.8491,0.8671,0.9095,0.9335,0.9457,0.97,0.97,0.9457,0.97,0.9822,0.9822,0.9822,0.9822,0.0,0.0,0.0,0.2099,0.2038,0.2038,0.2038,0.2038,0.2038,0.2038,0.2284,0.259,0.2961,0.3271,0.358,0.3828,0.3889,0.3889,0.3889,0.4442,0.496,0.5091,0.561,0.6057,0.6292,0.6313,0.6483,0.6973,0.7321,0.766,0.8058,0.839,0.8587,0.8587,0.8587,0.8587,0.8587,0.8587,0.8587,0.8587,0.8587,0.8587,0.8587,0.8587,0.8587,0.8587,0.8587,0.8587,0.8587,0.8587,0.8587,0.8587,0.8587,0.8587,0.8587,0.8587,0.8587,0.8587,0.8587,0.8587,0.8587,0.8587,0.8587,0.8653,0.8984,0.9117,0.9186,0.9594,0.9927,1.0193,1.0193,1.0455,1.0721,1.0721,1.0721,1.0721,1.0721,1.019,0.9594,0.9183,0.8851,0.8587,0.8587,0.8587,0.8587,0.8587,0.8587,0.8503,0.8266,0.8172,0.8141,0.7896,0.7872,0.7872,0.7872,0.7933,0.8058,0.8369,0.843,0.8671,0.9278,0.9335,0.9457,0.9822,0.9822,0.9822,0.9822,0.9822,0.9822,0.9822,0.9822,0.9822,0.29,0.0,0.0,0.0,0.0,0.0,0.2716,0.2716,0.2716,0.2716,0.2776,0.2961,0.3271,0.3455,0.358,0.3828,0.3889,0.3889,0.3889,0.4256,0.4632,0.4899,0.5386,0.5818,0.6057,0.6241,0.646,0.6885,0.7284,0.766,0.8058,0.839,0.8587,0.8587,0.8587,0.8587,0.8587,0.8587,0.8587,0.8587,0.8587,0.8587,0.8587,0.8587,0.8587,0.8587,0.8587,0.8587,0.8587,0.8587,0.8587,0.8587,0.8587,0.8587,0.8587,0.8587,0.8587,0.8587,0.8587,0.8587,0.8653,0.8851,0.8984,0.905,0.9392,0.9525,0.9591,0.9994,1.0123,1.0259,1.0522,1.0654,1.0721,1.0721,1.0721,1.0721,1.0721,1.0389,0.9927,0.9591,0.9253,0.8917,0.8653,0.8587,0.8587,0.8587,0.8587,0.8503,0.8266,0.8172,0.8141,0.7896,0.7872,0.7872,0.7872,0.8119,0.8308,0.8369,0.8793,0.9156,0.9275,0.9518,0.97,0.9822,0.9822,0.9822,0.9822,0.9822,0.9822,0.9822,0.9822,0.9822,0.3209,0.3208,0.3146,0.3023,0.0,0.0,0.3023,0.3023,0.3023,0.3023,0.3085,0.3271,0.3455,0.358,0.3703,0.3889,0.3889,0.3889,0.3889,0.4195,0.4501,0.4872,0.528,0.5634,0.5986,0.6081,0.6287,0.6586,0.7137,0.7676,0.8253,0.852,0.8587,0.8587,0.8587,0.8587,0.8587,0.8587,0.8587,0.8587,0.8587,0.8587,0.8587,0.872,0.8787,0.8787,0.8989,0.9056,0.9056,0.9056,0.8856,0.8587,0.8587,0.8587,0.8587,0.8587,0.872,0.8787,0.8787,0.892,0.9123,0.9256,0.9322,0.9389,0.9794,0.9927,0.9994,1.0323,1.0389,1.0455,1.0654,1.0721,1.0721,1.0721,1.0721,1.0721,1.0721,1.0522,1.0259,0.9794,0.9389,0.8984,0.8653,0.8587,0.8587,0.8587,0.8587,0.8503,0.8266,0.8172,0.8141,0.7896,0.7872,0.7872,0.7872,0.8183,0.843,0.8613,0.9034,0.9335,0.9518,0.97,0.9822,0.9822,0.9822,0.9822,0.9822,0.9822,0.9822,0.9822,0.9822,0.9822,0.3702,0.3579,0.3517,0.3208,0.3085,0.0,0.3085,0.3085,0.3085,0.3085,0.3332,0.3517,0.3517,0.3765,0.3889,0.3889,0.3889,0.3889,0.3889,0.4133,0.4501,0.4872,0.5177,0.5513,0.5968,0.5984,0.6023,0.6159,0.69,0.7721,0.8496,0.8568,0.8573,0.8587,0.8587,0.8587,0.8587,0.8587,0.8587,0.8587,0.8587,0.8587,0.8587,0.8917,0.9117,0.9117,0.9525,0.9728,0.9728,0.9728,0.9325,0.8723,0.8723,0.8723,0.8723,0.8723,0.892,0.9183,0.9183,0.9389,0.9728,0.9728,0.9728,0.9794,1.0127,1.0259,1.0326,1.0588,1.0721,1.0721,1.0721,1.0721,1.0721,1.0721,1.0721,1.0721,1.0721,1.0721,1.0522,0.9861,0.9389,0.905,0.8653,0.8587,0.8587,0.8587,0.8587,0.8508,0.8285,0.818,0.8147,0.7915,0.788,0.7933,0.7933,0.8244,0.8613,0.8915,0.9217,0.9518,0.9761,0.9822,0.9822,0.9822,0.9822,0.9822,0.9822,0.9822,0.9822,0.9822,0.9822,0.9822,0.4316,0.4255,0.4132,0.3826,0.3703,0.0,0.3703,0.3703,0.3703,0.3703,0.3765,0.3826,0.3826,0.3889,0.3889,0.3889,0.3889,0.3889,0.3889,0.395,0.4196,0.4812,0.4933,0.5248,0.5879,0.5948,0.5998,0.6013,0.6798,0.7478,0.7979,0.8317,0.8492,0.8584,0.8587,0.8587,0.8587,0.8587,0.8587,0.8587,0.8587,0.8587,0.8587,0.8917,0.9117,0.9117,0.9525,0.9728,0.9728,0.9728,0.9594,0.9461,0.9461,0.9461,0.9461,0.9461,0.9528,0.9594,0.9594,0.9661,0.9728,0.9994,1.0127,1.0193,1.0522,1.0588,1.0588,1.0654,1.0721,1.0721,1.0721,1.0721,1.0721,1.0721,1.0721,1.0721,1.0721,1.0721,1.0522,0.9861,0.9661,0.9392,0.872,0.8587,0.8587,0.8587,0.8587,0.8538,0.8399,0.8296,0.8179,0.8097,0.7991,0.7994,0.8305,0.861,0.8915,0.9217,0.9518,0.9761,0.9822,0.9822,0.9822,0.9822,0.9822,0.9822,0.9822,0.9822,0.9822,0.9822,0.9822,0.9822,0.4687,0.4624,0.4626,0.4442,0.4258,0.0,0.0,0.4011,0.3889,0.3889,0.3889,0.3889,0.3889,0.3889,0.3889,0.3889,0.3889,0.3889,0.3889,0.3889,0.4136,0.4812,0.4873,0.5179,0.5857,0.5959,0.6067,0.63,0.6848,0.7365,0.7796,0.8129,0.8353,0.841,0.841,0.844,0.8503,0.8503,0.853,0.8587,0.8587,0.8587,0.8587,0.9123,0.9389,0.9455,0.999,1.0193,1.0193,1.0193,1.0193,1.0193,0.9861,0.9728,0.9728,0.9728,0.9794,0.9927,0.9927,1.006,1.0256,1.0389,1.0455,1.0455,1.0654,1.0721,1.0721,1.0721,1.0721,1.0721,1.0721,1.0721,1.0721,1.0721,1.0721,1.0721,1.0721,1.0721,1.0522,1.006,0.9794,0.9461,0.8723,0.8587,0.8587,0.8587,0.8587,0.8546,0.8432,0.8312,0.819,0.813,0.8133,0.8244,0.8369,0.8854,0.9156,0.9275,0.964,0.9822,0.9822,0.9822,0.9822,0.9822,0.9822,0.9822,0.9822,0.9822,0.9822,0.9822,0.9943,1.0061,0.5118,0.5056,0.4995,0.4935,0.4687,0.4501,0.0,0.0,0.0,0.4011,0.395,0.3889,0.3889,0.3889,0.3889,0.3889,0.3889,0.3889,0.3889,0.395,0.4196,0.4812,0.4933,0.5241,0.5857,0.5916,0.6071,0.6456,0.6835,0.719,0.7551,0.7944,0.8212,0.817,0.8172,0.8282,0.838,0.8383,0.8429,0.8519,0.8519,0.8519,0.8519,0.9318,0.9651,0.9648,1.0307,1.0636,1.0636,1.0636,1.0653,1.0614,1.0114,0.9861,0.9861,0.9861,1.006,1.0323,1.0323,1.0455,1.0721,1.0721,1.0721,1.0721,1.0721,1.0721,1.0721,1.0721,1.0721,1.0721,1.0721,1.0721,1.0721,1.0721,1.0721,1.0721,1.0721,1.0721,1.0588,1.0259,0.9927,0.9461,0.8787,0.8653,0.8587,0.8587,0.8587,0.8554,0.8462,0.8323,0.8198,0.81,0.8273,0.843,0.8491,0.8973,0.9335,0.9396,0.964,0.9822,0.9822,0.9822,0.9822,0.9822,0.9822,0.9819,0.9879,0.9879,0.9879,0.9883,1.0183,1.0304,0.5855,0.5546,0.53,0.4995,0.4872,0.4872,0.4872,0.0,0.4316,0.4316,0.0,0.3889,0.3889,0.0,0.0,0.3889,0.3889,0.3889,0.3889,0.4133,0.4501,0.4872,0.5177,0.5485,0.5855,0.5916,0.5921,0.5992,0.6548,0.7024,0.7185,0.776,0.8125,0.817,0.8172,0.8178,0.8191,0.8191,0.8261,0.8274,0.8274,0.8274,0.8274,0.8977,0.9361,0.9361,1.0072,1.0331,1.0331,1.0331,1.0405,1.0531,1.0604,1.0588,1.0588,1.0588,1.0588,1.0654,1.0654,1.0654,1.0721,1.0721,1.0721,1.0721,1.0721,1.0721,1.0721,1.0721,1.0721,1.0721,1.0721,1.0721,1.0721,1.0721,1.0721,1.0721,1.0721,1.0721,1.0588,1.0259,0.9927,0.9591,0.9117,0.8787,0.8587,0.8587,0.8587,0.8584,0.8571,0.8372,0.8167,0.8214,0.8324,0.8491,0.8793,0.9095,0.9457,0.97,0.9758,0.9822,0.9822,0.9822,0.9822,0.9822,0.9822,0.994,1.0243,1.0243,1.0243,1.0243,1.0304,1.0486,0.653,0.6221,0.5974,0.5792,0.5485,0.5177,0.5177,0.4897,0.4624,0.4624,0.0,0.0,0.0,0.0,0.0,0.0,0.4478,0.4504,0.4504,0.4747,0.4931,0.4935,0.5177,0.5544,0.5855,0.5916,0.5916,0.5916,0.6532,0.6919,0.696,0.764,0.797,0.8021,0.8024,0.8057,0.813,0.813,0.8166,0.8172,0.8172,0.8172,0.8236,0.8933,0.9315,0.9315,1.0022,1.028,1.028,1.028,1.0317,1.0385,1.0531,1.0639,1.0721,1.0721,1.0721,1.0721,1.0721,1.0721,1.0721,1.0721,1.0721,1.0721,1.0721,1.0721,1.0721,1.0721,1.0721,1.0721,1.0721,1.0721,1.0721,1.0721,1.0721,1.0721,1.0721,1.0721,1.0654,1.0522,1.0193,0.9857,0.9522,0.8989,0.8587,0.8587,0.8587,0.8587,0.8587,0.8443,0.838,0.8497,0.8648,0.8878,0.9101,0.9396,0.964,0.9822,0.9822,0.9822,0.9822,0.9822,0.9822,0.9822,1.0001,1.0183,1.0304,1.0486,1.0668,1.091,1.091,1.097,0.7021,0.6775,0.6528,0.6528,0.6096,0.5661,0.5636,0.528,0.4934,0.4915,0.4805,0.0,0.0,0.0,0.4788,0.4788,0.0,0.4879,0.4901,0.5145,0.5275,0.5053,0.5362,0.5607,0.5855,0.5916,0.5916,0.5916,0.6407,0.6775,0.69,0.7447,0.7811,0.7872,0.7872,0.7974,0.8065,0.8065,0.8049,0.8136,0.8136,0.8136,0.8136,0.889,0.9205,0.9205,0.99,1.0154,1.0154,1.0154,1.0178,1.0226,1.0331,1.0487,1.0663,1.0704,1.0721,1.0721,1.0721,1.0721,1.0721,1.0721,1.0721,1.0721,1.0721,1.0721,1.0721,1.0721,1.0721,1.0721,1.0721,1.0721,1.0721,1.0721,1.0721,1.0721,1.0721,1.0721,1.0721,1.0721,1.0455,1.0127,0.9861,0.9256,0.872,0.8587,0.8587,0.8587,0.8587,0.8552,0.8578,0.8741,0.9034,0.9203,0.9345,0.9663,0.9822,0.9822,0.9822,0.9822,0.9822,0.9822,0.9822,0.9822,1.0122,1.0365,1.0425,1.0789,1.1091,1.1458,1.1333,1.1333,0.7385,0.7143,0.69,0.69,0.665,0.6379,0.6281,0.5778,0.5275,0.52,0.4945,0.4707,0.4707,0.4708,0.471,0.471,0.4714,0.0,0.0,0.5121,0.5331,0.5351,0.5669,0.5916,0.5916,0.5916,0.5916,0.5916,0.6221,0.6528,0.69,0.7204,0.7569,0.7872,0.7872,0.7872,0.7877,0.7877,0.788,0.7883,0.7883,0.7883,0.7944,0.8619,0.8928,0.8928,0.9534,0.9836,0.9836,0.9836,0.9924,0.9994,1.0,1.0243,1.0517,1.0666,1.0721,1.0721,1.0721,1.0721,1.0721,1.0721,1.0721,1.0721,1.0721,1.0721,1.0721,1.0721,1.0721,1.0721,1.0721,1.0721,1.0721,1.0721,1.0721,1.0721,1.0721,1.0721,1.0721,1.0721,1.0455,1.0193,1.019,0.9585,0.8984,0.8653,0.8587,0.8587,0.8587,0.875,0.887,0.8864,0.9278,0.9555,0.961,0.9723,0.9822,0.9822,0.9822,0.9822,0.9822,0.9822,0.9822,0.9822,1.0122,1.0486,1.0789,1.1091,1.1462,1.1776,1.1458,1.1462,0.8122,0.7816,0.7508,0.7263,0.6904,0.6601,0.6566,0.6276,0.5996,0.5796,0.5565,0.5354,0.5185,0.5173,0.5207,0.5207,0.5255,0.5303,0.0,0.5503,0.561,0.5639,0.5819,0.5916,0.5916,0.5916,0.5916,0.5916,0.6221,0.6528,0.69,0.7204,0.7569,0.7872,0.7872,0.7872,0.7872,0.7872,0.7872,0.7872,0.7872,0.7872,0.7933,0.8607,0.8915,0.8915,0.9518,0.9822,0.9822,0.9822,0.9849,0.9849,0.9947,1.0175,1.0371,1.0514,1.0633,1.0721,1.0721,1.0721,1.0721,1.0721,1.0721,1.0721,1.0721,1.0721,1.0721,1.0721,1.0721,1.0721,1.0721,1.0721,1.0721,1.0721,1.0721,1.0721,1.0721,1.0721,1.0721,1.0721,1.0588,1.0455,1.0256,0.999,0.9655,0.905,0.872,0.8653,0.8917,0.9016,0.9156,0.9593,0.9675,0.9714,0.9873,0.9849,0.9822,0.9822,0.9822,0.9822,0.9822,0.9822,0.9883,1.0122,1.0486,1.0789,1.1152,1.1462,1.1712,1.1776,1.1651,1.1712,0.8613,0.8424,0.818,0.7816,0.7422,0.7025,0.6869,0.6604,0.6355,0.6152,0.6036,0.588,0.5603,0.5593,0.5575,0.5463,0.5512,0.5561,0.0,0.5674,0.5733,0.5733,0.5841,0.5916,0.5916,0.5916,0.5916,0.5916,0.6221,0.6528,0.69,0.7204,0.7569,0.7872,0.7872,0.7872,0.7872,0.7872,0.7872,0.7872,0.7872,0.7933,0.8119,0.8671,0.8976,0.9095,0.9579,0.9822,0.9822,0.9822,0.9822,0.9832,0.9869,1.0097,1.0297,1.0439,1.0588,1.0721,1.0721,1.0721,1.0721,1.0721,1.0721,1.0721,1.0721,1.0721,1.0721,1.0721,1.0721,1.0721,1.0721,1.0721,1.0721,1.0721,1.0721,1.0721,1.0721,1.0721,1.0721,1.0721,1.0721,1.0654,1.0389,1.0256,0.999,0.9389,0.9123,0.9056,0.9256,0.9386,0.9618,1.0061,1.0048,1.0009,1.0004,0.9849,0.9822,0.9822,0.9822,0.9822,0.9822,0.9943,1.0061,1.0304,1.0728,1.1091,1.1273,1.1647,1.1776,1.1776,1.1776,1.1776]}]]